<?xml version="1.0" encoding="UTF-8" standalone="no" ?>
<gpx xmlns="http://www.topografix.com/GPX/1/1" xmlns:xsi="http://www.w3.org/2001/XMLSchema-instance" xsi:schemaLocation="http://www.topografix.com/GPX/1/1 http://www.topografix.com/GPX/1/1/gpx.xsd" version="1.1" creator="VisuGPX - https://www.visugpx.com">
  <metadata>
    <name>Vallée du Thérain. Le Tillet , Cires lès Mello</name>
    <desc><![CDATA[Oise. Le Tillet Cires lès Mello, Mello. Vallée du Thérain.]]></desc>
  </metadata>
  <trk>
    <name><![CDATA[MA-rando-2018-09-09-161501]]></name>
    <trkseg>
      <trkpt lat="49.25812" lon="2.3278">
        <ele>103</ele>
        <time>2018-09-09T08:03:50Z</time>
      </trkpt>
      <trkpt lat="49.2582" lon="2.32772">
        <ele>104</ele>
        <time>2018-09-09T08:04:01Z</time>
      </trkpt>
      <trkpt lat="49.25829" lon="2.32771">
        <ele>103</ele>
        <time>2018-09-09T08:04:08Z</time>
      </trkpt>
      <trkpt lat="49.25839" lon="2.32776">
        <ele>103</ele>
        <time>2018-09-09T08:04:15Z</time>
      </trkpt>
      <trkpt lat="49.25849" lon="2.3278">
        <ele>103</ele>
        <time>2018-09-09T08:04:21Z</time>
      </trkpt>
      <trkpt lat="49.25859" lon="2.32782">
        <ele>103</ele>
        <time>2018-09-09T08:04:28Z</time>
      </trkpt>
      <trkpt lat="49.25869" lon="2.32783">
        <ele>103</ele>
        <time>2018-09-09T08:04:34Z</time>
      </trkpt>
      <trkpt lat="49.25878" lon="2.32782">
        <ele>103</ele>
        <time>2018-09-09T08:04:38Z</time>
      </trkpt>
      <trkpt lat="49.25888" lon="2.32782">
        <ele>104</ele>
        <time>2018-09-09T08:04:46Z</time>
      </trkpt>
      <trkpt lat="49.25897" lon="2.32787">
        <ele>104</ele>
        <time>2018-09-09T08:04:52Z</time>
      </trkpt>
      <trkpt lat="49.25906" lon="2.32793">
        <ele>105</ele>
        <time>2018-09-09T08:04:59Z</time>
      </trkpt>
      <trkpt lat="49.25915" lon="2.32798">
        <ele>106</ele>
        <time>2018-09-09T08:05:06Z</time>
      </trkpt>
      <trkpt lat="49.25924" lon="2.32802">
        <ele>106</ele>
        <time>2018-09-09T08:05:14Z</time>
      </trkpt>
      <trkpt lat="49.25933" lon="2.32806">
        <ele>106</ele>
        <time>2018-09-09T08:05:21Z</time>
      </trkpt>
      <trkpt lat="49.25943" lon="2.3281">
        <ele>105</ele>
        <time>2018-09-09T08:05:28Z</time>
      </trkpt>
      <trkpt lat="49.25952" lon="2.32815">
        <ele>105</ele>
        <time>2018-09-09T08:05:35Z</time>
      </trkpt>
      <trkpt lat="49.25961" lon="2.32821">
        <ele>104</ele>
        <time>2018-09-09T08:05:42Z</time>
      </trkpt>
      <trkpt lat="49.2597" lon="2.32826">
        <ele>104</ele>
        <time>2018-09-09T08:05:49Z</time>
      </trkpt>
      <trkpt lat="49.25979" lon="2.32829">
        <ele>103</ele>
        <time>2018-09-09T08:05:56Z</time>
      </trkpt>
      <trkpt lat="49.25989" lon="2.32833">
        <ele>102</ele>
        <time>2018-09-09T08:06:04Z</time>
      </trkpt>
      <trkpt lat="49.25997" lon="2.32837">
        <ele>101</ele>
        <time>2018-09-09T08:06:10Z</time>
      </trkpt>
      <trkpt lat="49.26007" lon="2.32839">
        <ele>101</ele>
        <time>2018-09-09T08:06:18Z</time>
      </trkpt>
      <trkpt lat="49.26017" lon="2.32841">
        <ele>100</ele>
        <time>2018-09-09T08:06:25Z</time>
      </trkpt>
      <trkpt lat="49.26027" lon="2.32846">
        <ele>100</ele>
        <time>2018-09-09T08:06:32Z</time>
      </trkpt>
      <trkpt lat="49.26036" lon="2.32848">
        <ele>99</ele>
        <time>2018-09-09T08:06:39Z</time>
      </trkpt>
      <trkpt lat="49.26046" lon="2.32851">
        <ele>98</ele>
        <time>2018-09-09T08:06:46Z</time>
      </trkpt>
      <trkpt lat="49.26054" lon="2.32854">
        <ele>98</ele>
        <time>2018-09-09T08:06:52Z</time>
      </trkpt>
      <trkpt lat="49.26063" lon="2.32858">
        <ele>98</ele>
        <time>2018-09-09T08:06:57Z</time>
      </trkpt>
      <trkpt lat="49.26073" lon="2.32861">
        <ele>97</ele>
        <time>2018-09-09T08:07:04Z</time>
      </trkpt>
      <trkpt lat="49.26083" lon="2.32863">
        <ele>96</ele>
        <time>2018-09-09T08:07:11Z</time>
      </trkpt>
      <trkpt lat="49.26092" lon="2.32866">
        <ele>96</ele>
        <time>2018-09-09T08:07:19Z</time>
      </trkpt>
      <trkpt lat="49.26101" lon="2.3287">
        <ele>95</ele>
        <time>2018-09-09T08:07:26Z</time>
      </trkpt>
      <trkpt lat="49.2611" lon="2.32875">
        <ele>95</ele>
        <time>2018-09-09T08:07:32Z</time>
      </trkpt>
      <trkpt lat="49.2612" lon="2.32879">
        <ele>94</ele>
        <time>2018-09-09T08:07:39Z</time>
      </trkpt>
      <trkpt lat="49.26129" lon="2.32884">
        <ele>94</ele>
        <time>2018-09-09T08:07:46Z</time>
      </trkpt>
      <trkpt lat="49.26137" lon="2.32891">
        <ele>94</ele>
        <time>2018-09-09T08:07:53Z</time>
      </trkpt>
      <trkpt lat="49.26146" lon="2.32897">
        <ele>93</ele>
        <time>2018-09-09T08:08:00Z</time>
      </trkpt>
      <trkpt lat="49.26156" lon="2.32902">
        <ele>93</ele>
        <time>2018-09-09T08:08:06Z</time>
      </trkpt>
      <trkpt lat="49.26165" lon="2.32909">
        <ele>93</ele>
        <time>2018-09-09T08:08:12Z</time>
      </trkpt>
      <trkpt lat="49.26174" lon="2.32914">
        <ele>93</ele>
        <time>2018-09-09T08:08:19Z</time>
      </trkpt>
      <trkpt lat="49.26184" lon="2.32919">
        <ele>93</ele>
        <time>2018-09-09T08:08:27Z</time>
      </trkpt>
      <trkpt lat="49.26193" lon="2.32923">
        <ele>93</ele>
        <time>2018-09-09T08:08:34Z</time>
      </trkpt>
      <trkpt lat="49.26201" lon="2.32929">
        <ele>93</ele>
        <time>2018-09-09T08:08:40Z</time>
      </trkpt>
      <trkpt lat="49.26211" lon="2.32934">
        <ele>94</ele>
        <time>2018-09-09T08:08:47Z</time>
      </trkpt>
      <trkpt lat="49.2622" lon="2.32938">
        <ele>93</ele>
        <time>2018-09-09T08:08:58Z</time>
      </trkpt>
      <trkpt lat="49.26229" lon="2.3294">
        <ele>92</ele>
        <time>2018-09-09T08:09:04Z</time>
      </trkpt>
      <trkpt lat="49.26238" lon="2.32946">
        <ele>92</ele>
        <time>2018-09-09T08:09:11Z</time>
      </trkpt>
      <trkpt lat="49.26247" lon="2.32949">
        <ele>91</ele>
        <time>2018-09-09T08:09:17Z</time>
      </trkpt>
      <trkpt lat="49.26257" lon="2.32953">
        <ele>91</ele>
        <time>2018-09-09T08:09:22Z</time>
      </trkpt>
      <trkpt lat="49.26267" lon="2.32956">
        <ele>91</ele>
        <time>2018-09-09T08:09:27Z</time>
      </trkpt>
      <trkpt lat="49.26276" lon="2.32964">
        <ele>91</ele>
        <time>2018-09-09T08:09:36Z</time>
      </trkpt>
      <trkpt lat="49.26285" lon="2.32968">
        <ele>91</ele>
        <time>2018-09-09T08:09:45Z</time>
      </trkpt>
      <trkpt lat="49.26295" lon="2.32969">
        <ele>90</ele>
        <time>2018-09-09T08:09:58Z</time>
      </trkpt>
      <trkpt lat="49.26304" lon="2.32974">
        <ele>89</ele>
        <time>2018-09-09T08:10:04Z</time>
      </trkpt>
      <trkpt lat="49.26313" lon="2.32979">
        <ele>89</ele>
        <time>2018-09-09T08:10:10Z</time>
      </trkpt>
      <trkpt lat="49.26322" lon="2.32984">
        <ele>89</ele>
        <time>2018-09-09T08:10:14Z</time>
      </trkpt>
      <trkpt lat="49.26333" lon="2.32987">
        <ele>89</ele>
        <time>2018-09-09T08:10:19Z</time>
      </trkpt>
      <trkpt lat="49.26344" lon="2.32993">
        <ele>89</ele>
        <time>2018-09-09T08:10:25Z</time>
      </trkpt>
      <trkpt lat="49.26353" lon="2.32995">
        <ele>89</ele>
        <time>2018-09-09T08:10:31Z</time>
      </trkpt>
      <trkpt lat="49.26362" lon="2.32997">
        <ele>90</ele>
        <time>2018-09-09T08:10:38Z</time>
      </trkpt>
      <trkpt lat="49.26371" lon="2.33001">
        <ele>90</ele>
        <time>2018-09-09T08:10:47Z</time>
      </trkpt>
      <trkpt lat="49.26381" lon="2.33004">
        <ele>90</ele>
        <time>2018-09-09T08:10:54Z</time>
      </trkpt>
      <trkpt lat="49.26391" lon="2.33006">
        <ele>91</ele>
        <time>2018-09-09T08:11:01Z</time>
      </trkpt>
      <trkpt lat="49.26401" lon="2.33008">
        <ele>91</ele>
        <time>2018-09-09T08:11:07Z</time>
      </trkpt>
      <trkpt lat="49.26411" lon="2.33009">
        <ele>92</ele>
        <time>2018-09-09T08:11:14Z</time>
      </trkpt>
      <trkpt lat="49.2642" lon="2.3301">
        <ele>92</ele>
        <time>2018-09-09T08:11:21Z</time>
      </trkpt>
      <trkpt lat="49.2643" lon="2.33009">
        <ele>92</ele>
        <time>2018-09-09T08:11:29Z</time>
      </trkpt>
      <trkpt lat="49.2644" lon="2.3301">
        <ele>92</ele>
        <time>2018-09-09T08:11:36Z</time>
      </trkpt>
      <trkpt lat="49.26449" lon="2.33013">
        <ele>91</ele>
        <time>2018-09-09T08:11:45Z</time>
      </trkpt>
      <trkpt lat="49.26459" lon="2.33013">
        <ele>91</ele>
        <time>2018-09-09T08:11:52Z</time>
      </trkpt>
      <trkpt lat="49.26468" lon="2.33011">
        <ele>90</ele>
        <time>2018-09-09T08:12:00Z</time>
      </trkpt>
      <trkpt lat="49.26478" lon="2.3301">
        <ele>89</ele>
        <time>2018-09-09T08:12:09Z</time>
      </trkpt>
      <trkpt lat="49.26487" lon="2.33008">
        <ele>88</ele>
        <time>2018-09-09T08:12:18Z</time>
      </trkpt>
      <trkpt lat="49.26497" lon="2.33007">
        <ele>87</ele>
        <time>2018-09-09T08:12:25Z</time>
      </trkpt>
      <trkpt lat="49.26506" lon="2.33004">
        <ele>86</ele>
        <time>2018-09-09T08:12:32Z</time>
      </trkpt>
      <trkpt lat="49.26517" lon="2.33">
        <ele>85</ele>
        <time>2018-09-09T08:12:38Z</time>
      </trkpt>
      <trkpt lat="49.26526" lon="2.32996">
        <ele>85</ele>
        <time>2018-09-09T08:12:43Z</time>
      </trkpt>
      <trkpt lat="49.26535" lon="2.32994">
        <ele>84</ele>
        <time>2018-09-09T08:12:51Z</time>
      </trkpt>
      <trkpt lat="49.26544" lon="2.32993">
        <ele>84</ele>
        <time>2018-09-09T08:12:56Z</time>
      </trkpt>
      <trkpt lat="49.26553" lon="2.32992">
        <ele>84</ele>
        <time>2018-09-09T08:13:02Z</time>
      </trkpt>
      <trkpt lat="49.26562" lon="2.32988">
        <ele>84</ele>
        <time>2018-09-09T08:13:09Z</time>
      </trkpt>
      <trkpt lat="49.26573" lon="2.32985">
        <ele>83</ele>
        <time>2018-09-09T08:13:19Z</time>
      </trkpt>
      <trkpt lat="49.26583" lon="2.32984">
        <ele>83</ele>
        <time>2018-09-09T08:13:24Z</time>
      </trkpt>
      <trkpt lat="49.26593" lon="2.32983">
        <ele>83</ele>
        <time>2018-09-09T08:13:29Z</time>
      </trkpt>
      <trkpt lat="49.26603" lon="2.32984">
        <ele>82</ele>
        <time>2018-09-09T08:13:40Z</time>
      </trkpt>
      <trkpt lat="49.26613" lon="2.32989">
        <ele>81</ele>
        <time>2018-09-09T08:13:46Z</time>
      </trkpt>
      <trkpt lat="49.26622" lon="2.32989">
        <ele>81</ele>
        <time>2018-09-09T08:13:52Z</time>
      </trkpt>
      <trkpt lat="49.26629" lon="2.32999">
        <ele>80</ele>
        <time>2018-09-09T08:14:02Z</time>
      </trkpt>
      <trkpt lat="49.26638" lon="2.33007">
        <ele>79</ele>
        <time>2018-09-09T08:14:07Z</time>
      </trkpt>
      <trkpt lat="49.26646" lon="2.33017">
        <ele>79</ele>
        <time>2018-09-09T08:14:14Z</time>
      </trkpt>
      <trkpt lat="49.26654" lon="2.33024">
        <ele>79</ele>
        <time>2018-09-09T08:14:20Z</time>
      </trkpt>
      <trkpt lat="49.26662" lon="2.3303">
        <ele>79</ele>
        <time>2018-09-09T08:14:26Z</time>
      </trkpt>
      <trkpt lat="49.26671" lon="2.33036">
        <ele>80</ele>
        <time>2018-09-09T08:14:32Z</time>
      </trkpt>
      <trkpt lat="49.26681" lon="2.33041">
        <ele>81</ele>
        <time>2018-09-09T08:14:38Z</time>
      </trkpt>
      <trkpt lat="49.26691" lon="2.33047">
        <ele>82</ele>
        <time>2018-09-09T08:14:46Z</time>
      </trkpt>
      <trkpt lat="49.267" lon="2.33052">
        <ele>82</ele>
        <time>2018-09-09T08:14:52Z</time>
      </trkpt>
      <trkpt lat="49.26709" lon="2.33056">
        <ele>83</ele>
        <time>2018-09-09T08:14:58Z</time>
      </trkpt>
      <trkpt lat="49.26719" lon="2.33061">
        <ele>84</ele>
        <time>2018-09-09T08:15:05Z</time>
      </trkpt>
      <trkpt lat="49.26728" lon="2.33063">
        <ele>85</ele>
        <time>2018-09-09T08:15:12Z</time>
      </trkpt>
      <trkpt lat="49.26734" lon="2.33074">
        <ele>85</ele>
        <time>2018-09-09T08:15:20Z</time>
      </trkpt>
      <trkpt lat="49.26743" lon="2.33071">
        <ele>86</ele>
        <time>2018-09-09T08:15:25Z</time>
      </trkpt>
      <trkpt lat="49.26753" lon="2.33069">
        <ele>87</ele>
        <time>2018-09-09T08:15:32Z</time>
      </trkpt>
      <trkpt lat="49.26762" lon="2.33074">
        <ele>87</ele>
        <time>2018-09-09T08:15:40Z</time>
      </trkpt>
      <trkpt lat="49.26772" lon="2.33076">
        <ele>88</ele>
        <time>2018-09-09T08:15:46Z</time>
      </trkpt>
      <trkpt lat="49.26775" lon="2.3309">
        <ele>88</ele>
        <time>2018-09-09T08:15:56Z</time>
      </trkpt>
      <trkpt lat="49.26781" lon="2.33101">
        <ele>88</ele>
        <time>2018-09-09T08:16:04Z</time>
      </trkpt>
      <trkpt lat="49.26788" lon="2.33112">
        <ele>87</ele>
        <time>2018-09-09T08:16:10Z</time>
      </trkpt>
      <trkpt lat="49.26795" lon="2.33122">
        <ele>87</ele>
        <time>2018-09-09T08:16:16Z</time>
      </trkpt>
      <trkpt lat="49.26802" lon="2.33132">
        <ele>87</ele>
        <time>2018-09-09T08:16:22Z</time>
      </trkpt>
      <trkpt lat="49.26808" lon="2.33145">
        <ele>87</ele>
        <time>2018-09-09T08:16:31Z</time>
      </trkpt>
      <trkpt lat="49.26814" lon="2.33156">
        <ele>88</ele>
        <time>2018-09-09T08:16:40Z</time>
      </trkpt>
      <trkpt lat="49.26821" lon="2.33167">
        <ele>88</ele>
        <time>2018-09-09T08:16:48Z</time>
      </trkpt>
      <trkpt lat="49.26827" lon="2.33178">
        <ele>88</ele>
        <time>2018-09-09T08:16:54Z</time>
      </trkpt>
      <trkpt lat="49.26833" lon="2.33189">
        <ele>88</ele>
        <time>2018-09-09T08:17:01Z</time>
      </trkpt>
      <trkpt lat="49.26838" lon="2.33201">
        <ele>89</ele>
        <time>2018-09-09T08:17:08Z</time>
      </trkpt>
      <trkpt lat="49.26846" lon="2.33211">
        <ele>89</ele>
        <time>2018-09-09T08:17:15Z</time>
      </trkpt>
      <trkpt lat="49.26853" lon="2.33221">
        <ele>89</ele>
        <time>2018-09-09T08:17:22Z</time>
      </trkpt>
      <trkpt lat="49.26859" lon="2.33233">
        <ele>90</ele>
        <time>2018-09-09T08:17:29Z</time>
      </trkpt>
      <trkpt lat="49.26865" lon="2.33245">
        <ele>89</ele>
        <time>2018-09-09T08:17:37Z</time>
      </trkpt>
      <trkpt lat="49.26871" lon="2.33258">
        <ele>90</ele>
        <time>2018-09-09T08:17:45Z</time>
      </trkpt>
      <trkpt lat="49.26877" lon="2.3327">
        <ele>89</ele>
        <time>2018-09-09T08:17:53Z</time>
      </trkpt>
      <trkpt lat="49.26883" lon="2.33282">
        <ele>90</ele>
        <time>2018-09-09T08:17:59Z</time>
      </trkpt>
      <trkpt lat="49.2689" lon="2.33294">
        <ele>90</ele>
        <time>2018-09-09T08:18:06Z</time>
      </trkpt>
      <trkpt lat="49.26894" lon="2.33308">
        <ele>91</ele>
        <time>2018-09-09T08:18:13Z</time>
      </trkpt>
      <trkpt lat="49.26897" lon="2.33321">
        <ele>91</ele>
        <time>2018-09-09T08:18:21Z</time>
      </trkpt>
      <trkpt lat="49.26903" lon="2.33332">
        <ele>91</ele>
        <time>2018-09-09T08:18:28Z</time>
      </trkpt>
      <trkpt lat="49.26907" lon="2.33345">
        <ele>91</ele>
        <time>2018-09-09T08:18:36Z</time>
      </trkpt>
      <trkpt lat="49.26912" lon="2.33358">
        <ele>92</ele>
        <time>2018-09-09T08:18:43Z</time>
      </trkpt>
      <trkpt lat="49.26917" lon="2.3337">
        <ele>91</ele>
        <time>2018-09-09T08:18:51Z</time>
      </trkpt>
      <trkpt lat="49.26923" lon="2.33384">
        <ele>91</ele>
        <time>2018-09-09T08:18:59Z</time>
      </trkpt>
      <trkpt lat="49.26926" lon="2.33397">
        <ele>91</ele>
        <time>2018-09-09T08:19:05Z</time>
      </trkpt>
      <trkpt lat="49.26932" lon="2.33408">
        <ele>91</ele>
        <time>2018-09-09T08:19:12Z</time>
      </trkpt>
      <trkpt lat="49.26937" lon="2.3342">
        <ele>91</ele>
        <time>2018-09-09T08:19:19Z</time>
      </trkpt>
      <trkpt lat="49.26942" lon="2.33434">
        <ele>92</ele>
        <time>2018-09-09T08:19:24Z</time>
      </trkpt>
      <trkpt lat="49.26947" lon="2.33446">
        <ele>92</ele>
        <time>2018-09-09T08:19:28Z</time>
      </trkpt>
      <trkpt lat="49.26951" lon="2.33458">
        <ele>92</ele>
        <time>2018-09-09T08:19:35Z</time>
      </trkpt>
      <trkpt lat="49.26956" lon="2.33472">
        <ele>92</ele>
        <time>2018-09-09T08:19:48Z</time>
      </trkpt>
      <trkpt lat="49.2696" lon="2.33485">
        <ele>91</ele>
        <time>2018-09-09T08:19:55Z</time>
      </trkpt>
      <trkpt lat="49.26965" lon="2.33498">
        <ele>91</ele>
        <time>2018-09-09T08:20:02Z</time>
      </trkpt>
      <trkpt lat="49.26968" lon="2.33511">
        <ele>91</ele>
        <time>2018-09-09T08:20:08Z</time>
      </trkpt>
      <trkpt lat="49.26972" lon="2.33523">
        <ele>91</ele>
        <time>2018-09-09T08:20:14Z</time>
      </trkpt>
      <trkpt lat="49.2698" lon="2.33533">
        <ele>91</ele>
        <time>2018-09-09T08:20:22Z</time>
      </trkpt>
      <trkpt lat="49.26985" lon="2.33545">
        <ele>91</ele>
        <time>2018-09-09T08:20:28Z</time>
      </trkpt>
      <trkpt lat="49.26991" lon="2.33558">
        <ele>91</ele>
        <time>2018-09-09T08:20:35Z</time>
      </trkpt>
      <trkpt lat="49.26997" lon="2.33571">
        <ele>92</ele>
        <time>2018-09-09T08:20:42Z</time>
      </trkpt>
      <trkpt lat="49.27002" lon="2.33584">
        <ele>92</ele>
        <time>2018-09-09T08:20:49Z</time>
      </trkpt>
      <trkpt lat="49.27008" lon="2.33596">
        <ele>92</ele>
        <time>2018-09-09T08:20:58Z</time>
      </trkpt>
      <trkpt lat="49.27015" lon="2.33608">
        <ele>92</ele>
        <time>2018-09-09T08:21:05Z</time>
      </trkpt>
      <trkpt lat="49.2702" lon="2.33621">
        <ele>91</ele>
        <time>2018-09-09T08:21:12Z</time>
      </trkpt>
      <trkpt lat="49.27025" lon="2.33633">
        <ele>91</ele>
        <time>2018-09-09T08:21:19Z</time>
      </trkpt>
      <trkpt lat="49.27029" lon="2.33646">
        <ele>90</ele>
        <time>2018-09-09T08:21:25Z</time>
      </trkpt>
      <trkpt lat="49.27034" lon="2.33659">
        <ele>90</ele>
        <time>2018-09-09T08:21:32Z</time>
      </trkpt>
      <trkpt lat="49.27039" lon="2.33671">
        <ele>89</ele>
        <time>2018-09-09T08:21:41Z</time>
      </trkpt>
      <trkpt lat="49.27045" lon="2.33682">
        <ele>88</ele>
        <time>2018-09-09T08:21:47Z</time>
      </trkpt>
      <trkpt lat="49.27051" lon="2.33696">
        <ele>88</ele>
        <time>2018-09-09T08:21:53Z</time>
      </trkpt>
      <trkpt lat="49.27057" lon="2.33708">
        <ele>87</ele>
        <time>2018-09-09T08:22:00Z</time>
      </trkpt>
      <trkpt lat="49.27063" lon="2.3372">
        <ele>87</ele>
        <time>2018-09-09T08:22:05Z</time>
      </trkpt>
      <trkpt lat="49.27068" lon="2.33731">
        <ele>86</ele>
        <time>2018-09-09T08:22:11Z</time>
      </trkpt>
      <trkpt lat="49.27072" lon="2.33744">
        <ele>85</ele>
        <time>2018-09-09T08:22:18Z</time>
      </trkpt>
      <trkpt lat="49.27077" lon="2.33756">
        <ele>85</ele>
        <time>2018-09-09T08:22:26Z</time>
      </trkpt>
      <trkpt lat="49.27082" lon="2.33769">
        <ele>85</ele>
        <time>2018-09-09T08:22:33Z</time>
      </trkpt>
      <trkpt lat="49.27087" lon="2.33781">
        <ele>84</ele>
        <time>2018-09-09T08:22:40Z</time>
      </trkpt>
      <trkpt lat="49.27092" lon="2.33795">
        <ele>84</ele>
        <time>2018-09-09T08:22:47Z</time>
      </trkpt>
      <trkpt lat="49.27097" lon="2.33807">
        <ele>83</ele>
        <time>2018-09-09T08:22:53Z</time>
      </trkpt>
      <trkpt lat="49.27103" lon="2.33819">
        <ele>83</ele>
        <time>2018-09-09T08:23:00Z</time>
      </trkpt>
      <trkpt lat="49.27109" lon="2.33829">
        <ele>83</ele>
        <time>2018-09-09T08:23:06Z</time>
      </trkpt>
      <trkpt lat="49.27115" lon="2.33841">
        <ele>82</ele>
        <time>2018-09-09T08:23:13Z</time>
      </trkpt>
      <trkpt lat="49.27121" lon="2.33852">
        <ele>82</ele>
        <time>2018-09-09T08:23:19Z</time>
      </trkpt>
      <trkpt lat="49.27125" lon="2.33865">
        <ele>81</ele>
        <time>2018-09-09T08:23:27Z</time>
      </trkpt>
      <trkpt lat="49.27129" lon="2.33878">
        <ele>81</ele>
        <time>2018-09-09T08:23:36Z</time>
      </trkpt>
      <trkpt lat="49.27133" lon="2.33892">
        <ele>81</ele>
        <time>2018-09-09T08:23:43Z</time>
      </trkpt>
      <trkpt lat="49.27138" lon="2.33904">
        <ele>81</ele>
        <time>2018-09-09T08:23:49Z</time>
      </trkpt>
      <trkpt lat="49.27143" lon="2.33916">
        <ele>81</ele>
        <time>2018-09-09T08:23:56Z</time>
      </trkpt>
      <trkpt lat="49.27149" lon="2.33928">
        <ele>81</ele>
        <time>2018-09-09T08:24:03Z</time>
      </trkpt>
      <trkpt lat="49.27153" lon="2.3394">
        <ele>81</ele>
        <time>2018-09-09T08:24:09Z</time>
      </trkpt>
      <trkpt lat="49.27158" lon="2.33954">
        <ele>81</ele>
        <time>2018-09-09T08:24:16Z</time>
      </trkpt>
      <trkpt lat="49.27161" lon="2.33968">
        <ele>81</ele>
        <time>2018-09-09T08:24:24Z</time>
      </trkpt>
      <trkpt lat="49.27166" lon="2.33982">
        <ele>80</ele>
        <time>2018-09-09T08:24:32Z</time>
      </trkpt>
      <trkpt lat="49.27171" lon="2.33994">
        <ele>80</ele>
        <time>2018-09-09T08:24:39Z</time>
      </trkpt>
      <trkpt lat="49.27176" lon="2.34006">
        <ele>80</ele>
        <time>2018-09-09T08:24:46Z</time>
      </trkpt>
      <trkpt lat="49.27179" lon="2.3402">
        <ele>80</ele>
        <time>2018-09-09T08:24:53Z</time>
      </trkpt>
      <trkpt lat="49.27183" lon="2.34032">
        <ele>80</ele>
        <time>2018-09-09T08:25:00Z</time>
      </trkpt>
      <trkpt lat="49.27186" lon="2.34045">
        <ele>79</ele>
        <time>2018-09-09T08:25:08Z</time>
      </trkpt>
      <trkpt lat="49.27191" lon="2.34057">
        <ele>79</ele>
        <time>2018-09-09T08:25:15Z</time>
      </trkpt>
      <trkpt lat="49.27195" lon="2.34069">
        <ele>79</ele>
        <time>2018-09-09T08:25:21Z</time>
      </trkpt>
      <trkpt lat="49.272" lon="2.34083">
        <ele>79</ele>
        <time>2018-09-09T08:25:27Z</time>
      </trkpt>
      <trkpt lat="49.27205" lon="2.34096">
        <ele>79</ele>
        <time>2018-09-09T08:25:33Z</time>
      </trkpt>
      <trkpt lat="49.27207" lon="2.3411">
        <ele>80</ele>
        <time>2018-09-09T08:25:41Z</time>
      </trkpt>
      <trkpt lat="49.27209" lon="2.34124">
        <ele>80</ele>
        <time>2018-09-09T08:25:48Z</time>
      </trkpt>
      <trkpt lat="49.27213" lon="2.34137">
        <ele>80</ele>
        <time>2018-09-09T08:25:55Z</time>
      </trkpt>
      <trkpt lat="49.27217" lon="2.34151">
        <ele>80</ele>
        <time>2018-09-09T08:26:02Z</time>
      </trkpt>
      <trkpt lat="49.27221" lon="2.34163">
        <ele>80</ele>
        <time>2018-09-09T08:26:09Z</time>
      </trkpt>
      <trkpt lat="49.27225" lon="2.34177">
        <ele>79</ele>
        <time>2018-09-09T08:26:16Z</time>
      </trkpt>
      <trkpt lat="49.27229" lon="2.3419">
        <ele>79</ele>
        <time>2018-09-09T08:26:23Z</time>
      </trkpt>
      <trkpt lat="49.27232" lon="2.34204">
        <ele>78</ele>
        <time>2018-09-09T08:26:30Z</time>
      </trkpt>
      <trkpt lat="49.27236" lon="2.34218">
        <ele>78</ele>
        <time>2018-09-09T08:26:37Z</time>
      </trkpt>
      <trkpt lat="49.27241" lon="2.34231">
        <ele>77</ele>
        <time>2018-09-09T08:26:44Z</time>
      </trkpt>
      <trkpt lat="49.27244" lon="2.34244">
        <ele>77</ele>
        <time>2018-09-09T08:26:52Z</time>
      </trkpt>
      <trkpt lat="49.2725" lon="2.34255">
        <ele>77</ele>
        <time>2018-09-09T08:26:58Z</time>
      </trkpt>
      <trkpt lat="49.27254" lon="2.34268">
        <ele>77</ele>
        <time>2018-09-09T08:27:05Z</time>
      </trkpt>
      <trkpt lat="49.27257" lon="2.34282">
        <ele>78</ele>
        <time>2018-09-09T08:27:13Z</time>
      </trkpt>
      <trkpt lat="49.2726" lon="2.34296">
        <ele>77</ele>
        <time>2018-09-09T08:27:20Z</time>
      </trkpt>
      <trkpt lat="49.27264" lon="2.34309">
        <ele>77</ele>
        <time>2018-09-09T08:27:26Z</time>
      </trkpt>
      <trkpt lat="49.27269" lon="2.34323">
        <ele>77</ele>
        <time>2018-09-09T08:27:33Z</time>
      </trkpt>
      <trkpt lat="49.27273" lon="2.34337">
        <ele>76</ele>
        <time>2018-09-09T08:27:40Z</time>
      </trkpt>
      <trkpt lat="49.27277" lon="2.3435">
        <ele>76</ele>
        <time>2018-09-09T08:27:47Z</time>
      </trkpt>
      <trkpt lat="49.27282" lon="2.34364">
        <ele>76</ele>
        <time>2018-09-09T08:27:54Z</time>
      </trkpt>
      <trkpt lat="49.27285" lon="2.34378">
        <ele>76</ele>
        <time>2018-09-09T08:28:01Z</time>
      </trkpt>
      <trkpt lat="49.2729" lon="2.34392">
        <ele>76</ele>
        <time>2018-09-09T08:28:08Z</time>
      </trkpt>
      <trkpt lat="49.27294" lon="2.34405">
        <ele>75</ele>
        <time>2018-09-09T08:28:15Z</time>
      </trkpt>
      <trkpt lat="49.27299" lon="2.34418">
        <ele>75</ele>
        <time>2018-09-09T08:28:22Z</time>
      </trkpt>
      <trkpt lat="49.27302" lon="2.34433">
        <ele>75</ele>
        <time>2018-09-09T08:28:29Z</time>
      </trkpt>
      <trkpt lat="49.27306" lon="2.34447">
        <ele>75</ele>
        <time>2018-09-09T08:28:36Z</time>
      </trkpt>
      <trkpt lat="49.2731" lon="2.3446">
        <ele>75</ele>
        <time>2018-09-09T08:28:43Z</time>
      </trkpt>
      <trkpt lat="49.27315" lon="2.34473">
        <ele>75</ele>
        <time>2018-09-09T08:28:50Z</time>
      </trkpt>
      <trkpt lat="49.27319" lon="2.34485">
        <ele>75</ele>
        <time>2018-09-09T08:28:56Z</time>
      </trkpt>
      <trkpt lat="49.27324" lon="2.34499">
        <ele>75</ele>
        <time>2018-09-09T08:29:04Z</time>
      </trkpt>
      <trkpt lat="49.27326" lon="2.34513">
        <ele>75</ele>
        <time>2018-09-09T08:29:11Z</time>
      </trkpt>
      <trkpt lat="49.2733" lon="2.34526">
        <ele>75</ele>
        <time>2018-09-09T08:29:18Z</time>
      </trkpt>
      <trkpt lat="49.27333" lon="2.34539">
        <ele>76</ele>
        <time>2018-09-09T08:29:28Z</time>
      </trkpt>
      <trkpt lat="49.27334" lon="2.34553">
        <ele>76</ele>
        <time>2018-09-09T08:29:35Z</time>
      </trkpt>
      <trkpt lat="49.27336" lon="2.34567">
        <ele>76</ele>
        <time>2018-09-09T08:29:41Z</time>
      </trkpt>
      <trkpt lat="49.27339" lon="2.34581">
        <ele>75</ele>
        <time>2018-09-09T08:29:48Z</time>
      </trkpt>
      <trkpt lat="49.27339" lon="2.34596">
        <ele>75</ele>
        <time>2018-09-09T08:29:57Z</time>
      </trkpt>
      <trkpt lat="49.27339" lon="2.34611">
        <ele>74</ele>
        <time>2018-09-09T08:30:04Z</time>
      </trkpt>
      <trkpt lat="49.27339" lon="2.34626">
        <ele>74</ele>
        <time>2018-09-09T08:30:11Z</time>
      </trkpt>
      <trkpt lat="49.2734" lon="2.34641">
        <ele>73</ele>
        <time>2018-09-09T08:30:18Z</time>
      </trkpt>
      <trkpt lat="49.27339" lon="2.34656">
        <ele>72</ele>
        <time>2018-09-09T08:30:25Z</time>
      </trkpt>
      <trkpt lat="49.27339" lon="2.3467">
        <ele>71</ele>
        <time>2018-09-09T08:30:31Z</time>
      </trkpt>
      <trkpt lat="49.27342" lon="2.34683">
        <ele>71</ele>
        <time>2018-09-09T08:30:36Z</time>
      </trkpt>
      <trkpt lat="49.27346" lon="2.34697">
        <ele>70</ele>
        <time>2018-09-09T08:30:47Z</time>
      </trkpt>
      <trkpt lat="49.27349" lon="2.34711">
        <ele>70</ele>
        <time>2018-09-09T08:30:53Z</time>
      </trkpt>
      <trkpt lat="49.27347" lon="2.34727">
        <ele>69</ele>
        <time>2018-09-09T08:30:59Z</time>
      </trkpt>
      <trkpt lat="49.27346" lon="2.34741">
        <ele>69</ele>
        <time>2018-09-09T08:31:06Z</time>
      </trkpt>
      <trkpt lat="49.27344" lon="2.34755">
        <ele>69</ele>
        <time>2018-09-09T08:31:13Z</time>
      </trkpt>
      <trkpt lat="49.27343" lon="2.3477">
        <ele>69</ele>
        <time>2018-09-09T08:31:19Z</time>
      </trkpt>
      <trkpt lat="49.27344" lon="2.34786">
        <ele>69</ele>
        <time>2018-09-09T08:31:25Z</time>
      </trkpt>
      <trkpt lat="49.2734" lon="2.348">
        <ele>69</ele>
        <time>2018-09-09T08:31:36Z</time>
      </trkpt>
      <trkpt lat="49.27335" lon="2.34813">
        <ele>69</ele>
        <time>2018-09-09T08:31:42Z</time>
      </trkpt>
      <trkpt lat="49.27329" lon="2.34823">
        <ele>69</ele>
        <time>2018-09-09T08:31:50Z</time>
      </trkpt>
      <trkpt lat="49.27326" lon="2.34837">
        <ele>68</ele>
        <time>2018-09-09T08:31:57Z</time>
      </trkpt>
      <trkpt lat="49.27323" lon="2.34853">
        <ele>68</ele>
        <time>2018-09-09T08:32:06Z</time>
      </trkpt>
      <trkpt lat="49.2733" lon="2.34863">
        <ele>68</ele>
        <time>2018-09-09T08:32:12Z</time>
      </trkpt>
      <trkpt lat="49.27326" lon="2.34876">
        <ele>67</ele>
        <time>2018-09-09T08:32:21Z</time>
      </trkpt>
      <trkpt lat="49.27324" lon="2.34891">
        <ele>66</ele>
        <time>2018-09-09T08:32:27Z</time>
      </trkpt>
      <trkpt lat="49.27324" lon="2.34905">
        <ele>64</ele>
        <time>2018-09-09T08:32:36Z</time>
      </trkpt>
      <trkpt lat="49.27323" lon="2.34921">
        <ele>63</ele>
        <time>2018-09-09T08:32:41Z</time>
      </trkpt>
      <trkpt lat="49.27322" lon="2.34937">
        <ele>62</ele>
        <time>2018-09-09T08:32:45Z</time>
      </trkpt>
      <trkpt lat="49.27321" lon="2.34951">
        <ele>62</ele>
        <time>2018-09-09T08:32:50Z</time>
      </trkpt>
      <trkpt lat="49.27323" lon="2.34967">
        <ele>61</ele>
        <time>2018-09-09T08:33:02Z</time>
      </trkpt>
      <trkpt lat="49.27323" lon="2.34983">
        <ele>60</ele>
        <time>2018-09-09T08:33:07Z</time>
      </trkpt>
      <trkpt lat="49.27321" lon="2.34999">
        <ele>59</ele>
        <time>2018-09-09T08:33:11Z</time>
      </trkpt>
      <trkpt lat="49.27314" lon="2.35009">
        <ele>59</ele>
        <time>2018-09-09T08:33:19Z</time>
      </trkpt>
      <trkpt lat="49.27312" lon="2.35025">
        <ele>59</ele>
        <time>2018-09-09T08:33:26Z</time>
      </trkpt>
      <trkpt lat="49.27317" lon="2.35039">
        <ele>60</ele>
        <time>2018-09-09T08:33:34Z</time>
      </trkpt>
      <trkpt lat="49.27317" lon="2.35052">
        <ele>61</ele>
        <time>2018-09-09T08:33:48Z</time>
      </trkpt>
      <trkpt lat="49.27321" lon="2.35067">
        <ele>60</ele>
        <time>2018-09-09T08:33:54Z</time>
      </trkpt>
      <trkpt lat="49.27327" lon="2.35078">
        <ele>60</ele>
        <time>2018-09-09T08:33:59Z</time>
      </trkpt>
      <trkpt lat="49.27326" lon="2.35092">
        <ele>58</ele>
        <time>2018-09-09T08:34:51Z</time>
      </trkpt>
      <trkpt lat="49.27325" lon="2.35108">
        <ele>52</ele>
        <time>2018-09-09T08:36:47Z</time>
      </trkpt>
      <trkpt lat="49.27323" lon="2.35124">
        <ele>50</ele>
        <time>2018-09-09T08:36:54Z</time>
      </trkpt>
      <trkpt lat="49.27325" lon="2.35138">
        <ele>50</ele>
        <time>2018-09-09T08:36:59Z</time>
      </trkpt>
      <trkpt lat="49.27327" lon="2.35154">
        <ele>49</ele>
        <time>2018-09-09T08:37:07Z</time>
      </trkpt>
      <trkpt lat="49.27332" lon="2.35166">
        <ele>49</ele>
        <time>2018-09-09T08:37:12Z</time>
      </trkpt>
      <trkpt lat="49.27333" lon="2.3518">
        <ele>50</ele>
        <time>2018-09-09T08:37:19Z</time>
      </trkpt>
      <trkpt lat="49.27339" lon="2.35191">
        <ele>50</ele>
        <time>2018-09-09T08:37:29Z</time>
      </trkpt>
      <trkpt lat="49.27344" lon="2.3518">
        <ele>54</ele>
        <time>2018-09-09T08:38:08Z</time>
      </trkpt>
      <trkpt lat="49.27352" lon="2.35188">
        <ele>56</ele>
        <time>2018-09-09T08:38:23Z</time>
      </trkpt>
      <trkpt lat="49.2736" lon="2.35196">
        <ele>57</ele>
        <time>2018-09-09T08:38:29Z</time>
      </trkpt>
      <trkpt lat="49.27365" lon="2.35209">
        <ele>59</ele>
        <time>2018-09-09T08:38:38Z</time>
      </trkpt>
      <trkpt lat="49.27369" lon="2.35222">
        <ele>60</ele>
        <time>2018-09-09T08:38:47Z</time>
      </trkpt>
      <trkpt lat="49.27376" lon="2.35233">
        <ele>57</ele>
        <time>2018-09-09T08:38:58Z</time>
      </trkpt>
      <trkpt lat="49.27382" lon="2.35243">
        <ele>57</ele>
        <time>2018-09-09T08:39:07Z</time>
      </trkpt>
      <trkpt lat="49.27391" lon="2.35241">
        <ele>57</ele>
        <time>2018-09-09T08:39:15Z</time>
      </trkpt>
      <trkpt lat="49.27399" lon="2.35233">
        <ele>56</ele>
        <time>2018-09-09T08:39:25Z</time>
      </trkpt>
      <trkpt lat="49.27406" lon="2.35223">
        <ele>56</ele>
        <time>2018-09-09T08:39:33Z</time>
      </trkpt>
      <trkpt lat="49.27413" lon="2.35211">
        <ele>56</ele>
        <time>2018-09-09T08:39:39Z</time>
      </trkpt>
      <trkpt lat="49.27421" lon="2.35202">
        <ele>58</ele>
        <time>2018-09-09T08:39:48Z</time>
      </trkpt>
      <trkpt lat="49.27431" lon="2.352">
        <ele>59</ele>
        <time>2018-09-09T08:39:58Z</time>
      </trkpt>
      <trkpt lat="49.27439" lon="2.35194">
        <ele>60</ele>
        <time>2018-09-09T08:40:05Z</time>
      </trkpt>
      <trkpt lat="49.27448" lon="2.35187">
        <ele>61</ele>
        <time>2018-09-09T08:40:12Z</time>
      </trkpt>
      <trkpt lat="49.27457" lon="2.3518">
        <ele>63</ele>
        <time>2018-09-09T08:40:23Z</time>
      </trkpt>
      <trkpt lat="49.27464" lon="2.35171">
        <ele>64</ele>
        <time>2018-09-09T08:40:33Z</time>
      </trkpt>
      <trkpt lat="49.27473" lon="2.35164">
        <ele>65</ele>
        <time>2018-09-09T08:40:40Z</time>
      </trkpt>
      <trkpt lat="49.27481" lon="2.35159">
        <ele>65</ele>
        <time>2018-09-09T08:40:46Z</time>
      </trkpt>
      <trkpt lat="49.2749" lon="2.35154">
        <ele>67</ele>
        <time>2018-09-09T08:40:54Z</time>
      </trkpt>
      <trkpt lat="49.27497" lon="2.35143">
        <ele>68</ele>
        <time>2018-09-09T08:41:02Z</time>
      </trkpt>
      <trkpt lat="49.27506" lon="2.35138">
        <ele>69</ele>
        <time>2018-09-09T08:41:11Z</time>
      </trkpt>
      <trkpt lat="49.27515" lon="2.35133">
        <ele>70</ele>
        <time>2018-09-09T08:41:21Z</time>
      </trkpt>
      <trkpt lat="49.27523" lon="2.35124">
        <ele>71</ele>
        <time>2018-09-09T08:41:28Z</time>
      </trkpt>
      <trkpt lat="49.27534" lon="2.35124">
        <ele>73</ele>
        <time>2018-09-09T08:41:36Z</time>
      </trkpt>
      <trkpt lat="49.27541" lon="2.35115">
        <ele>76</ele>
        <time>2018-09-09T08:41:51Z</time>
      </trkpt>
      <trkpt lat="49.27551" lon="2.35106">
        <ele>76</ele>
        <time>2018-09-09T08:41:56Z</time>
      </trkpt>
      <trkpt lat="49.27561" lon="2.35097">
        <ele>77</ele>
        <time>2018-09-09T08:42:01Z</time>
      </trkpt>
      <trkpt lat="49.2757" lon="2.35091">
        <ele>77</ele>
        <time>2018-09-09T08:42:07Z</time>
      </trkpt>
      <trkpt lat="49.2758" lon="2.35085">
        <ele>78</ele>
        <time>2018-09-09T08:42:15Z</time>
      </trkpt>
      <trkpt lat="49.27588" lon="2.35079">
        <ele>79</ele>
        <time>2018-09-09T08:42:24Z</time>
      </trkpt>
      <trkpt lat="49.27598" lon="2.35071">
        <ele>80</ele>
        <time>2018-09-09T08:42:32Z</time>
      </trkpt>
      <trkpt lat="49.27606" lon="2.35062">
        <ele>81</ele>
        <time>2018-09-09T08:42:40Z</time>
      </trkpt>
      <trkpt lat="49.27612" lon="2.35048">
        <ele>82</ele>
        <time>2018-09-09T08:42:49Z</time>
      </trkpt>
      <trkpt lat="49.27619" lon="2.35038">
        <ele>83</ele>
        <time>2018-09-09T08:42:57Z</time>
      </trkpt>
      <trkpt lat="49.27627" lon="2.35034">
        <ele>84</ele>
        <time>2018-09-09T08:43:02Z</time>
      </trkpt>
      <trkpt lat="49.27637" lon="2.35028">
        <ele>86</ele>
        <time>2018-09-09T08:43:08Z</time>
      </trkpt>
      <trkpt lat="49.27646" lon="2.35024">
        <ele>88</ele>
        <time>2018-09-09T08:43:16Z</time>
      </trkpt>
      <trkpt lat="49.27655" lon="2.35018">
        <ele>88</ele>
        <time>2018-09-09T08:43:24Z</time>
      </trkpt>
      <trkpt lat="49.27663" lon="2.35012">
        <ele>88</ele>
        <time>2018-09-09T08:43:31Z</time>
      </trkpt>
      <trkpt lat="49.27673" lon="2.35009">
        <ele>88</ele>
        <time>2018-09-09T08:43:36Z</time>
      </trkpt>
      <trkpt lat="49.27682" lon="2.35006">
        <ele>88</ele>
        <time>2018-09-09T08:43:45Z</time>
      </trkpt>
      <trkpt lat="49.27693" lon="2.35003">
        <ele>88</ele>
        <time>2018-09-09T08:43:51Z</time>
      </trkpt>
      <trkpt lat="49.27703" lon="2.35">
        <ele>88</ele>
        <time>2018-09-09T08:43:59Z</time>
      </trkpt>
      <trkpt lat="49.27713" lon="2.34999">
        <ele>88</ele>
        <time>2018-09-09T08:44:06Z</time>
      </trkpt>
      <trkpt lat="49.27722" lon="2.35">
        <ele>88</ele>
        <time>2018-09-09T08:44:13Z</time>
      </trkpt>
      <trkpt lat="49.27732" lon="2.34999">
        <ele>88</ele>
        <time>2018-09-09T08:44:20Z</time>
      </trkpt>
      <trkpt lat="49.27741" lon="2.34998">
        <ele>88</ele>
        <time>2018-09-09T08:44:26Z</time>
      </trkpt>
      <trkpt lat="49.27751" lon="2.34993">
        <ele>88</ele>
        <time>2018-09-09T08:44:33Z</time>
      </trkpt>
      <trkpt lat="49.2776" lon="2.34991">
        <ele>88</ele>
        <time>2018-09-09T08:44:39Z</time>
      </trkpt>
      <trkpt lat="49.2777" lon="2.34988">
        <ele>89</ele>
        <time>2018-09-09T08:44:47Z</time>
      </trkpt>
      <trkpt lat="49.2778" lon="2.34987">
        <ele>89</ele>
        <time>2018-09-09T08:44:56Z</time>
      </trkpt>
      <trkpt lat="49.27789" lon="2.34986">
        <ele>88</ele>
        <time>2018-09-09T08:45:06Z</time>
      </trkpt>
      <trkpt lat="49.27799" lon="2.34982">
        <ele>88</ele>
        <time>2018-09-09T08:45:12Z</time>
      </trkpt>
      <trkpt lat="49.27809" lon="2.34977">
        <ele>87</ele>
        <time>2018-09-09T08:45:22Z</time>
      </trkpt>
      <trkpt lat="49.27823" lon="2.34974">
        <ele>86</ele>
        <time>2018-09-09T08:45:30Z</time>
      </trkpt>
      <trkpt lat="49.27832" lon="2.34968">
        <ele>85</ele>
        <time>2018-09-09T08:45:40Z</time>
      </trkpt>
      <trkpt lat="49.27841" lon="2.34964">
        <ele>84</ele>
        <time>2018-09-09T08:45:49Z</time>
      </trkpt>
      <trkpt lat="49.27852" lon="2.34963">
        <ele>84</ele>
        <time>2018-09-09T08:45:50Z</time>
      </trkpt>
      <trkpt lat="49.27861" lon="2.34957">
        <ele>84</ele>
        <time>2018-09-09T08:45:55Z</time>
      </trkpt>
      <trkpt lat="49.2787" lon="2.34949">
        <ele>84</ele>
        <time>2018-09-09T08:46:07Z</time>
      </trkpt>
      <trkpt lat="49.2788" lon="2.34944">
        <ele>84</ele>
        <time>2018-09-09T08:46:12Z</time>
      </trkpt>
      <trkpt lat="49.27886" lon="2.34934">
        <ele>84</ele>
        <time>2018-09-09T08:46:17Z</time>
      </trkpt>
      <trkpt lat="49.27893" lon="2.34924">
        <ele>84</ele>
        <time>2018-09-09T08:46:22Z</time>
      </trkpt>
      <trkpt lat="49.27901" lon="2.34914">
        <ele>84</ele>
        <time>2018-09-09T08:46:32Z</time>
      </trkpt>
      <trkpt lat="49.27909" lon="2.34905">
        <ele>85</ele>
        <time>2018-09-09T08:46:38Z</time>
      </trkpt>
      <trkpt lat="49.27919" lon="2.34899">
        <ele>87</ele>
        <time>2018-09-09T08:46:44Z</time>
      </trkpt>
      <trkpt lat="49.27928" lon="2.34898">
        <ele>87</ele>
        <time>2018-09-09T08:46:48Z</time>
      </trkpt>
      <trkpt lat="49.27934" lon="2.3491">
        <ele>89</ele>
        <time>2018-09-09T08:46:53Z</time>
      </trkpt>
      <trkpt lat="49.27928" lon="2.34922">
        <ele>88</ele>
        <time>2018-09-09T08:47:03Z</time>
      </trkpt>
      <trkpt lat="49.27925" lon="2.34936">
        <ele>87</ele>
        <time>2018-09-09T08:47:12Z</time>
      </trkpt>
      <trkpt lat="49.27927" lon="2.3495">
        <ele>86</ele>
        <time>2018-09-09T08:47:20Z</time>
      </trkpt>
      <trkpt lat="49.27928" lon="2.34966">
        <ele>81</ele>
        <time>2018-09-09T08:47:29Z</time>
      </trkpt>
      <trkpt lat="49.27931" lon="2.34979">
        <ele>80</ele>
        <time>2018-09-09T08:47:35Z</time>
      </trkpt>
      <trkpt lat="49.27932" lon="2.34993">
        <ele>75</ele>
        <time>2018-09-09T08:47:40Z</time>
      </trkpt>
      <trkpt lat="49.27936" lon="2.35006">
        <ele>74</ele>
        <time>2018-09-09T08:47:51Z</time>
      </trkpt>
      <trkpt lat="49.27946" lon="2.3501">
        <ele>69</ele>
        <time>2018-09-09T08:48:05Z</time>
      </trkpt>
      <trkpt lat="49.27951" lon="2.35025">
        <ele>45</ele>
        <time>2018-09-09T08:48:36Z</time>
      </trkpt>
      <trkpt lat="49.27957" lon="2.35035">
        <ele>38</ele>
        <time>2018-09-09T08:48:48Z</time>
      </trkpt>
      <trkpt lat="49.27961" lon="2.3505">
        <ele>12</ele>
        <time>2018-09-09T08:48:54Z</time>
      </trkpt>
      <trkpt lat="49.27962" lon="2.35064">
        <ele>5</ele>
        <time>2018-09-09T08:49:01Z</time>
      </trkpt>
      <trkpt lat="49.27967" lon="2.35076">
        <ele>48</ele>
        <time>2018-09-09T08:49:11Z</time>
      </trkpt>
      <trkpt lat="49.27965" lon="2.35092">
        <ele>20</ele>
        <time>2018-09-09T08:49:18Z</time>
      </trkpt>
      <trkpt lat="49.27963" lon="2.35106">
        <ele>13</ele>
        <time>2018-09-09T08:49:24Z</time>
      </trkpt>
      <trkpt lat="49.27958" lon="2.3512">
        <ele>7</ele>
        <time>2018-09-09T08:49:28Z</time>
      </trkpt>
      <trkpt lat="49.27954" lon="2.35134">
        <ele>6</ele>
        <time>2018-09-09T08:49:31Z</time>
      </trkpt>
      <trkpt lat="49.27953" lon="2.35149">
        <ele>5</ele>
        <time>2018-09-09T08:49:34Z</time>
      </trkpt>
      <trkpt lat="49.27954" lon="2.35164">
        <ele>1</ele>
        <time>2018-09-09T08:49:38Z</time>
      </trkpt>
      <trkpt lat="49.27953" lon="2.35179">
        <ele>-1</ele>
        <time>2018-09-09T08:49:44Z</time>
      </trkpt>
      <trkpt lat="49.27954" lon="2.35193">
        <ele>-1</ele>
        <time>2018-09-09T08:49:53Z</time>
      </trkpt>
      <trkpt lat="49.27956" lon="2.35207">
        <ele>81.1</ele>
        <time>2018-09-09T08:50:02Z</time>
      </trkpt>
      <trkpt lat="49.27957" lon="2.35222">
        <ele>2</ele>
        <time>2018-09-09T08:50:08Z</time>
      </trkpt>
      <trkpt lat="49.27959" lon="2.35236">
        <ele>6</ele>
        <time>2018-09-09T08:50:17Z</time>
      </trkpt>
      <trkpt lat="49.27958" lon="2.35251">
        <ele>14</ele>
        <time>2018-09-09T08:50:25Z</time>
      </trkpt>
      <trkpt lat="49.27959" lon="2.35267">
        <ele>19</ele>
        <time>2018-09-09T08:50:30Z</time>
      </trkpt>
      <trkpt lat="49.27957" lon="2.35283">
        <ele>21</ele>
        <time>2018-09-09T08:50:36Z</time>
      </trkpt>
      <trkpt lat="49.27953" lon="2.35297">
        <ele>23</ele>
        <time>2018-09-09T08:50:39Z</time>
      </trkpt>
      <trkpt lat="49.27951" lon="2.35314">
        <ele>23</ele>
        <time>2018-09-09T08:50:43Z</time>
      </trkpt>
      <trkpt lat="49.27952" lon="2.35329">
        <ele>24</ele>
        <time>2018-09-09T08:50:48Z</time>
      </trkpt>
      <trkpt lat="49.27957" lon="2.35341">
        <ele>24</ele>
        <time>2018-09-09T08:50:53Z</time>
      </trkpt>
      <trkpt lat="49.27964" lon="2.3535">
        <ele>24</ele>
        <time>2018-09-09T08:51:00Z</time>
      </trkpt>
      <trkpt lat="49.27967" lon="2.35364">
        <ele>25</ele>
        <time>2018-09-09T08:51:10Z</time>
      </trkpt>
      <trkpt lat="49.27967" lon="2.35379">
        <ele>28</ele>
        <time>2018-09-09T08:51:15Z</time>
      </trkpt>
      <trkpt lat="49.27967" lon="2.35395">
        <ele>32</ele>
        <time>2018-09-09T08:51:21Z</time>
      </trkpt>
      <trkpt lat="49.27968" lon="2.35409">
        <ele>36</ele>
        <time>2018-09-09T08:51:27Z</time>
      </trkpt>
      <trkpt lat="49.27967" lon="2.35423">
        <ele>43</ele>
        <time>2018-09-09T08:51:41Z</time>
      </trkpt>
      <trkpt lat="49.27969" lon="2.35439">
        <ele>44</ele>
        <time>2018-09-09T08:51:48Z</time>
      </trkpt>
      <trkpt lat="49.27975" lon="2.35452">
        <ele>46</ele>
        <time>2018-09-09T08:51:54Z</time>
      </trkpt>
      <trkpt lat="49.27973" lon="2.35467">
        <ele>48</ele>
        <time>2018-09-09T08:52:06Z</time>
      </trkpt>
      <trkpt lat="49.27977" lon="2.3548">
        <ele>48</ele>
        <time>2018-09-09T08:52:18Z</time>
      </trkpt>
      <trkpt lat="49.2798" lon="2.35495">
        <ele>44</ele>
        <time>2018-09-09T08:52:39Z</time>
      </trkpt>
      <trkpt lat="49.27982" lon="2.3551">
        <ele>43</ele>
        <time>2018-09-09T08:52:45Z</time>
      </trkpt>
      <trkpt lat="49.27981" lon="2.35527">
        <ele>42</ele>
        <time>2018-09-09T08:52:50Z</time>
      </trkpt>
      <trkpt lat="49.27979" lon="2.3554">
        <ele>42</ele>
        <time>2018-09-09T08:52:54Z</time>
      </trkpt>
      <trkpt lat="49.27984" lon="2.35552">
        <ele>38</ele>
        <time>2018-09-09T08:53:06Z</time>
      </trkpt>
      <trkpt lat="49.2799" lon="2.35565">
        <ele>37</ele>
        <time>2018-09-09T08:53:13Z</time>
      </trkpt>
      <trkpt lat="49.27993" lon="2.35578">
        <ele>36</ele>
        <time>2018-09-09T08:53:18Z</time>
      </trkpt>
      <trkpt lat="49.27988" lon="2.3559">
        <ele>37</ele>
        <time>2018-09-09T08:53:44Z</time>
      </trkpt>
      <trkpt lat="49.27987" lon="2.35605">
        <ele>40</ele>
        <time>2018-09-09T08:53:57Z</time>
      </trkpt>
      <trkpt lat="49.27994" lon="2.35616">
        <ele>45</ele>
        <time>2018-09-09T08:54:09Z</time>
      </trkpt>
      <trkpt lat="49.28001" lon="2.35627">
        <ele>1</ele>
        <time>2018-09-09T08:54:16Z</time>
      </trkpt>
      <trkpt lat="49.28002" lon="2.35642">
        <ele>3</ele>
        <time>2018-09-09T08:54:24Z</time>
      </trkpt>
      <trkpt lat="49.27999" lon="2.35656">
        <ele>6</ele>
        <time>2018-09-09T08:54:39Z</time>
      </trkpt>
      <trkpt lat="49.28005" lon="2.35668">
        <ele>10</ele>
        <time>2018-09-09T08:54:46Z</time>
      </trkpt>
      <trkpt lat="49.28013" lon="2.35677">
        <ele>12</ele>
        <time>2018-09-09T08:54:51Z</time>
      </trkpt>
      <trkpt lat="49.28021" lon="2.35684">
        <ele>25</ele>
        <time>2018-09-09T08:55:02Z</time>
      </trkpt>
      <trkpt lat="49.28029" lon="2.35694">
        <ele>27</ele>
        <time>2018-09-09T08:55:08Z</time>
      </trkpt>
      <trkpt lat="49.28036" lon="2.35702">
        <ele>29</ele>
        <time>2018-09-09T08:55:13Z</time>
      </trkpt>
      <trkpt lat="49.28046" lon="2.35707">
        <ele>31</ele>
        <time>2018-09-09T08:55:18Z</time>
      </trkpt>
      <trkpt lat="49.28055" lon="2.35714">
        <ele>39</ele>
        <time>2018-09-09T08:55:27Z</time>
      </trkpt>
      <trkpt lat="49.28061" lon="2.35725">
        <ele>44</ele>
        <time>2018-09-09T08:55:37Z</time>
      </trkpt>
      <trkpt lat="49.28068" lon="2.35736">
        <ele>46</ele>
        <time>2018-09-09T08:55:45Z</time>
      </trkpt>
      <trkpt lat="49.28076" lon="2.35743">
        <ele>47</ele>
        <time>2018-09-09T08:55:54Z</time>
      </trkpt>
      <trkpt lat="49.28084" lon="2.35753">
        <ele>48</ele>
        <time>2018-09-09T08:56:00Z</time>
      </trkpt>
      <trkpt lat="49.28094" lon="2.3576">
        <ele>53</ele>
        <time>2018-09-09T08:56:06Z</time>
      </trkpt>
      <trkpt lat="49.28103" lon="2.35763">
        <ele>56</ele>
        <time>2018-09-09T08:56:16Z</time>
      </trkpt>
      <trkpt lat="49.28111" lon="2.35768">
        <ele>57</ele>
        <time>2018-09-09T08:56:23Z</time>
      </trkpt>
      <trkpt lat="49.2812" lon="2.35775">
        <ele>58</ele>
        <time>2018-09-09T08:56:31Z</time>
      </trkpt>
      <trkpt lat="49.2813" lon="2.35777">
        <ele>61</ele>
        <time>2018-09-09T08:56:37Z</time>
      </trkpt>
      <trkpt lat="49.28141" lon="2.35781">
        <ele>64</ele>
        <time>2018-09-09T08:56:42Z</time>
      </trkpt>
      <trkpt lat="49.2814" lon="2.35795">
        <ele>65</ele>
        <time>2018-09-09T08:58:46Z</time>
      </trkpt>
      <trkpt lat="49.28148" lon="2.35805">
        <ele>66</ele>
        <time>2018-09-09T08:58:53Z</time>
      </trkpt>
      <trkpt lat="49.28154" lon="2.35814">
        <ele>66</ele>
        <time>2018-09-09T08:59:07Z</time>
      </trkpt>
      <trkpt lat="49.28162" lon="2.35821">
        <ele>67</ele>
        <time>2018-09-09T08:59:15Z</time>
      </trkpt>
      <trkpt lat="49.28171" lon="2.35826">
        <ele>67</ele>
        <time>2018-09-09T08:59:24Z</time>
      </trkpt>
      <trkpt lat="49.28181" lon="2.35828">
        <ele>69</ele>
        <time>2018-09-09T08:59:30Z</time>
      </trkpt>
      <trkpt lat="49.28188" lon="2.35839">
        <ele>70</ele>
        <time>2018-09-09T08:59:40Z</time>
      </trkpt>
      <trkpt lat="49.28194" lon="2.35849">
        <ele>70</ele>
        <time>2018-09-09T08:59:46Z</time>
      </trkpt>
      <trkpt lat="49.28201" lon="2.3586">
        <ele>70</ele>
        <time>2018-09-09T08:59:53Z</time>
      </trkpt>
      <trkpt lat="49.28208" lon="2.35871">
        <ele>70</ele>
        <time>2018-09-09T09:00:00Z</time>
      </trkpt>
      <trkpt lat="49.28217" lon="2.35877">
        <ele>70</ele>
        <time>2018-09-09T09:00:05Z</time>
      </trkpt>
      <trkpt lat="49.28226" lon="2.35885">
        <ele>70</ele>
        <time>2018-09-09T09:00:13Z</time>
      </trkpt>
      <trkpt lat="49.28235" lon="2.35891">
        <ele>70</ele>
        <time>2018-09-09T09:00:22Z</time>
      </trkpt>
      <trkpt lat="49.28243" lon="2.35896">
        <ele>70</ele>
        <time>2018-09-09T09:00:29Z</time>
      </trkpt>
      <trkpt lat="49.28252" lon="2.35905">
        <ele>69</ele>
        <time>2018-09-09T09:00:38Z</time>
      </trkpt>
      <trkpt lat="49.28261" lon="2.3591">
        <ele>69</ele>
        <time>2018-09-09T09:00:44Z</time>
      </trkpt>
      <trkpt lat="49.28269" lon="2.35916">
        <ele>68</ele>
        <time>2018-09-09T09:00:50Z</time>
      </trkpt>
      <trkpt lat="49.28278" lon="2.35921">
        <ele>67</ele>
        <time>2018-09-09T09:01:01Z</time>
      </trkpt>
      <trkpt lat="49.28287" lon="2.35927">
        <ele>66</ele>
        <time>2018-09-09T09:01:09Z</time>
      </trkpt>
      <trkpt lat="49.28297" lon="2.35929">
        <ele>65</ele>
        <time>2018-09-09T09:01:15Z</time>
      </trkpt>
      <trkpt lat="49.28306" lon="2.35935">
        <ele>64</ele>
        <time>2018-09-09T09:01:24Z</time>
      </trkpt>
      <trkpt lat="49.28314" lon="2.35941">
        <ele>64</ele>
        <time>2018-09-09T09:01:29Z</time>
      </trkpt>
      <trkpt lat="49.28323" lon="2.35942">
        <ele>63</ele>
        <time>2018-09-09T09:01:35Z</time>
      </trkpt>
      <trkpt lat="49.28319" lon="2.35954">
        <ele>63</ele>
        <time>2018-09-09T09:01:50Z</time>
      </trkpt>
      <trkpt lat="49.28327" lon="2.3596">
        <ele>62</ele>
        <time>2018-09-09T09:02:01Z</time>
      </trkpt>
      <trkpt lat="49.28337" lon="2.35959">
        <ele>62</ele>
        <time>2018-09-09T09:02:07Z</time>
      </trkpt>
      <trkpt lat="49.28347" lon="2.35956">
        <ele>61</ele>
        <time>2018-09-09T09:02:13Z</time>
      </trkpt>
      <trkpt lat="49.28357" lon="2.35956">
        <ele>58</ele>
        <time>2018-09-09T09:02:20Z</time>
      </trkpt>
      <trkpt lat="49.28366" lon="2.35964">
        <ele>56</ele>
        <time>2018-09-09T09:02:30Z</time>
      </trkpt>
      <trkpt lat="49.28376" lon="2.35966">
        <ele>55</ele>
        <time>2018-09-09T09:02:36Z</time>
      </trkpt>
      <trkpt lat="49.28386" lon="2.35967">
        <ele>54</ele>
        <time>2018-09-09T09:02:41Z</time>
      </trkpt>
      <trkpt lat="49.28396" lon="2.35968">
        <ele>53</ele>
        <time>2018-09-09T09:02:50Z</time>
      </trkpt>
      <trkpt lat="49.28405" lon="2.35964">
        <ele>52</ele>
        <time>2018-09-09T09:02:56Z</time>
      </trkpt>
      <trkpt lat="49.28413" lon="2.35958">
        <ele>49</ele>
        <time>2018-09-09T09:03:04Z</time>
      </trkpt>
      <trkpt lat="49.28423" lon="2.35957">
        <ele>47</ele>
        <time>2018-09-09T09:03:14Z</time>
      </trkpt>
      <trkpt lat="49.28432" lon="2.3596">
        <ele>46</ele>
        <time>2018-09-09T09:03:21Z</time>
      </trkpt>
      <trkpt lat="49.28442" lon="2.35957">
        <ele>43</ele>
        <time>2018-09-09T09:03:30Z</time>
      </trkpt>
      <trkpt lat="49.28452" lon="2.35954">
        <ele>42</ele>
        <time>2018-09-09T09:03:34Z</time>
      </trkpt>
      <trkpt lat="49.28462" lon="2.35951">
        <ele>41</ele>
        <time>2018-09-09T09:03:40Z</time>
      </trkpt>
      <trkpt lat="49.28469" lon="2.35943">
        <ele>37</ele>
        <time>2018-09-09T09:03:51Z</time>
      </trkpt>
      <trkpt lat="49.28478" lon="2.3594">
        <ele>34</ele>
        <time>2018-09-09T09:03:58Z</time>
      </trkpt>
      <trkpt lat="49.28487" lon="2.35945">
        <ele>30</ele>
        <time>2018-09-09T09:04:08Z</time>
      </trkpt>
      <trkpt lat="49.28498" lon="2.35944">
        <ele>29</ele>
        <time>2018-09-09T09:04:13Z</time>
      </trkpt>
      <trkpt lat="49.28508" lon="2.35947">
        <ele>27</ele>
        <time>2018-09-09T09:04:19Z</time>
      </trkpt>
      <trkpt lat="49.28518" lon="2.35947">
        <ele>26</ele>
        <time>2018-09-09T09:04:25Z</time>
      </trkpt>
      <trkpt lat="49.28528" lon="2.35943">
        <ele>25</ele>
        <time>2018-09-09T09:04:30Z</time>
      </trkpt>
      <trkpt lat="49.28539" lon="2.35939">
        <ele>26</ele>
        <time>2018-09-09T09:04:34Z</time>
      </trkpt>
      <trkpt lat="49.28549" lon="2.35933">
        <ele>26</ele>
        <time>2018-09-09T09:04:40Z</time>
      </trkpt>
      <trkpt lat="49.28557" lon="2.35925">
        <ele>27</ele>
        <time>2018-09-09T09:04:45Z</time>
      </trkpt>
      <trkpt lat="49.28567" lon="2.35919">
        <ele>29</ele>
        <time>2018-09-09T09:04:50Z</time>
      </trkpt>
      <trkpt lat="49.28576" lon="2.35918">
        <ele>31</ele>
        <time>2018-09-09T09:04:53Z</time>
      </trkpt>
      <trkpt lat="49.28586" lon="2.35914">
        <ele>32</ele>
        <time>2018-09-09T09:05:01Z</time>
      </trkpt>
      <trkpt lat="49.28594" lon="2.35906">
        <ele>33</ele>
        <time>2018-09-09T09:05:12Z</time>
      </trkpt>
      <trkpt lat="49.28593" lon="2.35891">
        <ele>34</ele>
        <time>2018-09-09T09:05:18Z</time>
      </trkpt>
      <trkpt lat="49.28596" lon="2.35876">
        <ele>36</ele>
        <time>2018-09-09T09:05:26Z</time>
      </trkpt>
      <trkpt lat="49.28604" lon="2.35867">
        <ele>37</ele>
        <time>2018-09-09T09:05:33Z</time>
      </trkpt>
      <trkpt lat="49.28613" lon="2.35857">
        <ele>38</ele>
        <time>2018-09-09T09:05:39Z</time>
      </trkpt>
      <trkpt lat="49.2862" lon="2.3585">
        <ele>39</ele>
        <time>2018-09-09T09:05:45Z</time>
      </trkpt>
      <trkpt lat="49.28628" lon="2.3584">
        <ele>40</ele>
        <time>2018-09-09T09:05:54Z</time>
      </trkpt>
      <trkpt lat="49.28635" lon="2.35829">
        <ele>40</ele>
        <time>2018-09-09T09:06:03Z</time>
      </trkpt>
      <trkpt lat="49.28641" lon="2.35819">
        <ele>40</ele>
        <time>2018-09-09T09:06:10Z</time>
      </trkpt>
      <trkpt lat="49.28647" lon="2.35807">
        <ele>40</ele>
        <time>2018-09-09T09:06:18Z</time>
      </trkpt>
      <trkpt lat="49.28655" lon="2.35797">
        <ele>40</ele>
        <time>2018-09-09T09:06:25Z</time>
      </trkpt>
      <trkpt lat="49.2866" lon="2.35784">
        <ele>39</ele>
        <time>2018-09-09T09:06:32Z</time>
      </trkpt>
      <trkpt lat="49.28663" lon="2.3577">
        <ele>39</ele>
        <time>2018-09-09T09:06:40Z</time>
      </trkpt>
      <trkpt lat="49.28669" lon="2.35759">
        <ele>39</ele>
        <time>2018-09-09T09:06:46Z</time>
      </trkpt>
      <trkpt lat="49.28674" lon="2.35746">
        <ele>39</ele>
        <time>2018-09-09T09:06:53Z</time>
      </trkpt>
      <trkpt lat="49.2868" lon="2.35734">
        <ele>38</ele>
        <time>2018-09-09T09:07:01Z</time>
      </trkpt>
      <trkpt lat="49.28688" lon="2.35724">
        <ele>38</ele>
        <time>2018-09-09T09:07:08Z</time>
      </trkpt>
      <trkpt lat="49.28696" lon="2.35714">
        <ele>37</ele>
        <time>2018-09-09T09:07:16Z</time>
      </trkpt>
      <trkpt lat="49.28705" lon="2.35716">
        <ele>36</ele>
        <time>2018-09-09T09:07:27Z</time>
      </trkpt>
      <trkpt lat="49.28713" lon="2.35723">
        <ele>36</ele>
        <time>2018-09-09T09:07:31Z</time>
      </trkpt>
      <trkpt lat="49.28722" lon="2.35733">
        <ele>37</ele>
        <time>2018-09-09T09:07:36Z</time>
      </trkpt>
      <trkpt lat="49.28731" lon="2.35742">
        <ele>37</ele>
        <time>2018-09-09T09:07:42Z</time>
      </trkpt>
      <trkpt lat="49.28739" lon="2.35749">
        <ele>37</ele>
        <time>2018-09-09T09:07:49Z</time>
      </trkpt>
      <trkpt lat="49.28748" lon="2.35757">
        <ele>37</ele>
        <time>2018-09-09T09:07:56Z</time>
      </trkpt>
      <trkpt lat="49.28759" lon="2.35766">
        <ele>37</ele>
        <time>2018-09-09T09:08:02Z</time>
      </trkpt>
      <trkpt lat="49.28767" lon="2.35774">
        <ele>36</ele>
        <time>2018-09-09T09:08:09Z</time>
      </trkpt>
      <trkpt lat="49.28774" lon="2.35784">
        <ele>35</ele>
        <time>2018-09-09T09:08:19Z</time>
      </trkpt>
      <trkpt lat="49.28781" lon="2.35792">
        <ele>34</ele>
        <time>2018-09-09T09:08:26Z</time>
      </trkpt>
      <trkpt lat="49.28789" lon="2.35799">
        <ele>33</ele>
        <time>2018-09-09T09:08:33Z</time>
      </trkpt>
      <trkpt lat="49.28796" lon="2.3581">
        <ele>33</ele>
        <time>2018-09-09T09:08:41Z</time>
      </trkpt>
      <trkpt lat="49.28805" lon="2.35817">
        <ele>34</ele>
        <time>2018-09-09T09:08:47Z</time>
      </trkpt>
      <trkpt lat="49.28813" lon="2.35824">
        <ele>34</ele>
        <time>2018-09-09T09:08:53Z</time>
      </trkpt>
      <trkpt lat="49.28816" lon="2.35839">
        <ele>34</ele>
        <time>2018-09-09T09:09:03Z</time>
      </trkpt>
      <trkpt lat="49.28818" lon="2.35852">
        <ele>33</ele>
        <time>2018-09-09T09:09:12Z</time>
      </trkpt>
      <trkpt lat="49.28822" lon="2.35867">
        <ele>33</ele>
        <time>2018-09-09T09:09:18Z</time>
      </trkpt>
      <trkpt lat="49.28821" lon="2.35881">
        <ele>33</ele>
        <time>2018-09-09T09:09:27Z</time>
      </trkpt>
      <trkpt lat="49.28826" lon="2.35894">
        <ele>33</ele>
        <time>2018-09-09T09:10:44Z</time>
      </trkpt>
      <trkpt lat="49.2883" lon="2.35908">
        <ele>33</ele>
        <time>2018-09-09T09:10:50Z</time>
      </trkpt>
      <trkpt lat="49.28833" lon="2.35922">
        <ele>34</ele>
        <time>2018-09-09T09:10:56Z</time>
      </trkpt>
      <trkpt lat="49.28838" lon="2.35935">
        <ele>34</ele>
        <time>2018-09-09T09:11:04Z</time>
      </trkpt>
      <trkpt lat="49.28829" lon="2.35928">
        <ele>33</ele>
        <time>2018-09-09T09:11:42Z</time>
      </trkpt>
      <trkpt lat="49.28825" lon="2.35915">
        <ele>32</ele>
        <time>2018-09-09T09:11:49Z</time>
      </trkpt>
      <trkpt lat="49.28832" lon="2.35926">
        <ele>30</ele>
        <time>2018-09-09T09:12:41Z</time>
      </trkpt>
      <trkpt lat="49.28837" lon="2.35939">
        <ele>30</ele>
        <time>2018-09-09T09:12:47Z</time>
      </trkpt>
      <trkpt lat="49.28829" lon="2.35946">
        <ele>32</ele>
        <time>2018-09-09T09:17:53Z</time>
      </trkpt>
      <trkpt lat="49.28837" lon="2.35954">
        <ele>30</ele>
        <time>2018-09-09T09:22:25Z</time>
      </trkpt>
      <trkpt lat="49.28844" lon="2.35966">
        <ele>30</ele>
        <time>2018-09-09T09:22:34Z</time>
      </trkpt>
      <trkpt lat="49.28851" lon="2.35977">
        <ele>30</ele>
        <time>2018-09-09T09:22:43Z</time>
      </trkpt>
      <trkpt lat="49.28857" lon="2.35989">
        <ele>31</ele>
        <time>2018-09-09T09:22:50Z</time>
      </trkpt>
      <trkpt lat="49.28862" lon="2.36">
        <ele>32</ele>
        <time>2018-09-09T09:22:59Z</time>
      </trkpt>
      <trkpt lat="49.28868" lon="2.36013">
        <ele>33</ele>
        <time>2018-09-09T09:23:08Z</time>
      </trkpt>
      <trkpt lat="49.28871" lon="2.36027">
        <ele>33</ele>
        <time>2018-09-09T09:23:57Z</time>
      </trkpt>
      <trkpt lat="49.28878" lon="2.36036">
        <ele>33</ele>
        <time>2018-09-09T09:24:03Z</time>
      </trkpt>
      <trkpt lat="49.28886" lon="2.36046">
        <ele>33</ele>
        <time>2018-09-09T09:24:12Z</time>
      </trkpt>
      <trkpt lat="49.28892" lon="2.36057">
        <ele>33</ele>
        <time>2018-09-09T09:24:20Z</time>
      </trkpt>
      <trkpt lat="49.28898" lon="2.36069">
        <ele>33</ele>
        <time>2018-09-09T09:24:27Z</time>
      </trkpt>
      <trkpt lat="49.28905" lon="2.36078">
        <ele>34</ele>
        <time>2018-09-09T09:24:36Z</time>
      </trkpt>
      <trkpt lat="49.28912" lon="2.3609">
        <ele>35</ele>
        <time>2018-09-09T09:24:45Z</time>
      </trkpt>
      <trkpt lat="49.28919" lon="2.361">
        <ele>36</ele>
        <time>2018-09-09T09:24:51Z</time>
      </trkpt>
      <trkpt lat="49.28925" lon="2.36111">
        <ele>35</ele>
        <time>2018-09-09T09:25:00Z</time>
      </trkpt>
      <trkpt lat="49.28932" lon="2.36121">
        <ele>34</ele>
        <time>2018-09-09T09:25:09Z</time>
      </trkpt>
      <trkpt lat="49.28939" lon="2.36132">
        <ele>34</ele>
        <time>2018-09-09T09:25:17Z</time>
      </trkpt>
      <trkpt lat="49.28945" lon="2.36143">
        <ele>34</ele>
        <time>2018-09-09T09:25:25Z</time>
      </trkpt>
      <trkpt lat="49.28952" lon="2.36153">
        <ele>33</ele>
        <time>2018-09-09T09:25:32Z</time>
      </trkpt>
      <trkpt lat="49.2896" lon="2.36162">
        <ele>33</ele>
        <time>2018-09-09T09:25:39Z</time>
      </trkpt>
      <trkpt lat="49.28967" lon="2.36171">
        <ele>33</ele>
        <time>2018-09-09T09:25:52Z</time>
      </trkpt>
      <trkpt lat="49.28975" lon="2.36179">
        <ele>34</ele>
        <time>2018-09-09T09:26:05Z</time>
      </trkpt>
      <trkpt lat="49.28984" lon="2.36184">
        <ele>34</ele>
        <time>2018-09-09T09:26:13Z</time>
      </trkpt>
      <trkpt lat="49.28994" lon="2.36188">
        <ele>34</ele>
        <time>2018-09-09T09:26:18Z</time>
      </trkpt>
      <trkpt lat="49.29002" lon="2.36196">
        <ele>34</ele>
        <time>2018-09-09T09:26:24Z</time>
      </trkpt>
      <trkpt lat="49.29009" lon="2.36205">
        <ele>34</ele>
        <time>2018-09-09T09:26:31Z</time>
      </trkpt>
      <trkpt lat="49.29017" lon="2.36213">
        <ele>35</ele>
        <time>2018-09-09T09:26:38Z</time>
      </trkpt>
      <trkpt lat="49.29026" lon="2.36221">
        <ele>35</ele>
        <time>2018-09-09T09:26:43Z</time>
      </trkpt>
      <trkpt lat="49.29034" lon="2.3623">
        <ele>34</ele>
        <time>2018-09-09T09:26:48Z</time>
      </trkpt>
      <trkpt lat="49.29043" lon="2.36237">
        <ele>34</ele>
        <time>2018-09-09T09:26:54Z</time>
      </trkpt>
      <trkpt lat="49.2905" lon="2.36247">
        <ele>33</ele>
        <time>2018-09-09T09:27:02Z</time>
      </trkpt>
      <trkpt lat="49.29057" lon="2.36258">
        <ele>34</ele>
        <time>2018-09-09T09:27:10Z</time>
      </trkpt>
      <trkpt lat="49.29066" lon="2.36264">
        <ele>33</ele>
        <time>2018-09-09T09:27:18Z</time>
      </trkpt>
      <trkpt lat="49.29074" lon="2.36273">
        <ele>33</ele>
        <time>2018-09-09T09:27:26Z</time>
      </trkpt>
      <trkpt lat="49.29082" lon="2.36283">
        <ele>33</ele>
        <time>2018-09-09T09:27:33Z</time>
      </trkpt>
      <trkpt lat="49.2909" lon="2.36292">
        <ele>33</ele>
        <time>2018-09-09T09:27:40Z</time>
      </trkpt>
      <trkpt lat="49.29095" lon="2.36304">
        <ele>33</ele>
        <time>2018-09-09T09:27:46Z</time>
      </trkpt>
      <trkpt lat="49.29099" lon="2.36317">
        <ele>32</ele>
        <time>2018-09-09T09:27:53Z</time>
      </trkpt>
      <trkpt lat="49.29105" lon="2.36328">
        <ele>32</ele>
        <time>2018-09-09T09:28:00Z</time>
      </trkpt>
      <trkpt lat="49.29112" lon="2.36338">
        <ele>31</ele>
        <time>2018-09-09T09:28:06Z</time>
      </trkpt>
      <trkpt lat="49.29118" lon="2.3635">
        <ele>31</ele>
        <time>2018-09-09T09:28:13Z</time>
      </trkpt>
      <trkpt lat="49.29126" lon="2.36359">
        <ele>30</ele>
        <time>2018-09-09T09:28:20Z</time>
      </trkpt>
      <trkpt lat="49.29134" lon="2.36367">
        <ele>30</ele>
        <time>2018-09-09T09:28:26Z</time>
      </trkpt>
      <trkpt lat="49.2914" lon="2.36376">
        <ele>31</ele>
        <time>2018-09-09T09:28:33Z</time>
      </trkpt>
      <trkpt lat="49.29146" lon="2.36389">
        <ele>31</ele>
        <time>2018-09-09T09:28:41Z</time>
      </trkpt>
      <trkpt lat="49.29154" lon="2.36395">
        <ele>32</ele>
        <time>2018-09-09T09:28:49Z</time>
      </trkpt>
      <trkpt lat="49.2915" lon="2.36407">
        <ele>32</ele>
        <time>2018-09-09T09:29:00Z</time>
      </trkpt>
      <trkpt lat="49.29142" lon="2.36415">
        <ele>33</ele>
        <time>2018-09-09T09:29:08Z</time>
      </trkpt>
      <trkpt lat="49.29134" lon="2.36425">
        <ele>33</ele>
        <time>2018-09-09T09:29:15Z</time>
      </trkpt>
      <trkpt lat="49.29129" lon="2.36437">
        <ele>33</ele>
        <time>2018-09-09T09:29:21Z</time>
      </trkpt>
      <trkpt lat="49.29126" lon="2.36451">
        <ele>32</ele>
        <time>2018-09-09T09:29:28Z</time>
      </trkpt>
      <trkpt lat="49.2912" lon="2.36463">
        <ele>32</ele>
        <time>2018-09-09T09:29:35Z</time>
      </trkpt>
      <trkpt lat="49.29116" lon="2.36475">
        <ele>33</ele>
        <time>2018-09-09T09:29:41Z</time>
      </trkpt>
      <trkpt lat="49.29112" lon="2.36489">
        <ele>33</ele>
        <time>2018-09-09T09:29:47Z</time>
      </trkpt>
      <trkpt lat="49.29108" lon="2.36502">
        <ele>33</ele>
        <time>2018-09-09T09:29:55Z</time>
      </trkpt>
      <trkpt lat="49.291" lon="2.36512">
        <ele>33</ele>
        <time>2018-09-09T09:30:04Z</time>
      </trkpt>
      <trkpt lat="49.29094" lon="2.36523">
        <ele>33</ele>
        <time>2018-09-09T09:30:11Z</time>
      </trkpt>
      <trkpt lat="49.29085" lon="2.36525">
        <ele>33</ele>
        <time>2018-09-09T09:30:24Z</time>
      </trkpt>
      <trkpt lat="49.2909" lon="2.36541">
        <ele>31</ele>
        <time>2018-09-09T09:30:45Z</time>
      </trkpt>
      <trkpt lat="49.2909" lon="2.36555">
        <ele>28</ele>
        <time>2018-09-09T09:30:53Z</time>
      </trkpt>
      <trkpt lat="49.29093" lon="2.36569">
        <ele>28</ele>
        <time>2018-09-09T09:31:01Z</time>
      </trkpt>
      <trkpt lat="49.29095" lon="2.36583">
        <ele>28</ele>
        <time>2018-09-09T09:31:08Z</time>
      </trkpt>
      <trkpt lat="49.29092" lon="2.36597">
        <ele>31</ele>
        <time>2018-09-09T09:31:19Z</time>
      </trkpt>
      <trkpt lat="49.29086" lon="2.36607">
        <ele>32</ele>
        <time>2018-09-09T09:31:27Z</time>
      </trkpt>
      <trkpt lat="49.29082" lon="2.3662">
        <ele>33</ele>
        <time>2018-09-09T09:31:34Z</time>
      </trkpt>
      <trkpt lat="49.29077" lon="2.36631">
        <ele>34</ele>
        <time>2018-09-09T09:31:41Z</time>
      </trkpt>
      <trkpt lat="49.29069" lon="2.36639">
        <ele>35</ele>
        <time>2018-09-09T09:31:48Z</time>
      </trkpt>
      <trkpt lat="49.2906" lon="2.36646">
        <ele>35</ele>
        <time>2018-09-09T09:31:56Z</time>
      </trkpt>
      <trkpt lat="49.29052" lon="2.36652">
        <ele>35</ele>
        <time>2018-09-09T09:32:02Z</time>
      </trkpt>
      <trkpt lat="49.29043" lon="2.36658">
        <ele>36</ele>
        <time>2018-09-09T09:32:09Z</time>
      </trkpt>
      <trkpt lat="49.29034" lon="2.36662">
        <ele>36</ele>
        <time>2018-09-09T09:32:15Z</time>
      </trkpt>
      <trkpt lat="49.29024" lon="2.36663">
        <ele>36</ele>
        <time>2018-09-09T09:32:22Z</time>
      </trkpt>
      <trkpt lat="49.29015" lon="2.36668">
        <ele>36</ele>
        <time>2018-09-09T09:32:30Z</time>
      </trkpt>
      <trkpt lat="49.29007" lon="2.36674">
        <ele>35</ele>
        <time>2018-09-09T09:32:39Z</time>
      </trkpt>
      <trkpt lat="49.28998" lon="2.3668">
        <ele>35</ele>
        <time>2018-09-09T09:32:48Z</time>
      </trkpt>
      <trkpt lat="49.28989" lon="2.36688">
        <ele>35</ele>
        <time>2018-09-09T09:32:56Z</time>
      </trkpt>
      <trkpt lat="49.28981" lon="2.36697">
        <ele>35</ele>
        <time>2018-09-09T09:33:03Z</time>
      </trkpt>
      <trkpt lat="49.28973" lon="2.36706">
        <ele>35</ele>
        <time>2018-09-09T09:33:10Z</time>
      </trkpt>
      <trkpt lat="49.28965" lon="2.36714">
        <ele>35</ele>
        <time>2018-09-09T09:33:17Z</time>
      </trkpt>
      <trkpt lat="49.28957" lon="2.36722">
        <ele>35</ele>
        <time>2018-09-09T09:33:24Z</time>
      </trkpt>
      <trkpt lat="49.28949" lon="2.36728">
        <ele>35</ele>
        <time>2018-09-09T09:33:31Z</time>
      </trkpt>
      <trkpt lat="49.2894" lon="2.36735">
        <ele>35</ele>
        <time>2018-09-09T09:33:39Z</time>
      </trkpt>
      <trkpt lat="49.28931" lon="2.36743">
        <ele>34</ele>
        <time>2018-09-09T09:33:46Z</time>
      </trkpt>
      <trkpt lat="49.28923" lon="2.36749">
        <ele>34</ele>
        <time>2018-09-09T09:33:53Z</time>
      </trkpt>
      <trkpt lat="49.28915" lon="2.36757">
        <ele>34</ele>
        <time>2018-09-09T09:34:00Z</time>
      </trkpt>
      <trkpt lat="49.28907" lon="2.36767">
        <ele>34</ele>
        <time>2018-09-09T09:34:07Z</time>
      </trkpt>
      <trkpt lat="49.28899" lon="2.36774">
        <ele>34</ele>
        <time>2018-09-09T09:34:15Z</time>
      </trkpt>
      <trkpt lat="49.2889" lon="2.36781">
        <ele>34</ele>
        <time>2018-09-09T09:34:23Z</time>
      </trkpt>
      <trkpt lat="49.2888" lon="2.36787">
        <ele>34</ele>
        <time>2018-09-09T09:34:30Z</time>
      </trkpt>
      <trkpt lat="49.28872" lon="2.36794">
        <ele>34</ele>
        <time>2018-09-09T09:34:36Z</time>
      </trkpt>
      <trkpt lat="49.28863" lon="2.36802">
        <ele>34</ele>
        <time>2018-09-09T09:34:42Z</time>
      </trkpt>
      <trkpt lat="49.28856" lon="2.36809">
        <ele>34</ele>
        <time>2018-09-09T09:34:48Z</time>
      </trkpt>
      <trkpt lat="49.28847" lon="2.36817">
        <ele>34</ele>
        <time>2018-09-09T09:34:55Z</time>
      </trkpt>
      <trkpt lat="49.28838" lon="2.36824">
        <ele>34</ele>
        <time>2018-09-09T09:35:02Z</time>
      </trkpt>
      <trkpt lat="49.2883" lon="2.36832">
        <ele>35</ele>
        <time>2018-09-09T09:35:08Z</time>
      </trkpt>
      <trkpt lat="49.28821" lon="2.36839">
        <ele>35</ele>
        <time>2018-09-09T09:35:15Z</time>
      </trkpt>
      <trkpt lat="49.28813" lon="2.36845">
        <ele>35</ele>
        <time>2018-09-09T09:35:22Z</time>
      </trkpt>
      <trkpt lat="49.28804" lon="2.3685">
        <ele>35</ele>
        <time>2018-09-09T09:35:30Z</time>
      </trkpt>
      <trkpt lat="49.28795" lon="2.36857">
        <ele>35</ele>
        <time>2018-09-09T09:35:37Z</time>
      </trkpt>
      <trkpt lat="49.28787" lon="2.36863">
        <ele>35</ele>
        <time>2018-09-09T09:35:44Z</time>
      </trkpt>
      <trkpt lat="49.28779" lon="2.36871">
        <ele>35</ele>
        <time>2018-09-09T09:35:51Z</time>
      </trkpt>
      <trkpt lat="49.28771" lon="2.3688">
        <ele>35</ele>
        <time>2018-09-09T09:35:58Z</time>
      </trkpt>
      <trkpt lat="49.28762" lon="2.36888">
        <ele>35</ele>
        <time>2018-09-09T09:36:05Z</time>
      </trkpt>
      <trkpt lat="49.28754" lon="2.36897">
        <ele>35</ele>
        <time>2018-09-09T09:36:12Z</time>
      </trkpt>
      <trkpt lat="49.28746" lon="2.36906">
        <ele>36</ele>
        <time>2018-09-09T09:36:18Z</time>
      </trkpt>
      <trkpt lat="49.28739" lon="2.36915">
        <ele>36</ele>
        <time>2018-09-09T09:36:25Z</time>
      </trkpt>
      <trkpt lat="49.2873" lon="2.36923">
        <ele>36</ele>
        <time>2018-09-09T09:36:32Z</time>
      </trkpt>
      <trkpt lat="49.28722" lon="2.36932">
        <ele>36</ele>
        <time>2018-09-09T09:36:38Z</time>
      </trkpt>
      <trkpt lat="49.28715" lon="2.36941">
        <ele>36</ele>
        <time>2018-09-09T09:36:44Z</time>
      </trkpt>
      <trkpt lat="49.28708" lon="2.36949">
        <ele>36</ele>
        <time>2018-09-09T09:36:51Z</time>
      </trkpt>
      <trkpt lat="49.28701" lon="2.36958">
        <ele>37</ele>
        <time>2018-09-09T09:36:58Z</time>
      </trkpt>
      <trkpt lat="49.28693" lon="2.36966">
        <ele>37</ele>
        <time>2018-09-09T09:37:05Z</time>
      </trkpt>
      <trkpt lat="49.28685" lon="2.36974">
        <ele>37</ele>
        <time>2018-09-09T09:37:12Z</time>
      </trkpt>
      <trkpt lat="49.28676" lon="2.36982">
        <ele>37</ele>
        <time>2018-09-09T09:37:19Z</time>
      </trkpt>
      <trkpt lat="49.28669" lon="2.36991">
        <ele>37</ele>
        <time>2018-09-09T09:37:26Z</time>
      </trkpt>
      <trkpt lat="49.2866" lon="2.37">
        <ele>36</ele>
        <time>2018-09-09T09:37:33Z</time>
      </trkpt>
      <trkpt lat="49.28653" lon="2.37009">
        <ele>36</ele>
        <time>2018-09-09T09:37:39Z</time>
      </trkpt>
      <trkpt lat="49.28646" lon="2.37018">
        <ele>36</ele>
        <time>2018-09-09T09:37:46Z</time>
      </trkpt>
      <trkpt lat="49.28638" lon="2.37028">
        <ele>36</ele>
        <time>2018-09-09T09:37:53Z</time>
      </trkpt>
      <trkpt lat="49.2863" lon="2.37038">
        <ele>36</ele>
        <time>2018-09-09T09:38:03Z</time>
      </trkpt>
      <trkpt lat="49.28623" lon="2.37047">
        <ele>37</ele>
        <time>2018-09-09T09:38:10Z</time>
      </trkpt>
      <trkpt lat="49.28616" lon="2.37057">
        <ele>37</ele>
        <time>2018-09-09T09:38:16Z</time>
      </trkpt>
      <trkpt lat="49.28609" lon="2.37069">
        <ele>37</ele>
        <time>2018-09-09T09:38:22Z</time>
      </trkpt>
      <trkpt lat="49.28602" lon="2.37079">
        <ele>37</ele>
        <time>2018-09-09T09:38:27Z</time>
      </trkpt>
      <trkpt lat="49.28595" lon="2.37091">
        <ele>36</ele>
        <time>2018-09-09T09:38:33Z</time>
      </trkpt>
      <trkpt lat="49.28589" lon="2.37101">
        <ele>36</ele>
        <time>2018-09-09T09:38:39Z</time>
      </trkpt>
      <trkpt lat="49.28583" lon="2.37112">
        <ele>36</ele>
        <time>2018-09-09T09:38:46Z</time>
      </trkpt>
      <trkpt lat="49.28575" lon="2.37123">
        <ele>36</ele>
        <time>2018-09-09T09:38:54Z</time>
      </trkpt>
      <trkpt lat="49.28568" lon="2.37132">
        <ele>36</ele>
        <time>2018-09-09T09:39:01Z</time>
      </trkpt>
      <trkpt lat="49.28561" lon="2.37143">
        <ele>36</ele>
        <time>2018-09-09T09:39:09Z</time>
      </trkpt>
      <trkpt lat="49.28554" lon="2.37154">
        <ele>36</ele>
        <time>2018-09-09T09:39:16Z</time>
      </trkpt>
      <trkpt lat="49.28546" lon="2.37163">
        <ele>36</ele>
        <time>2018-09-09T09:39:23Z</time>
      </trkpt>
      <trkpt lat="49.28539" lon="2.37174">
        <ele>36</ele>
        <time>2018-09-09T09:39:30Z</time>
      </trkpt>
      <trkpt lat="49.28532" lon="2.37184">
        <ele>36</ele>
        <time>2018-09-09T09:39:38Z</time>
      </trkpt>
      <trkpt lat="49.28525" lon="2.37195">
        <ele>36</ele>
        <time>2018-09-09T09:39:46Z</time>
      </trkpt>
      <trkpt lat="49.28517" lon="2.37205">
        <ele>36</ele>
        <time>2018-09-09T09:39:53Z</time>
      </trkpt>
      <trkpt lat="49.28509" lon="2.37214">
        <ele>37</ele>
        <time>2018-09-09T09:40:00Z</time>
      </trkpt>
      <trkpt lat="49.28503" lon="2.37225">
        <ele>37</ele>
        <time>2018-09-09T09:40:07Z</time>
      </trkpt>
      <trkpt lat="49.28496" lon="2.37235">
        <ele>37</ele>
        <time>2018-09-09T09:40:15Z</time>
      </trkpt>
      <trkpt lat="49.28488" lon="2.37242">
        <ele>38</ele>
        <time>2018-09-09T09:40:23Z</time>
      </trkpt>
      <trkpt lat="49.28482" lon="2.37253">
        <ele>39</ele>
        <time>2018-09-09T09:40:32Z</time>
      </trkpt>
      <trkpt lat="49.28475" lon="2.37264">
        <ele>39</ele>
        <time>2018-09-09T09:40:40Z</time>
      </trkpt>
      <trkpt lat="49.28468" lon="2.37273">
        <ele>39</ele>
        <time>2018-09-09T09:40:47Z</time>
      </trkpt>
      <trkpt lat="49.2846" lon="2.37282">
        <ele>39</ele>
        <time>2018-09-09T09:40:54Z</time>
      </trkpt>
      <trkpt lat="49.28455" lon="2.37293">
        <ele>38</ele>
        <time>2018-09-09T09:41:00Z</time>
      </trkpt>
      <trkpt lat="49.28448" lon="2.37304">
        <ele>38</ele>
        <time>2018-09-09T09:41:06Z</time>
      </trkpt>
      <trkpt lat="49.28442" lon="2.37315">
        <ele>38</ele>
        <time>2018-09-09T09:41:13Z</time>
      </trkpt>
      <trkpt lat="49.28436" lon="2.37324">
        <ele>38</ele>
        <time>2018-09-09T09:41:22Z</time>
      </trkpt>
      <trkpt lat="49.2843" lon="2.37334">
        <ele>39</ele>
        <time>2018-09-09T09:41:27Z</time>
      </trkpt>
      <trkpt lat="49.28422" lon="2.37343">
        <ele>39</ele>
        <time>2018-09-09T09:41:39Z</time>
      </trkpt>
      <trkpt lat="49.28413" lon="2.37335">
        <ele>38</ele>
        <time>2018-09-09T09:42:05Z</time>
      </trkpt>
      <trkpt lat="49.28419" lon="2.37324">
        <ele>38</ele>
        <time>2018-09-09T09:42:29Z</time>
      </trkpt>
      <trkpt lat="49.28419" lon="2.3731">
        <ele>37</ele>
        <time>2018-09-09T09:42:39Z</time>
      </trkpt>
      <trkpt lat="49.2842" lon="2.37296">
        <ele>36</ele>
        <time>2018-09-09T09:42:46Z</time>
      </trkpt>
      <trkpt lat="49.28422" lon="2.37281">
        <ele>36</ele>
        <time>2018-09-09T09:42:55Z</time>
      </trkpt>
      <trkpt lat="49.28425" lon="2.37267">
        <ele>35</ele>
        <time>2018-09-09T09:43:02Z</time>
      </trkpt>
      <trkpt lat="49.28429" lon="2.37254">
        <ele>34</ele>
        <time>2018-09-09T09:43:09Z</time>
      </trkpt>
      <trkpt lat="49.28434" lon="2.37241">
        <ele>34</ele>
        <time>2018-09-09T09:43:17Z</time>
      </trkpt>
      <trkpt lat="49.28439" lon="2.3723">
        <ele>34</ele>
        <time>2018-09-09T09:43:24Z</time>
      </trkpt>
      <trkpt lat="49.28446" lon="2.37219">
        <ele>33</ele>
        <time>2018-09-09T09:43:40Z</time>
      </trkpt>
      <trkpt lat="49.28447" lon="2.37205">
        <ele>33</ele>
        <time>2018-09-09T09:43:48Z</time>
      </trkpt>
      <trkpt lat="49.2845" lon="2.37191">
        <ele>33</ele>
        <time>2018-09-09T09:43:55Z</time>
      </trkpt>
      <trkpt lat="49.28454" lon="2.37178">
        <ele>33</ele>
        <time>2018-09-09T09:44:02Z</time>
      </trkpt>
      <trkpt lat="49.28456" lon="2.37164">
        <ele>33</ele>
        <time>2018-09-09T09:44:10Z</time>
      </trkpt>
      <trkpt lat="49.28452" lon="2.37151">
        <ele>33</ele>
        <time>2018-09-09T09:44:17Z</time>
      </trkpt>
      <trkpt lat="49.28448" lon="2.37138">
        <ele>32</ele>
        <time>2018-09-09T09:44:26Z</time>
      </trkpt>
      <trkpt lat="49.28443" lon="2.37124">
        <ele>31</ele>
        <time>2018-09-09T09:44:34Z</time>
      </trkpt>
      <trkpt lat="49.28439" lon="2.3711">
        <ele>30</ele>
        <time>2018-09-09T09:44:43Z</time>
      </trkpt>
      <trkpt lat="49.28437" lon="2.37096">
        <ele>30</ele>
        <time>2018-09-09T09:44:50Z</time>
      </trkpt>
      <trkpt lat="49.28435" lon="2.37081">
        <ele>29</ele>
        <time>2018-09-09T09:44:57Z</time>
      </trkpt>
      <trkpt lat="49.28431" lon="2.37067">
        <ele>29</ele>
        <time>2018-09-09T09:45:04Z</time>
      </trkpt>
      <trkpt lat="49.28425" lon="2.37055">
        <ele>29</ele>
        <time>2018-09-09T09:45:11Z</time>
      </trkpt>
      <trkpt lat="49.28421" lon="2.37043">
        <ele>30</ele>
        <time>2018-09-09T09:45:17Z</time>
      </trkpt>
      <trkpt lat="49.28416" lon="2.3703">
        <ele>31</ele>
        <time>2018-09-09T09:45:25Z</time>
      </trkpt>
      <trkpt lat="49.2841" lon="2.3702">
        <ele>31</ele>
        <time>2018-09-09T09:45:32Z</time>
      </trkpt>
      <trkpt lat="49.28403" lon="2.3701">
        <ele>31</ele>
        <time>2018-09-09T09:45:38Z</time>
      </trkpt>
      <trkpt lat="49.28396" lon="2.37002">
        <ele>31</ele>
        <time>2018-09-09T09:45:44Z</time>
      </trkpt>
      <trkpt lat="49.28388" lon="2.36991">
        <ele>31</ele>
        <time>2018-09-09T09:45:52Z</time>
      </trkpt>
      <trkpt lat="49.28382" lon="2.3698">
        <ele>31</ele>
        <time>2018-09-09T09:46:00Z</time>
      </trkpt>
      <trkpt lat="49.28374" lon="2.36969">
        <ele>31</ele>
        <time>2018-09-09T09:46:09Z</time>
      </trkpt>
      <trkpt lat="49.28368" lon="2.36959">
        <ele>31</ele>
        <time>2018-09-09T09:46:17Z</time>
      </trkpt>
      <trkpt lat="49.2836" lon="2.36949">
        <ele>31</ele>
        <time>2018-09-09T09:46:25Z</time>
      </trkpt>
      <trkpt lat="49.28353" lon="2.36939">
        <ele>31</ele>
        <time>2018-09-09T09:46:32Z</time>
      </trkpt>
      <trkpt lat="49.28347" lon="2.36927">
        <ele>31</ele>
        <time>2018-09-09T09:46:39Z</time>
      </trkpt>
      <trkpt lat="49.2834" lon="2.36916">
        <ele>31</ele>
        <time>2018-09-09T09:46:46Z</time>
      </trkpt>
      <trkpt lat="49.28335" lon="2.36904">
        <ele>31</ele>
        <time>2018-09-09T09:46:56Z</time>
      </trkpt>
      <trkpt lat="49.28328" lon="2.36892">
        <ele>31</ele>
        <time>2018-09-09T09:47:04Z</time>
      </trkpt>
      <trkpt lat="49.2832" lon="2.36883">
        <ele>32</ele>
        <time>2018-09-09T09:47:11Z</time>
      </trkpt>
      <trkpt lat="49.28315" lon="2.36871">
        <ele>32</ele>
        <time>2018-09-09T09:47:18Z</time>
      </trkpt>
      <trkpt lat="49.2831" lon="2.36858">
        <ele>32</ele>
        <time>2018-09-09T09:47:27Z</time>
      </trkpt>
      <trkpt lat="49.28305" lon="2.36845">
        <ele>32</ele>
        <time>2018-09-09T09:47:34Z</time>
      </trkpt>
      <trkpt lat="49.28298" lon="2.36834">
        <ele>32</ele>
        <time>2018-09-09T09:47:43Z</time>
      </trkpt>
      <trkpt lat="49.28291" lon="2.36822">
        <ele>31</ele>
        <time>2018-09-09T09:47:51Z</time>
      </trkpt>
      <trkpt lat="49.28286" lon="2.36811">
        <ele>31</ele>
        <time>2018-09-09T09:47:58Z</time>
      </trkpt>
      <trkpt lat="49.28279" lon="2.36798">
        <ele>30</ele>
        <time>2018-09-09T09:48:05Z</time>
      </trkpt>
      <trkpt lat="49.28274" lon="2.36786">
        <ele>30</ele>
        <time>2018-09-09T09:48:14Z</time>
      </trkpt>
      <trkpt lat="49.28266" lon="2.3678">
        <ele>30</ele>
        <time>2018-09-09T09:49:03Z</time>
      </trkpt>
      <trkpt lat="49.28265" lon="2.36794">
        <ele>29</ele>
        <time>2018-09-09T09:50:54Z</time>
      </trkpt>
      <trkpt lat="49.28259" lon="2.36803">
        <ele>29</ele>
        <time>2018-09-09T09:51:05Z</time>
      </trkpt>
      <trkpt lat="49.28252" lon="2.36814">
        <ele>29</ele>
        <time>2018-09-09T09:51:17Z</time>
      </trkpt>
      <trkpt lat="49.28244" lon="2.36822">
        <ele>29</ele>
        <time>2018-09-09T09:51:22Z</time>
      </trkpt>
      <trkpt lat="49.28236" lon="2.36828">
        <ele>29</ele>
        <time>2018-09-09T09:51:26Z</time>
      </trkpt>
      <trkpt lat="49.28226" lon="2.36833">
        <ele>29</ele>
        <time>2018-09-09T09:51:32Z</time>
      </trkpt>
      <trkpt lat="49.28218" lon="2.36839">
        <ele>28</ele>
        <time>2018-09-09T09:51:38Z</time>
      </trkpt>
      <trkpt lat="49.28209" lon="2.36844">
        <ele>28</ele>
        <time>2018-09-09T09:51:45Z</time>
      </trkpt>
      <trkpt lat="49.28201" lon="2.3685">
        <ele>27</ele>
        <time>2018-09-09T09:51:55Z</time>
      </trkpt>
      <trkpt lat="49.28194" lon="2.36862">
        <ele>28</ele>
        <time>2018-09-09T09:52:04Z</time>
      </trkpt>
      <trkpt lat="49.28187" lon="2.36873">
        <ele>28</ele>
        <time>2018-09-09T09:52:11Z</time>
      </trkpt>
      <trkpt lat="49.28179" lon="2.36882">
        <ele>29</ele>
        <time>2018-09-09T09:52:17Z</time>
      </trkpt>
      <trkpt lat="49.2817" lon="2.36888">
        <ele>29</ele>
        <time>2018-09-09T09:52:22Z</time>
      </trkpt>
      <trkpt lat="49.28162" lon="2.36895">
        <ele>29</ele>
        <time>2018-09-09T09:52:28Z</time>
      </trkpt>
      <trkpt lat="49.28152" lon="2.36899">
        <ele>28</ele>
        <time>2018-09-09T09:52:36Z</time>
      </trkpt>
      <trkpt lat="49.28143" lon="2.36903">
        <ele>28</ele>
        <time>2018-09-09T09:52:43Z</time>
      </trkpt>
      <trkpt lat="49.28132" lon="2.36904">
        <ele>28</ele>
        <time>2018-09-09T09:52:49Z</time>
      </trkpt>
      <trkpt lat="49.28122" lon="2.36904">
        <ele>28</ele>
        <time>2018-09-09T09:52:56Z</time>
      </trkpt>
      <trkpt lat="49.28113" lon="2.36903">
        <ele>28</ele>
        <time>2018-09-09T09:53:02Z</time>
      </trkpt>
      <trkpt lat="49.28103" lon="2.36899">
        <ele>29</ele>
        <time>2018-09-09T09:53:09Z</time>
      </trkpt>
      <trkpt lat="49.28094" lon="2.36896">
        <ele>29</ele>
        <time>2018-09-09T09:53:16Z</time>
      </trkpt>
      <trkpt lat="49.28085" lon="2.36891">
        <ele>29</ele>
        <time>2018-09-09T09:53:22Z</time>
      </trkpt>
      <trkpt lat="49.28076" lon="2.36884">
        <ele>30</ele>
        <time>2018-09-09T09:53:30Z</time>
      </trkpt>
      <trkpt lat="49.28067" lon="2.36879">
        <ele>31</ele>
        <time>2018-09-09T09:53:37Z</time>
      </trkpt>
      <trkpt lat="49.28059" lon="2.36872">
        <ele>31</ele>
        <time>2018-09-09T09:53:44Z</time>
      </trkpt>
      <trkpt lat="49.28052" lon="2.36862">
        <ele>31</ele>
        <time>2018-09-09T09:53:51Z</time>
      </trkpt>
      <trkpt lat="49.28046" lon="2.3685">
        <ele>31</ele>
        <time>2018-09-09T09:53:59Z</time>
      </trkpt>
      <trkpt lat="49.2804" lon="2.36838">
        <ele>30</ele>
        <time>2018-09-09T09:54:08Z</time>
      </trkpt>
      <trkpt lat="49.28033" lon="2.36827">
        <ele>30</ele>
        <time>2018-09-09T09:54:17Z</time>
      </trkpt>
      <trkpt lat="49.28024" lon="2.3682">
        <ele>29</ele>
        <time>2018-09-09T09:54:27Z</time>
      </trkpt>
      <trkpt lat="49.2802" lon="2.36808">
        <ele>29</ele>
        <time>2018-09-09T09:55:18Z</time>
      </trkpt>
      <trkpt lat="49.28012" lon="2.36801">
        <ele>30</ele>
        <time>2018-09-09T09:55:46Z</time>
      </trkpt>
      <trkpt lat="49.28003" lon="2.36794">
        <ele>30</ele>
        <time>2018-09-09T09:55:54Z</time>
      </trkpt>
      <trkpt lat="49.27996" lon="2.36786">
        <ele>30</ele>
        <time>2018-09-09T09:56:01Z</time>
      </trkpt>
      <trkpt lat="49.2799" lon="2.36774">
        <ele>30</ele>
        <time>2018-09-09T09:56:08Z</time>
      </trkpt>
      <trkpt lat="49.27987" lon="2.36761">
        <ele>29</ele>
        <time>2018-09-09T09:56:16Z</time>
      </trkpt>
      <trkpt lat="49.27987" lon="2.36747">
        <ele>29</ele>
        <time>2018-09-09T09:56:23Z</time>
      </trkpt>
      <trkpt lat="49.2799" lon="2.36732">
        <ele>29</ele>
        <time>2018-09-09T09:56:32Z</time>
      </trkpt>
      <trkpt lat="49.27993" lon="2.36716">
        <ele>29</ele>
        <time>2018-09-09T09:56:39Z</time>
      </trkpt>
      <trkpt lat="49.27995" lon="2.367">
        <ele>29</ele>
        <time>2018-09-09T09:56:45Z</time>
      </trkpt>
      <trkpt lat="49.27997" lon="2.36685">
        <ele>29</ele>
        <time>2018-09-09T09:56:51Z</time>
      </trkpt>
      <trkpt lat="49.27999" lon="2.36671">
        <ele>29</ele>
        <time>2018-09-09T09:56:58Z</time>
      </trkpt>
      <trkpt lat="49.28" lon="2.36656">
        <ele>30</ele>
        <time>2018-09-09T09:57:04Z</time>
      </trkpt>
      <trkpt lat="49.28" lon="2.36641">
        <ele>30</ele>
        <time>2018-09-09T09:57:12Z</time>
      </trkpt>
      <trkpt lat="49.27999" lon="2.36626">
        <ele>30</ele>
        <time>2018-09-09T09:57:19Z</time>
      </trkpt>
      <trkpt lat="49.27996" lon="2.36611">
        <ele>30</ele>
        <time>2018-09-09T09:57:26Z</time>
      </trkpt>
      <trkpt lat="49.27995" lon="2.36595">
        <ele>30</ele>
        <time>2018-09-09T09:57:33Z</time>
      </trkpt>
      <trkpt lat="49.27993" lon="2.36581">
        <ele>29</ele>
        <time>2018-09-09T09:57:40Z</time>
      </trkpt>
      <trkpt lat="49.27993" lon="2.36566">
        <ele>29</ele>
        <time>2018-09-09T09:57:48Z</time>
      </trkpt>
      <trkpt lat="49.27994" lon="2.36551">
        <ele>29</ele>
        <time>2018-09-09T09:57:57Z</time>
      </trkpt>
      <trkpt lat="49.27999" lon="2.36538">
        <ele>29</ele>
        <time>2018-09-09T09:58:03Z</time>
      </trkpt>
      <trkpt lat="49.28002" lon="2.36525">
        <ele>28</ele>
        <time>2018-09-09T09:58:09Z</time>
      </trkpt>
      <trkpt lat="49.28006" lon="2.36511">
        <ele>28</ele>
        <time>2018-09-09T09:58:18Z</time>
      </trkpt>
      <trkpt lat="49.28006" lon="2.36496">
        <ele>28</ele>
        <time>2018-09-09T09:58:25Z</time>
      </trkpt>
      <trkpt lat="49.28002" lon="2.36483">
        <ele>27</ele>
        <time>2018-09-09T09:58:32Z</time>
      </trkpt>
      <trkpt lat="49.27995" lon="2.36473">
        <ele>28</ele>
        <time>2018-09-09T09:58:38Z</time>
      </trkpt>
      <trkpt lat="49.27988" lon="2.36465">
        <ele>28</ele>
        <time>2018-09-09T09:58:45Z</time>
      </trkpt>
      <trkpt lat="49.2798" lon="2.36459">
        <ele>28</ele>
        <time>2018-09-09T09:58:53Z</time>
      </trkpt>
      <trkpt lat="49.27984" lon="2.36446">
        <ele>28</ele>
        <time>2018-09-09T10:00:05Z</time>
      </trkpt>
      <trkpt lat="49.27975" lon="2.36445">
        <ele>27</ele>
        <time>2018-09-09T10:00:31Z</time>
      </trkpt>
      <trkpt lat="49.27965" lon="2.3644">
        <ele>26</ele>
        <time>2018-09-09T10:00:40Z</time>
      </trkpt>
      <trkpt lat="49.27956" lon="2.36433">
        <ele>26</ele>
        <time>2018-09-09T10:00:47Z</time>
      </trkpt>
      <trkpt lat="49.2795" lon="2.36423">
        <ele>27</ele>
        <time>2018-09-09T10:00:53Z</time>
      </trkpt>
      <trkpt lat="49.27945" lon="2.36412">
        <ele>27</ele>
        <time>2018-09-09T10:00:58Z</time>
      </trkpt>
      <trkpt lat="49.27943" lon="2.36399">
        <ele>28</ele>
        <time>2018-09-09T10:01:05Z</time>
      </trkpt>
      <trkpt lat="49.2794" lon="2.36383">
        <ele>28</ele>
        <time>2018-09-09T10:01:13Z</time>
      </trkpt>
      <trkpt lat="49.27939" lon="2.36368">
        <ele>28</ele>
        <time>2018-09-09T10:01:19Z</time>
      </trkpt>
      <trkpt lat="49.27939" lon="2.36354">
        <ele>29</ele>
        <time>2018-09-09T10:01:26Z</time>
      </trkpt>
      <trkpt lat="49.27935" lon="2.36341">
        <ele>29</ele>
        <time>2018-09-09T10:01:33Z</time>
      </trkpt>
      <trkpt lat="49.27926" lon="2.36336">
        <ele>29</ele>
        <time>2018-09-09T10:01:40Z</time>
      </trkpt>
      <trkpt lat="49.27917" lon="2.3634">
        <ele>29</ele>
        <time>2018-09-09T10:01:49Z</time>
      </trkpt>
      <trkpt lat="49.27907" lon="2.36343">
        <ele>29</ele>
        <time>2018-09-09T10:01:56Z</time>
      </trkpt>
      <trkpt lat="49.27899" lon="2.3635">
        <ele>30</ele>
        <time>2018-09-09T10:02:06Z</time>
      </trkpt>
      <trkpt lat="49.27891" lon="2.36357">
        <ele>30</ele>
        <time>2018-09-09T10:02:12Z</time>
      </trkpt>
      <trkpt lat="49.2788" lon="2.36361">
        <ele>29</ele>
        <time>2018-09-09T10:02:20Z</time>
      </trkpt>
      <trkpt lat="49.27871" lon="2.36363">
        <ele>29</ele>
        <time>2018-09-09T10:02:25Z</time>
      </trkpt>
      <trkpt lat="49.27861" lon="2.36366">
        <ele>29</ele>
        <time>2018-09-09T10:02:31Z</time>
      </trkpt>
      <trkpt lat="49.27851" lon="2.36367">
        <ele>29</ele>
        <time>2018-09-09T10:02:39Z</time>
      </trkpt>
      <trkpt lat="49.27841" lon="2.36367">
        <ele>29</ele>
        <time>2018-09-09T10:02:46Z</time>
      </trkpt>
      <trkpt lat="49.27832" lon="2.36368">
        <ele>29</ele>
        <time>2018-09-09T10:02:53Z</time>
      </trkpt>
      <trkpt lat="49.27822" lon="2.36367">
        <ele>29</ele>
        <time>2018-09-09T10:02:59Z</time>
      </trkpt>
      <trkpt lat="49.27812" lon="2.36362">
        <ele>29</ele>
        <time>2018-09-09T10:03:07Z</time>
      </trkpt>
      <trkpt lat="49.27803" lon="2.36359">
        <ele>29</ele>
        <time>2018-09-09T10:03:15Z</time>
      </trkpt>
      <trkpt lat="49.27794" lon="2.36354">
        <ele>29</ele>
        <time>2018-09-09T10:03:23Z</time>
      </trkpt>
      <trkpt lat="49.27785" lon="2.3635">
        <ele>28</ele>
        <time>2018-09-09T10:03:29Z</time>
      </trkpt>
      <trkpt lat="49.27776" lon="2.36347">
        <ele>28</ele>
        <time>2018-09-09T10:03:37Z</time>
      </trkpt>
      <trkpt lat="49.27767" lon="2.36342">
        <ele>28</ele>
        <time>2018-09-09T10:03:44Z</time>
      </trkpt>
      <trkpt lat="49.27757" lon="2.36339">
        <ele>29</ele>
        <time>2018-09-09T10:03:50Z</time>
      </trkpt>
      <trkpt lat="49.27747" lon="2.36337">
        <ele>29</ele>
        <time>2018-09-09T10:03:57Z</time>
      </trkpt>
      <trkpt lat="49.27738" lon="2.36338">
        <ele>29</ele>
        <time>2018-09-09T10:04:04Z</time>
      </trkpt>
      <trkpt lat="49.27729" lon="2.36337">
        <ele>29</ele>
        <time>2018-09-09T10:04:10Z</time>
      </trkpt>
      <trkpt lat="49.27719" lon="2.36335">
        <ele>29</ele>
        <time>2018-09-09T10:04:18Z</time>
      </trkpt>
      <trkpt lat="49.2771" lon="2.36333">
        <ele>29</ele>
        <time>2018-09-09T10:04:24Z</time>
      </trkpt>
      <trkpt lat="49.27701" lon="2.3633">
        <ele>29</ele>
        <time>2018-09-09T10:04:29Z</time>
      </trkpt>
      <trkpt lat="49.2769" lon="2.36327">
        <ele>29</ele>
        <time>2018-09-09T10:04:35Z</time>
      </trkpt>
      <trkpt lat="49.2768" lon="2.36327">
        <ele>29</ele>
        <time>2018-09-09T10:04:42Z</time>
      </trkpt>
      <trkpt lat="49.27671" lon="2.36328">
        <ele>29</ele>
        <time>2018-09-09T10:04:48Z</time>
      </trkpt>
      <trkpt lat="49.27661" lon="2.36329">
        <ele>29</ele>
        <time>2018-09-09T10:04:54Z</time>
      </trkpt>
      <trkpt lat="49.27652" lon="2.36328">
        <ele>29</ele>
        <time>2018-09-09T10:05:01Z</time>
      </trkpt>
      <trkpt lat="49.27642" lon="2.36327">
        <ele>28</ele>
        <time>2018-09-09T10:05:08Z</time>
      </trkpt>
      <trkpt lat="49.27633" lon="2.36326">
        <ele>27</ele>
        <time>2018-09-09T10:05:19Z</time>
      </trkpt>
      <trkpt lat="49.27624" lon="2.36331">
        <ele>27</ele>
        <time>2018-09-09T10:05:27Z</time>
      </trkpt>
      <trkpt lat="49.27613" lon="2.36334">
        <ele>26</ele>
        <time>2018-09-09T10:05:35Z</time>
      </trkpt>
      <trkpt lat="49.27603" lon="2.36338">
        <ele>27</ele>
        <time>2018-09-09T10:05:40Z</time>
      </trkpt>
      <trkpt lat="49.27595" lon="2.36343">
        <ele>27</ele>
        <time>2018-09-09T10:05:45Z</time>
      </trkpt>
      <trkpt lat="49.27585" lon="2.36345">
        <ele>27</ele>
        <time>2018-09-09T10:05:54Z</time>
      </trkpt>
      <trkpt lat="49.27576" lon="2.36338">
        <ele>26</ele>
        <time>2018-09-09T10:06:05Z</time>
      </trkpt>
      <trkpt lat="49.27567" lon="2.3633">
        <ele>25</ele>
        <time>2018-09-09T10:06:13Z</time>
      </trkpt>
      <trkpt lat="49.27559" lon="2.36324">
        <ele>24</ele>
        <time>2018-09-09T10:06:21Z</time>
      </trkpt>
      <trkpt lat="49.2755" lon="2.36319">
        <ele>24</ele>
        <time>2018-09-09T10:06:28Z</time>
      </trkpt>
      <trkpt lat="49.27541" lon="2.36313">
        <ele>24</ele>
        <time>2018-09-09T10:06:33Z</time>
      </trkpt>
      <trkpt lat="49.27532" lon="2.36309">
        <ele>25</ele>
        <time>2018-09-09T10:06:40Z</time>
      </trkpt>
      <trkpt lat="49.27523" lon="2.36305">
        <ele>25</ele>
        <time>2018-09-09T10:06:48Z</time>
      </trkpt>
      <trkpt lat="49.27513" lon="2.363">
        <ele>25</ele>
        <time>2018-09-09T10:06:54Z</time>
      </trkpt>
      <trkpt lat="49.27503" lon="2.36296">
        <ele>24</ele>
        <time>2018-09-09T10:07:01Z</time>
      </trkpt>
      <trkpt lat="49.27493" lon="2.36294">
        <ele>24</ele>
        <time>2018-09-09T10:07:07Z</time>
      </trkpt>
      <trkpt lat="49.27484" lon="2.3629">
        <ele>25</ele>
        <time>2018-09-09T10:07:14Z</time>
      </trkpt>
      <trkpt lat="49.27474" lon="2.36289">
        <ele>25</ele>
        <time>2018-09-09T10:07:21Z</time>
      </trkpt>
      <trkpt lat="49.27465" lon="2.36282">
        <ele>26</ele>
        <time>2018-09-09T10:07:28Z</time>
      </trkpt>
      <trkpt lat="49.27456" lon="2.36279">
        <ele>26</ele>
        <time>2018-09-09T10:07:33Z</time>
      </trkpt>
      <trkpt lat="49.27446" lon="2.36278">
        <ele>28</ele>
        <time>2018-09-09T10:07:41Z</time>
      </trkpt>
      <trkpt lat="49.27437" lon="2.36276">
        <ele>29</ele>
        <time>2018-09-09T10:07:49Z</time>
      </trkpt>
      <trkpt lat="49.27426" lon="2.36276">
        <ele>29</ele>
        <time>2018-09-09T10:07:57Z</time>
      </trkpt>
      <trkpt lat="49.27418" lon="2.36279">
        <ele>30</ele>
        <time>2018-09-09T10:08:05Z</time>
      </trkpt>
      <trkpt lat="49.27408" lon="2.36281">
        <ele>30</ele>
        <time>2018-09-09T10:08:13Z</time>
      </trkpt>
      <trkpt lat="49.27398" lon="2.36278">
        <ele>31</ele>
        <time>2018-09-09T10:08:22Z</time>
      </trkpt>
      <trkpt lat="49.27396" lon="2.36292">
        <ele>28</ele>
        <time>2018-09-09T10:10:40Z</time>
      </trkpt>
      <trkpt lat="49.27388" lon="2.36301">
        <ele>29</ele>
        <time>2018-09-09T10:10:48Z</time>
      </trkpt>
      <trkpt lat="49.27381" lon="2.36311">
        <ele>29</ele>
        <time>2018-09-09T10:10:54Z</time>
      </trkpt>
      <trkpt lat="49.27377" lon="2.36325">
        <ele>30</ele>
        <time>2018-09-09T10:11:00Z</time>
      </trkpt>
      <trkpt lat="49.27374" lon="2.36339">
        <ele>30</ele>
        <time>2018-09-09T10:11:08Z</time>
      </trkpt>
      <trkpt lat="49.27368" lon="2.36352">
        <ele>29</ele>
        <time>2018-09-09T10:11:17Z</time>
      </trkpt>
      <trkpt lat="49.27364" lon="2.36366">
        <ele>29</ele>
        <time>2018-09-09T10:11:25Z</time>
      </trkpt>
      <trkpt lat="49.27358" lon="2.36377">
        <ele>29</ele>
        <time>2018-09-09T10:11:31Z</time>
      </trkpt>
      <trkpt lat="49.27351" lon="2.36388">
        <ele>29</ele>
        <time>2018-09-09T10:11:38Z</time>
      </trkpt>
      <trkpt lat="49.27346" lon="2.36399">
        <ele>29</ele>
        <time>2018-09-09T10:11:46Z</time>
      </trkpt>
      <trkpt lat="49.27341" lon="2.3641">
        <ele>29</ele>
        <time>2018-09-09T10:11:54Z</time>
      </trkpt>
      <trkpt lat="49.27334" lon="2.3642">
        <ele>30</ele>
        <time>2018-09-09T10:12:02Z</time>
      </trkpt>
      <trkpt lat="49.27328" lon="2.36433">
        <ele>30</ele>
        <time>2018-09-09T10:12:09Z</time>
      </trkpt>
      <trkpt lat="49.27324" lon="2.36447">
        <ele>30</ele>
        <time>2018-09-09T10:12:16Z</time>
      </trkpt>
      <trkpt lat="49.27319" lon="2.36458">
        <ele>30</ele>
        <time>2018-09-09T10:12:24Z</time>
      </trkpt>
      <trkpt lat="49.2731" lon="2.36459">
        <ele>30</ele>
        <time>2018-09-09T10:12:41Z</time>
      </trkpt>
      <trkpt lat="49.27303" lon="2.36449">
        <ele>30</ele>
        <time>2018-09-09T10:12:56Z</time>
      </trkpt>
      <trkpt lat="49.27295" lon="2.36441">
        <ele>30</ele>
        <time>2018-09-09T10:13:04Z</time>
      </trkpt>
      <trkpt lat="49.27288" lon="2.36432">
        <ele>29</ele>
        <time>2018-09-09T10:13:14Z</time>
      </trkpt>
      <trkpt lat="49.27279" lon="2.36423">
        <ele>26</ele>
        <time>2018-09-09T10:13:29Z</time>
      </trkpt>
      <trkpt lat="49.27271" lon="2.36416">
        <ele>25</ele>
        <time>2018-09-09T10:13:37Z</time>
      </trkpt>
      <trkpt lat="49.27263" lon="2.36408">
        <ele>21</ele>
        <time>2018-09-09T10:13:48Z</time>
      </trkpt>
      <trkpt lat="49.27261" lon="2.36394">
        <ele>19</ele>
        <time>2018-09-09T10:13:55Z</time>
      </trkpt>
      <trkpt lat="49.27264" lon="2.36381">
        <ele>17</ele>
        <time>2018-09-09T10:14:04Z</time>
      </trkpt>
      <trkpt lat="49.27255" lon="2.36381">
        <ele>7</ele>
        <time>2018-09-09T10:14:44Z</time>
      </trkpt>
      <trkpt lat="49.27247" lon="2.36386">
        <ele>18</ele>
        <time>2018-09-09T10:15:51Z</time>
      </trkpt>
      <trkpt lat="49.27255" lon="2.36395">
        <ele>22</ele>
        <time>2018-09-09T10:16:47Z</time>
      </trkpt>
      <trkpt lat="49.27262" lon="2.36407">
        <ele>22</ele>
        <time>2018-09-09T10:16:53Z</time>
      </trkpt>
      <trkpt lat="49.27266" lon="2.36422">
        <ele>27</ele>
        <time>2018-09-09T10:17:21Z</time>
      </trkpt>
      <trkpt lat="49.27274" lon="2.36428">
        <ele>28</ele>
        <time>2018-09-09T10:17:38Z</time>
      </trkpt>
      <trkpt lat="49.27282" lon="2.36421">
        <ele>27</ele>
        <time>2018-09-09T10:18:01Z</time>
      </trkpt>
      <trkpt lat="49.27291" lon="2.36426">
        <ele>27</ele>
        <time>2018-09-09T10:18:09Z</time>
      </trkpt>
      <trkpt lat="49.27299" lon="2.36434">
        <ele>27</ele>
        <time>2018-09-09T10:18:15Z</time>
      </trkpt>
      <trkpt lat="49.27306" lon="2.36443">
        <ele>27</ele>
        <time>2018-09-09T10:18:21Z</time>
      </trkpt>
      <trkpt lat="49.27314" lon="2.36452">
        <ele>27</ele>
        <time>2018-09-09T10:18:28Z</time>
      </trkpt>
      <trkpt lat="49.27317" lon="2.36467">
        <ele>27</ele>
        <time>2018-09-09T10:18:34Z</time>
      </trkpt>
      <trkpt lat="49.27311" lon="2.36479">
        <ele>27</ele>
        <time>2018-09-09T10:18:43Z</time>
      </trkpt>
      <trkpt lat="49.27304" lon="2.36491">
        <ele>26</ele>
        <time>2018-09-09T10:18:51Z</time>
      </trkpt>
      <trkpt lat="49.27299" lon="2.36504">
        <ele>26</ele>
        <time>2018-09-09T10:18:58Z</time>
      </trkpt>
      <trkpt lat="49.27292" lon="2.36514">
        <ele>26</ele>
        <time>2018-09-09T10:19:07Z</time>
      </trkpt>
      <trkpt lat="49.27286" lon="2.36525">
        <ele>26</ele>
        <time>2018-09-09T10:19:17Z</time>
      </trkpt>
      <trkpt lat="49.27281" lon="2.36536">
        <ele>26</ele>
        <time>2018-09-09T10:19:26Z</time>
      </trkpt>
      <trkpt lat="49.27275" lon="2.36547">
        <ele>25</ele>
        <time>2018-09-09T10:19:42Z</time>
      </trkpt>
      <trkpt lat="49.27267" lon="2.36556">
        <ele>26</ele>
        <time>2018-09-09T10:20:22Z</time>
      </trkpt>
      <trkpt lat="49.27267" lon="2.3657">
        <ele>26</ele>
        <time>2018-09-09T10:20:30Z</time>
      </trkpt>
      <trkpt lat="49.27261" lon="2.36582">
        <ele>25</ele>
        <time>2018-09-09T10:20:38Z</time>
      </trkpt>
      <trkpt lat="49.27255" lon="2.36594">
        <ele>25</ele>
        <time>2018-09-09T10:20:44Z</time>
      </trkpt>
      <trkpt lat="49.27249" lon="2.36607">
        <ele>24</ele>
        <time>2018-09-09T10:20:50Z</time>
      </trkpt>
      <trkpt lat="49.27244" lon="2.3662">
        <ele>24</ele>
        <time>2018-09-09T10:20:57Z</time>
      </trkpt>
      <trkpt lat="49.27241" lon="2.36634">
        <ele>25</ele>
        <time>2018-09-09T10:21:08Z</time>
      </trkpt>
      <trkpt lat="49.27236" lon="2.36646">
        <ele>26</ele>
        <time>2018-09-09T10:21:19Z</time>
      </trkpt>
      <trkpt lat="49.2723" lon="2.36656">
        <ele>28</ele>
        <time>2018-09-09T10:21:50Z</time>
      </trkpt>
      <trkpt lat="49.27223" lon="2.36665">
        <ele>29</ele>
        <time>2018-09-09T10:21:57Z</time>
      </trkpt>
      <trkpt lat="49.27215" lon="2.36672">
        <ele>29</ele>
        <time>2018-09-09T10:22:14Z</time>
      </trkpt>
      <trkpt lat="49.27223" lon="2.36665">
        <ele>30</ele>
        <time>2018-09-09T10:25:16Z</time>
      </trkpt>
      <trkpt lat="49.2723" lon="2.36675">
        <ele>30</ele>
        <time>2018-09-09T10:25:25Z</time>
      </trkpt>
      <trkpt lat="49.27237" lon="2.36685">
        <ele>29</ele>
        <time>2018-09-09T10:25:34Z</time>
      </trkpt>
      <trkpt lat="49.27244" lon="2.36694">
        <ele>29</ele>
        <time>2018-09-09T10:25:43Z</time>
      </trkpt>
      <trkpt lat="49.27253" lon="2.36702">
        <ele>29</ele>
        <time>2018-09-09T10:25:52Z</time>
      </trkpt>
      <trkpt lat="49.27262" lon="2.3671">
        <ele>28</ele>
        <time>2018-09-09T10:26:00Z</time>
      </trkpt>
      <trkpt lat="49.2727" lon="2.36716">
        <ele>28</ele>
        <time>2018-09-09T10:26:08Z</time>
      </trkpt>
      <trkpt lat="49.27279" lon="2.36724">
        <ele>28</ele>
        <time>2018-09-09T10:26:17Z</time>
      </trkpt>
      <trkpt lat="49.27285" lon="2.36735">
        <ele>27</ele>
        <time>2018-09-09T10:26:26Z</time>
      </trkpt>
      <trkpt lat="49.27291" lon="2.36745">
        <ele>27</ele>
        <time>2018-09-09T10:26:32Z</time>
      </trkpt>
      <trkpt lat="49.27299" lon="2.36756">
        <ele>27</ele>
        <time>2018-09-09T10:26:38Z</time>
      </trkpt>
      <trkpt lat="49.27307" lon="2.36762">
        <ele>27</ele>
        <time>2018-09-09T10:26:45Z</time>
      </trkpt>
      <trkpt lat="49.27314" lon="2.36771">
        <ele>27</ele>
        <time>2018-09-09T10:26:54Z</time>
      </trkpt>
      <trkpt lat="49.27322" lon="2.36781">
        <ele>28</ele>
        <time>2018-09-09T10:27:02Z</time>
      </trkpt>
      <trkpt lat="49.27329" lon="2.36792">
        <ele>28</ele>
        <time>2018-09-09T10:27:10Z</time>
      </trkpt>
      <trkpt lat="49.27336" lon="2.36801">
        <ele>29</ele>
        <time>2018-09-09T10:27:18Z</time>
      </trkpt>
      <trkpt lat="49.27344" lon="2.36809">
        <ele>29</ele>
        <time>2018-09-09T10:27:26Z</time>
      </trkpt>
      <trkpt lat="49.27352" lon="2.36817">
        <ele>30</ele>
        <time>2018-09-09T10:27:33Z</time>
      </trkpt>
      <trkpt lat="49.27358" lon="2.36827">
        <ele>30</ele>
        <time>2018-09-09T10:27:42Z</time>
      </trkpt>
      <trkpt lat="49.27364" lon="2.36838">
        <ele>31</ele>
        <time>2018-09-09T10:27:51Z</time>
      </trkpt>
      <trkpt lat="49.27372" lon="2.36845">
        <ele>32</ele>
        <time>2018-09-09T10:27:59Z</time>
      </trkpt>
      <trkpt lat="49.2738" lon="2.36854">
        <ele>33</ele>
        <time>2018-09-09T10:28:07Z</time>
      </trkpt>
      <trkpt lat="49.27387" lon="2.36863">
        <ele>34</ele>
        <time>2018-09-09T10:28:16Z</time>
      </trkpt>
      <trkpt lat="49.27394" lon="2.36872">
        <ele>35</ele>
        <time>2018-09-09T10:28:25Z</time>
      </trkpt>
      <trkpt lat="49.27404" lon="2.36879">
        <ele>36</ele>
        <time>2018-09-09T10:28:34Z</time>
      </trkpt>
      <trkpt lat="49.27413" lon="2.36886">
        <ele>37</ele>
        <time>2018-09-09T10:28:42Z</time>
      </trkpt>
      <trkpt lat="49.27421" lon="2.36893">
        <ele>39</ele>
        <time>2018-09-09T10:28:51Z</time>
      </trkpt>
      <trkpt lat="49.2743" lon="2.36903">
        <ele>40</ele>
        <time>2018-09-09T10:29:00Z</time>
      </trkpt>
      <trkpt lat="49.27437" lon="2.36911">
        <ele>41</ele>
        <time>2018-09-09T10:29:08Z</time>
      </trkpt>
      <trkpt lat="49.27445" lon="2.3692">
        <ele>42</ele>
        <time>2018-09-09T10:29:17Z</time>
      </trkpt>
      <trkpt lat="49.27454" lon="2.36926">
        <ele>43</ele>
        <time>2018-09-09T10:29:26Z</time>
      </trkpt>
      <trkpt lat="49.27463" lon="2.36934">
        <ele>44</ele>
        <time>2018-09-09T10:29:35Z</time>
      </trkpt>
      <trkpt lat="49.2747" lon="2.36941">
        <ele>46</ele>
        <time>2018-09-09T10:29:43Z</time>
      </trkpt>
      <trkpt lat="49.27479" lon="2.36945">
        <ele>47</ele>
        <time>2018-09-09T10:29:52Z</time>
      </trkpt>
      <trkpt lat="49.27488" lon="2.3695">
        <ele>49</ele>
        <time>2018-09-09T10:30:00Z</time>
      </trkpt>
      <trkpt lat="49.27496" lon="2.36956">
        <ele>51</ele>
        <time>2018-09-09T10:30:11Z</time>
      </trkpt>
      <trkpt lat="49.27505" lon="2.36962">
        <ele>53</ele>
        <time>2018-09-09T10:30:21Z</time>
      </trkpt>
      <trkpt lat="49.27514" lon="2.36969">
        <ele>54</ele>
        <time>2018-09-09T10:30:29Z</time>
      </trkpt>
      <trkpt lat="49.2752" lon="2.36978">
        <ele>55</ele>
        <time>2018-09-09T10:30:36Z</time>
      </trkpt>
      <trkpt lat="49.27528" lon="2.36989">
        <ele>55</ele>
        <time>2018-09-09T10:30:44Z</time>
      </trkpt>
      <trkpt lat="49.27536" lon="2.36997">
        <ele>56</ele>
        <time>2018-09-09T10:30:51Z</time>
      </trkpt>
      <trkpt lat="49.27542" lon="2.37007">
        <ele>58</ele>
        <time>2018-09-09T10:31:00Z</time>
      </trkpt>
      <trkpt lat="49.27549" lon="2.37016">
        <ele>59</ele>
        <time>2018-09-09T10:31:08Z</time>
      </trkpt>
      <trkpt lat="49.27554" lon="2.37028">
        <ele>60</ele>
        <time>2018-09-09T10:31:16Z</time>
      </trkpt>
      <trkpt lat="49.27561" lon="2.37038">
        <ele>61</ele>
        <time>2018-09-09T10:31:25Z</time>
      </trkpt>
      <trkpt lat="49.27569" lon="2.37049">
        <ele>62</ele>
        <time>2018-09-09T10:31:33Z</time>
      </trkpt>
      <trkpt lat="49.27575" lon="2.3706">
        <ele>63</ele>
        <time>2018-09-09T10:31:38Z</time>
      </trkpt>
      <trkpt lat="49.27583" lon="2.37069">
        <ele>63</ele>
        <time>2018-09-09T10:31:45Z</time>
      </trkpt>
      <trkpt lat="49.27589" lon="2.37083">
        <ele>63</ele>
        <time>2018-09-09T10:31:54Z</time>
      </trkpt>
      <trkpt lat="49.27596" lon="2.37093">
        <ele>64</ele>
        <time>2018-09-09T10:32:02Z</time>
      </trkpt>
      <trkpt lat="49.27603" lon="2.37103">
        <ele>65</ele>
        <time>2018-09-09T10:32:10Z</time>
      </trkpt>
      <trkpt lat="49.27611" lon="2.3711">
        <ele>66</ele>
        <time>2018-09-09T10:32:16Z</time>
      </trkpt>
      <trkpt lat="49.2762" lon="2.37116">
        <ele>67</ele>
        <time>2018-09-09T10:32:22Z</time>
      </trkpt>
      <trkpt lat="49.27627" lon="2.37126">
        <ele>67</ele>
        <time>2018-09-09T10:32:29Z</time>
      </trkpt>
      <trkpt lat="49.27633" lon="2.37138">
        <ele>68</ele>
        <time>2018-09-09T10:32:38Z</time>
      </trkpt>
      <trkpt lat="49.27637" lon="2.37151">
        <ele>69</ele>
        <time>2018-09-09T10:32:47Z</time>
      </trkpt>
      <trkpt lat="49.27645" lon="2.37161">
        <ele>70</ele>
        <time>2018-09-09T10:32:55Z</time>
      </trkpt>
      <trkpt lat="49.27652" lon="2.37171">
        <ele>71</ele>
        <time>2018-09-09T10:33:06Z</time>
      </trkpt>
      <trkpt lat="49.27658" lon="2.37182">
        <ele>71</ele>
        <time>2018-09-09T10:33:10Z</time>
      </trkpt>
      <trkpt lat="49.27666" lon="2.37192">
        <ele>72</ele>
        <time>2018-09-09T10:33:16Z</time>
      </trkpt>
      <trkpt lat="49.27674" lon="2.37202">
        <ele>72</ele>
        <time>2018-09-09T10:33:22Z</time>
      </trkpt>
      <trkpt lat="49.2768" lon="2.37212">
        <ele>73</ele>
        <time>2018-09-09T10:33:29Z</time>
      </trkpt>
      <trkpt lat="49.27683" lon="2.37226">
        <ele>73</ele>
        <time>2018-09-09T10:33:38Z</time>
      </trkpt>
      <trkpt lat="49.27682" lon="2.37241">
        <ele>74</ele>
        <time>2018-09-09T10:33:46Z</time>
      </trkpt>
      <trkpt lat="49.2768" lon="2.37256">
        <ele>75</ele>
        <time>2018-09-09T10:33:52Z</time>
      </trkpt>
      <trkpt lat="49.27676" lon="2.37269">
        <ele>76</ele>
        <time>2018-09-09T10:33:59Z</time>
      </trkpt>
      <trkpt lat="49.27672" lon="2.37282">
        <ele>76</ele>
        <time>2018-09-09T10:34:07Z</time>
      </trkpt>
      <trkpt lat="49.27666" lon="2.37293">
        <ele>77</ele>
        <time>2018-09-09T10:34:15Z</time>
      </trkpt>
      <trkpt lat="49.27661" lon="2.37307">
        <ele>79</ele>
        <time>2018-09-09T10:34:26Z</time>
      </trkpt>
      <trkpt lat="49.27658" lon="2.3732">
        <ele>79</ele>
        <time>2018-09-09T10:34:31Z</time>
      </trkpt>
      <trkpt lat="49.27654" lon="2.37334">
        <ele>81</ele>
        <time>2018-09-09T10:34:38Z</time>
      </trkpt>
      <trkpt lat="49.27651" lon="2.37348">
        <ele>82</ele>
        <time>2018-09-09T10:34:44Z</time>
      </trkpt>
      <trkpt lat="49.27648" lon="2.37363">
        <ele>83</ele>
        <time>2018-09-09T10:34:50Z</time>
      </trkpt>
      <trkpt lat="49.27646" lon="2.37377">
        <ele>84</ele>
        <time>2018-09-09T10:34:56Z</time>
      </trkpt>
      <trkpt lat="49.27646" lon="2.37392">
        <ele>84</ele>
        <time>2018-09-09T10:35:04Z</time>
      </trkpt>
      <trkpt lat="49.27647" lon="2.37406">
        <ele>85</ele>
        <time>2018-09-09T10:35:09Z</time>
      </trkpt>
      <trkpt lat="49.27639" lon="2.37414">
        <ele>87</ele>
        <time>2018-09-09T10:36:34Z</time>
      </trkpt>
      <trkpt lat="49.2763" lon="2.37415">
        <ele>89</ele>
        <time>2018-09-09T10:36:48Z</time>
      </trkpt>
      <trkpt lat="49.27621" lon="2.37412">
        <ele>90</ele>
        <time>2018-09-09T10:36:57Z</time>
      </trkpt>
      <trkpt lat="49.27612" lon="2.37405">
        <ele>91</ele>
        <time>2018-09-09T10:37:07Z</time>
      </trkpt>
      <trkpt lat="49.27604" lon="2.37398">
        <ele>91</ele>
        <time>2018-09-09T10:37:13Z</time>
      </trkpt>
      <trkpt lat="49.27596" lon="2.37389">
        <ele>91</ele>
        <time>2018-09-09T10:37:21Z</time>
      </trkpt>
      <trkpt lat="49.27589" lon="2.3738">
        <ele>91</ele>
        <time>2018-09-09T10:37:28Z</time>
      </trkpt>
      <trkpt lat="49.27583" lon="2.37369">
        <ele>90</ele>
        <time>2018-09-09T10:37:36Z</time>
      </trkpt>
      <trkpt lat="49.27578" lon="2.37356">
        <ele>89</ele>
        <time>2018-09-09T10:37:45Z</time>
      </trkpt>
      <trkpt lat="49.27572" lon="2.37345">
        <ele>88</ele>
        <time>2018-09-09T10:37:53Z</time>
      </trkpt>
      <trkpt lat="49.27565" lon="2.37336">
        <ele>87</ele>
        <time>2018-09-09T10:38:03Z</time>
      </trkpt>
      <trkpt lat="49.27557" lon="2.37328">
        <ele>87</ele>
        <time>2018-09-09T10:38:11Z</time>
      </trkpt>
      <trkpt lat="49.27549" lon="2.37319">
        <ele>88</ele>
        <time>2018-09-09T10:38:17Z</time>
      </trkpt>
      <trkpt lat="49.27544" lon="2.37307">
        <ele>88</ele>
        <time>2018-09-09T10:38:27Z</time>
      </trkpt>
      <trkpt lat="49.27537" lon="2.37295">
        <ele>88</ele>
        <time>2018-09-09T10:38:35Z</time>
      </trkpt>
      <trkpt lat="49.27531" lon="2.37284">
        <ele>88</ele>
        <time>2018-09-09T10:38:42Z</time>
      </trkpt>
      <trkpt lat="49.27525" lon="2.37274">
        <ele>88</ele>
        <time>2018-09-09T10:38:47Z</time>
      </trkpt>
      <trkpt lat="49.27519" lon="2.37261">
        <ele>88</ele>
        <time>2018-09-09T10:38:53Z</time>
      </trkpt>
      <trkpt lat="49.27515" lon="2.37247">
        <ele>88</ele>
        <time>2018-09-09T10:39:00Z</time>
      </trkpt>
      <trkpt lat="49.27508" lon="2.37237">
        <ele>89</ele>
        <time>2018-09-09T10:39:08Z</time>
      </trkpt>
      <trkpt lat="49.275" lon="2.37228">
        <ele>91</ele>
        <time>2018-09-09T10:39:15Z</time>
      </trkpt>
      <trkpt lat="49.27494" lon="2.37218">
        <ele>92</ele>
        <time>2018-09-09T10:39:24Z</time>
      </trkpt>
      <trkpt lat="49.27485" lon="2.37211">
        <ele>92</ele>
        <time>2018-09-09T10:39:31Z</time>
      </trkpt>
      <trkpt lat="49.27477" lon="2.37204">
        <ele>92</ele>
        <time>2018-09-09T10:39:38Z</time>
      </trkpt>
      <trkpt lat="49.27468" lon="2.37197">
        <ele>92</ele>
        <time>2018-09-09T10:39:48Z</time>
      </trkpt>
      <trkpt lat="49.27459" lon="2.37192">
        <ele>91</ele>
        <time>2018-09-09T10:39:57Z</time>
      </trkpt>
      <trkpt lat="49.2745" lon="2.37187">
        <ele>90</ele>
        <time>2018-09-09T10:40:05Z</time>
      </trkpt>
      <trkpt lat="49.2744" lon="2.37182">
        <ele>90</ele>
        <time>2018-09-09T10:40:14Z</time>
      </trkpt>
      <trkpt lat="49.27431" lon="2.37174">
        <ele>90</ele>
        <time>2018-09-09T10:40:21Z</time>
      </trkpt>
      <trkpt lat="49.27423" lon="2.37167">
        <ele>89</ele>
        <time>2018-09-09T10:40:27Z</time>
      </trkpt>
      <trkpt lat="49.27413" lon="2.37163">
        <ele>89</ele>
        <time>2018-09-09T10:40:34Z</time>
      </trkpt>
      <trkpt lat="49.27404" lon="2.37159">
        <ele>88</ele>
        <time>2018-09-09T10:40:42Z</time>
      </trkpt>
      <trkpt lat="49.27395" lon="2.37154">
        <ele>88</ele>
        <time>2018-09-09T10:40:50Z</time>
      </trkpt>
      <trkpt lat="49.27386" lon="2.37151">
        <ele>88</ele>
        <time>2018-09-09T10:40:58Z</time>
      </trkpt>
      <trkpt lat="49.27377" lon="2.37148">
        <ele>88</ele>
        <time>2018-09-09T10:41:05Z</time>
      </trkpt>
      <trkpt lat="49.27368" lon="2.37146">
        <ele>87</ele>
        <time>2018-09-09T10:41:10Z</time>
      </trkpt>
      <trkpt lat="49.27359" lon="2.37143">
        <ele>87</ele>
        <time>2018-09-09T10:41:17Z</time>
      </trkpt>
      <trkpt lat="49.27349" lon="2.37139">
        <ele>86</ele>
        <time>2018-09-09T10:41:25Z</time>
      </trkpt>
      <trkpt lat="49.2734" lon="2.37136">
        <ele>85</ele>
        <time>2018-09-09T10:41:32Z</time>
      </trkpt>
      <trkpt lat="49.27331" lon="2.37132">
        <ele>85</ele>
        <time>2018-09-09T10:41:40Z</time>
      </trkpt>
      <trkpt lat="49.27321" lon="2.37128">
        <ele>83</ele>
        <time>2018-09-09T10:41:48Z</time>
      </trkpt>
      <trkpt lat="49.27312" lon="2.37126">
        <ele>82</ele>
        <time>2018-09-09T10:41:54Z</time>
      </trkpt>
      <trkpt lat="49.27302" lon="2.37123">
        <ele>81</ele>
        <time>2018-09-09T10:42:01Z</time>
      </trkpt>
      <trkpt lat="49.27292" lon="2.37122">
        <ele>79</ele>
        <time>2018-09-09T10:42:09Z</time>
      </trkpt>
      <trkpt lat="49.27283" lon="2.37117">
        <ele>78</ele>
        <time>2018-09-09T10:42:16Z</time>
      </trkpt>
      <trkpt lat="49.27273" lon="2.37117">
        <ele>78</ele>
        <time>2018-09-09T10:42:22Z</time>
      </trkpt>
      <trkpt lat="49.27263" lon="2.37116">
        <ele>77</ele>
        <time>2018-09-09T10:42:29Z</time>
      </trkpt>
      <trkpt lat="49.27254" lon="2.37113">
        <ele>77</ele>
        <time>2018-09-09T10:42:36Z</time>
      </trkpt>
      <trkpt lat="49.27245" lon="2.37112">
        <ele>77</ele>
        <time>2018-09-09T10:42:44Z</time>
      </trkpt>
      <trkpt lat="49.27236" lon="2.3711">
        <ele>76</ele>
        <time>2018-09-09T10:42:51Z</time>
      </trkpt>
      <trkpt lat="49.27226" lon="2.37107">
        <ele>76</ele>
        <time>2018-09-09T10:42:58Z</time>
      </trkpt>
      <trkpt lat="49.27217" lon="2.3711">
        <ele>75</ele>
        <time>2018-09-09T10:43:10Z</time>
      </trkpt>
      <trkpt lat="49.27208" lon="2.37105">
        <ele>74</ele>
        <time>2018-09-09T10:43:19Z</time>
      </trkpt>
      <trkpt lat="49.27199" lon="2.37101">
        <ele>73</ele>
        <time>2018-09-09T10:43:26Z</time>
      </trkpt>
      <trkpt lat="49.27189" lon="2.37097">
        <ele>73</ele>
        <time>2018-09-09T10:43:32Z</time>
      </trkpt>
      <trkpt lat="49.2718" lon="2.371">
        <ele>73</ele>
        <time>2018-09-09T10:43:38Z</time>
      </trkpt>
      <trkpt lat="49.27171" lon="2.37105">
        <ele>73</ele>
        <time>2018-09-09T10:43:45Z</time>
      </trkpt>
      <trkpt lat="49.27161" lon="2.37105">
        <ele>72</ele>
        <time>2018-09-09T10:43:52Z</time>
      </trkpt>
      <trkpt lat="49.27154" lon="2.37097">
        <ele>70</ele>
        <time>2018-09-09T10:44:02Z</time>
      </trkpt>
      <trkpt lat="49.27145" lon="2.37092">
        <ele>69</ele>
        <time>2018-09-09T10:44:10Z</time>
      </trkpt>
      <trkpt lat="49.27136" lon="2.37088">
        <ele>68</ele>
        <time>2018-09-09T10:44:18Z</time>
      </trkpt>
      <trkpt lat="49.27128" lon="2.37081">
        <ele>68</ele>
        <time>2018-09-09T10:44:25Z</time>
      </trkpt>
      <trkpt lat="49.27119" lon="2.37078">
        <ele>67</ele>
        <time>2018-09-09T10:44:34Z</time>
      </trkpt>
      <trkpt lat="49.2711" lon="2.37072">
        <ele>65</ele>
        <time>2018-09-09T10:44:41Z</time>
      </trkpt>
      <trkpt lat="49.27104" lon="2.37062">
        <ele>65</ele>
        <time>2018-09-09T10:45:09Z</time>
      </trkpt>
      <trkpt lat="49.27095" lon="2.37057">
        <ele>65</ele>
        <time>2018-09-09T10:46:19Z</time>
      </trkpt>
      <trkpt lat="49.27086" lon="2.37053">
        <ele>66</ele>
        <time>2018-09-09T10:46:30Z</time>
      </trkpt>
      <trkpt lat="49.27077" lon="2.3705">
        <ele>66</ele>
        <time>2018-09-09T10:46:38Z</time>
      </trkpt>
      <trkpt lat="49.27068" lon="2.37045">
        <ele>65</ele>
        <time>2018-09-09T10:46:46Z</time>
      </trkpt>
      <trkpt lat="49.2706" lon="2.37039">
        <ele>66</ele>
        <time>2018-09-09T10:46:55Z</time>
      </trkpt>
      <trkpt lat="49.2705" lon="2.37033">
        <ele>66</ele>
        <time>2018-09-09T10:47:02Z</time>
      </trkpt>
      <trkpt lat="49.27041" lon="2.37027">
        <ele>66</ele>
        <time>2018-09-09T10:47:08Z</time>
      </trkpt>
      <trkpt lat="49.27031" lon="2.37023">
        <ele>66</ele>
        <time>2018-09-09T10:47:15Z</time>
      </trkpt>
      <trkpt lat="49.27022" lon="2.37019">
        <ele>66</ele>
        <time>2018-09-09T10:47:22Z</time>
      </trkpt>
      <trkpt lat="49.27013" lon="2.37013">
        <ele>65</ele>
        <time>2018-09-09T10:47:31Z</time>
      </trkpt>
      <trkpt lat="49.27003" lon="2.37008">
        <ele>64</ele>
        <time>2018-09-09T10:47:39Z</time>
      </trkpt>
      <trkpt lat="49.26994" lon="2.37004">
        <ele>64</ele>
        <time>2018-09-09T10:47:44Z</time>
      </trkpt>
      <trkpt lat="49.26985" lon="2.36999">
        <ele>63</ele>
        <time>2018-09-09T10:47:52Z</time>
      </trkpt>
      <trkpt lat="49.26976" lon="2.36995">
        <ele>62</ele>
        <time>2018-09-09T10:48:00Z</time>
      </trkpt>
      <trkpt lat="49.26968" lon="2.36989">
        <ele>62</ele>
        <time>2018-09-09T10:48:06Z</time>
      </trkpt>
      <trkpt lat="49.2696" lon="2.36981">
        <ele>62</ele>
        <time>2018-09-09T10:48:12Z</time>
      </trkpt>
      <trkpt lat="49.26952" lon="2.36974">
        <ele>62</ele>
        <time>2018-09-09T10:48:20Z</time>
      </trkpt>
      <trkpt lat="49.26942" lon="2.36971">
        <ele>62</ele>
        <time>2018-09-09T10:48:29Z</time>
      </trkpt>
      <trkpt lat="49.26934" lon="2.36964">
        <ele>61</ele>
        <time>2018-09-09T10:48:38Z</time>
      </trkpt>
      <trkpt lat="49.26925" lon="2.3696">
        <ele>60</ele>
        <time>2018-09-09T10:48:47Z</time>
      </trkpt>
      <trkpt lat="49.26916" lon="2.36955">
        <ele>59</ele>
        <time>2018-09-09T10:48:54Z</time>
      </trkpt>
      <trkpt lat="49.26908" lon="2.36949">
        <ele>58</ele>
        <time>2018-09-09T10:49:00Z</time>
      </trkpt>
      <trkpt lat="49.26899" lon="2.36944">
        <ele>56</ele>
        <time>2018-09-09T10:49:07Z</time>
      </trkpt>
      <trkpt lat="49.2689" lon="2.36942">
        <ele>54</ele>
        <time>2018-09-09T10:49:14Z</time>
      </trkpt>
      <trkpt lat="49.26882" lon="2.36938">
        <ele>54</ele>
        <time>2018-09-09T10:49:23Z</time>
      </trkpt>
      <trkpt lat="49.26871" lon="2.36938">
        <ele>54</ele>
        <time>2018-09-09T10:49:30Z</time>
      </trkpt>
      <trkpt lat="49.26862" lon="2.36937">
        <ele>54</ele>
        <time>2018-09-09T10:49:37Z</time>
      </trkpt>
      <trkpt lat="49.26853" lon="2.36939">
        <ele>54</ele>
        <time>2018-09-09T10:49:45Z</time>
      </trkpt>
      <trkpt lat="49.26844" lon="2.36942">
        <ele>53</ele>
        <time>2018-09-09T10:49:57Z</time>
      </trkpt>
      <trkpt lat="49.26835" lon="2.36951">
        <ele>53</ele>
        <time>2018-09-09T10:50:05Z</time>
      </trkpt>
      <trkpt lat="49.26826" lon="2.36959">
        <ele>52</ele>
        <time>2018-09-09T10:50:14Z</time>
      </trkpt>
      <trkpt lat="49.26819" lon="2.36966">
        <ele>51</ele>
        <time>2018-09-09T10:50:20Z</time>
      </trkpt>
      <trkpt lat="49.26812" lon="2.36977">
        <ele>50</ele>
        <time>2018-09-09T10:50:27Z</time>
      </trkpt>
      <trkpt lat="49.26805" lon="2.36987">
        <ele>49</ele>
        <time>2018-09-09T10:50:35Z</time>
      </trkpt>
      <trkpt lat="49.26798" lon="2.36998">
        <ele>49</ele>
        <time>2018-09-09T10:50:46Z</time>
      </trkpt>
      <trkpt lat="49.26794" lon="2.37012">
        <ele>48</ele>
        <time>2018-09-09T10:50:57Z</time>
      </trkpt>
      <trkpt lat="49.2679" lon="2.37027">
        <ele>48</ele>
        <time>2018-09-09T10:51:04Z</time>
      </trkpt>
      <trkpt lat="49.26782" lon="2.37034">
        <ele>47</ele>
        <time>2018-09-09T10:51:10Z</time>
      </trkpt>
      <trkpt lat="49.26774" lon="2.37026">
        <ele>46</ele>
        <time>2018-09-09T10:51:20Z</time>
      </trkpt>
      <trkpt lat="49.26769" lon="2.37012">
        <ele>45</ele>
        <time>2018-09-09T10:51:26Z</time>
      </trkpt>
      <trkpt lat="49.26764" lon="2.37">
        <ele>45</ele>
        <time>2018-09-09T10:51:34Z</time>
      </trkpt>
      <trkpt lat="49.26762" lon="2.36985">
        <ele>44</ele>
        <time>2018-09-09T10:51:41Z</time>
      </trkpt>
      <trkpt lat="49.26758" lon="2.36972">
        <ele>43</ele>
        <time>2018-09-09T10:51:50Z</time>
      </trkpt>
      <trkpt lat="49.26754" lon="2.36958">
        <ele>43</ele>
        <time>2018-09-09T10:51:59Z</time>
      </trkpt>
      <trkpt lat="49.26752" lon="2.36943">
        <ele>43</ele>
        <time>2018-09-09T10:52:09Z</time>
      </trkpt>
      <trkpt lat="49.26748" lon="2.3693">
        <ele>42</ele>
        <time>2018-09-09T10:52:15Z</time>
      </trkpt>
      <trkpt lat="49.26745" lon="2.36916">
        <ele>43</ele>
        <time>2018-09-09T10:52:22Z</time>
      </trkpt>
      <trkpt lat="49.26744" lon="2.369">
        <ele>42</ele>
        <time>2018-09-09T10:52:29Z</time>
      </trkpt>
      <trkpt lat="49.26743" lon="2.36885">
        <ele>41</ele>
        <time>2018-09-09T10:52:37Z</time>
      </trkpt>
      <trkpt lat="49.26743" lon="2.36871">
        <ele>40</ele>
        <time>2018-09-09T10:52:45Z</time>
      </trkpt>
      <trkpt lat="49.26745" lon="2.36856">
        <ele>39</ele>
        <time>2018-09-09T10:52:53Z</time>
      </trkpt>
      <trkpt lat="49.26747" lon="2.36841">
        <ele>39</ele>
        <time>2018-09-09T10:53:00Z</time>
      </trkpt>
      <trkpt lat="49.26744" lon="2.36827">
        <ele>39</ele>
        <time>2018-09-09T10:53:07Z</time>
      </trkpt>
      <trkpt lat="49.2674" lon="2.3684">
        <ele>40</ele>
        <time>2018-09-09T10:53:21Z</time>
      </trkpt>
      <trkpt lat="49.26738" lon="2.36854">
        <ele>40</ele>
        <time>2018-09-09T10:53:28Z</time>
      </trkpt>
      <trkpt lat="49.26737" lon="2.36869">
        <ele>40</ele>
        <time>2018-09-09T10:53:35Z</time>
      </trkpt>
      <trkpt lat="49.26736" lon="2.36883">
        <ele>40</ele>
        <time>2018-09-09T10:53:44Z</time>
      </trkpt>
      <trkpt lat="49.26735" lon="2.36898">
        <ele>40</ele>
        <time>2018-09-09T10:53:54Z</time>
      </trkpt>
      <trkpt lat="49.26735" lon="2.36913">
        <ele>41</ele>
        <time>2018-09-09T10:54:02Z</time>
      </trkpt>
      <trkpt lat="49.26731" lon="2.36928">
        <ele>41</ele>
        <time>2018-09-09T10:54:11Z</time>
      </trkpt>
      <trkpt lat="49.26728" lon="2.36941">
        <ele>38</ele>
        <time>2018-09-09T10:54:18Z</time>
      </trkpt>
      <trkpt lat="49.26726" lon="2.36955">
        <ele>36</ele>
        <time>2018-09-09T10:54:25Z</time>
      </trkpt>
      <trkpt lat="49.26726" lon="2.36969">
        <ele>35</ele>
        <time>2018-09-09T10:54:31Z</time>
      </trkpt>
      <trkpt lat="49.26722" lon="2.36982">
        <ele>32</ele>
        <time>2018-09-09T10:54:38Z</time>
      </trkpt>
      <trkpt lat="49.26719" lon="2.36997">
        <ele>31</ele>
        <time>2018-09-09T10:54:44Z</time>
      </trkpt>
      <trkpt lat="49.26714" lon="2.37011">
        <ele>30</ele>
        <time>2018-09-09T10:54:50Z</time>
      </trkpt>
      <trkpt lat="49.26712" lon="2.37026">
        <ele>30</ele>
        <time>2018-09-09T10:54:57Z</time>
      </trkpt>
      <trkpt lat="49.26708" lon="2.3704">
        <ele>29</ele>
        <time>2018-09-09T10:55:04Z</time>
      </trkpt>
      <trkpt lat="49.26704" lon="2.37054">
        <ele>29</ele>
        <time>2018-09-09T10:55:11Z</time>
      </trkpt>
      <trkpt lat="49.26704" lon="2.37068">
        <ele>29</ele>
        <time>2018-09-09T10:55:18Z</time>
      </trkpt>
      <trkpt lat="49.267" lon="2.37082">
        <ele>29</ele>
        <time>2018-09-09T10:55:25Z</time>
      </trkpt>
      <trkpt lat="49.26696" lon="2.37096">
        <ele>29</ele>
        <time>2018-09-09T10:55:33Z</time>
      </trkpt>
      <trkpt lat="49.26692" lon="2.3711">
        <ele>29</ele>
        <time>2018-09-09T10:55:39Z</time>
      </trkpt>
      <trkpt lat="49.2669" lon="2.37124">
        <ele>29</ele>
        <time>2018-09-09T10:55:47Z</time>
      </trkpt>
      <trkpt lat="49.26686" lon="2.37137">
        <ele>28</ele>
        <time>2018-09-09T10:55:55Z</time>
      </trkpt>
      <trkpt lat="49.2668" lon="2.37148">
        <ele>28</ele>
        <time>2018-09-09T10:56:03Z</time>
      </trkpt>
      <trkpt lat="49.26673" lon="2.37158">
        <ele>28</ele>
        <time>2018-09-09T10:56:10Z</time>
      </trkpt>
      <trkpt lat="49.26666" lon="2.3717">
        <ele>27</ele>
        <time>2018-09-09T10:56:17Z</time>
      </trkpt>
      <trkpt lat="49.26659" lon="2.3718">
        <ele>28</ele>
        <time>2018-09-09T10:56:23Z</time>
      </trkpt>
      <trkpt lat="49.26651" lon="2.37186">
        <ele>28</ele>
        <time>2018-09-09T10:56:30Z</time>
      </trkpt>
      <trkpt lat="49.26642" lon="2.37188">
        <ele>28</ele>
        <time>2018-09-09T10:56:37Z</time>
      </trkpt>
      <trkpt lat="49.26632" lon="2.3719">
        <ele>28</ele>
        <time>2018-09-09T10:56:44Z</time>
      </trkpt>
      <trkpt lat="49.26623" lon="2.37194">
        <ele>28</ele>
        <time>2018-09-09T10:56:52Z</time>
      </trkpt>
      <trkpt lat="49.26613" lon="2.37197">
        <ele>28</ele>
        <time>2018-09-09T10:56:58Z</time>
      </trkpt>
      <trkpt lat="49.26603" lon="2.37202">
        <ele>27</ele>
        <time>2018-09-09T10:57:04Z</time>
      </trkpt>
      <trkpt lat="49.26594" lon="2.37204">
        <ele>27</ele>
        <time>2018-09-09T10:57:12Z</time>
      </trkpt>
      <trkpt lat="49.26584" lon="2.37204">
        <ele>27</ele>
        <time>2018-09-09T10:57:21Z</time>
      </trkpt>
      <trkpt lat="49.26575" lon="2.37208">
        <ele>27</ele>
        <time>2018-09-09T10:57:31Z</time>
      </trkpt>
      <trkpt lat="49.26565" lon="2.37209">
        <ele>27</ele>
        <time>2018-09-09T10:57:40Z</time>
      </trkpt>
      <trkpt lat="49.26557" lon="2.37215">
        <ele>27</ele>
        <time>2018-09-09T10:57:46Z</time>
      </trkpt>
      <trkpt lat="49.26549" lon="2.37224">
        <ele>27</ele>
        <time>2018-09-09T10:57:51Z</time>
      </trkpt>
      <trkpt lat="49.26541" lon="2.37233">
        <ele>27</ele>
        <time>2018-09-09T10:58:01Z</time>
      </trkpt>
      <trkpt lat="49.26535" lon="2.37243">
        <ele>28</ele>
        <time>2018-09-09T10:58:09Z</time>
      </trkpt>
      <trkpt lat="49.26527" lon="2.37254">
        <ele>28</ele>
        <time>2018-09-09T10:58:15Z</time>
      </trkpt>
      <trkpt lat="49.26521" lon="2.37263">
        <ele>29</ele>
        <time>2018-09-09T10:58:23Z</time>
      </trkpt>
      <trkpt lat="49.26515" lon="2.37275">
        <ele>29</ele>
        <time>2018-09-09T10:58:29Z</time>
      </trkpt>
      <trkpt lat="49.26507" lon="2.37283">
        <ele>28</ele>
        <time>2018-09-09T10:58:35Z</time>
      </trkpt>
      <trkpt lat="49.265" lon="2.37294">
        <ele>28</ele>
        <time>2018-09-09T10:58:44Z</time>
      </trkpt>
      <trkpt lat="49.26494" lon="2.37305">
        <ele>27</ele>
        <time>2018-09-09T10:58:51Z</time>
      </trkpt>
      <trkpt lat="49.2649" lon="2.37318">
        <ele>27</ele>
        <time>2018-09-09T10:58:57Z</time>
      </trkpt>
      <trkpt lat="49.26485" lon="2.37331">
        <ele>27</ele>
        <time>2018-09-09T10:59:04Z</time>
      </trkpt>
      <trkpt lat="49.26481" lon="2.37344">
        <ele>27</ele>
        <time>2018-09-09T10:59:12Z</time>
      </trkpt>
      <trkpt lat="49.26478" lon="2.37359">
        <ele>26</ele>
        <time>2018-09-09T10:59:21Z</time>
      </trkpt>
      <trkpt lat="49.2647" lon="2.3737">
        <ele>26</ele>
        <time>2018-09-09T10:59:29Z</time>
      </trkpt>
      <trkpt lat="49.26466" lon="2.37383">
        <ele>26</ele>
        <time>2018-09-09T10:59:37Z</time>
      </trkpt>
      <trkpt lat="49.26462" lon="2.37396">
        <ele>26</ele>
        <time>2018-09-09T10:59:45Z</time>
      </trkpt>
      <trkpt lat="49.26459" lon="2.3741">
        <ele>25</ele>
        <time>2018-09-09T10:59:51Z</time>
      </trkpt>
      <trkpt lat="49.26455" lon="2.37423">
        <ele>25</ele>
        <time>2018-09-09T10:59:59Z</time>
      </trkpt>
      <trkpt lat="49.26451" lon="2.37436">
        <ele>24</ele>
        <time>2018-09-09T11:00:08Z</time>
      </trkpt>
      <trkpt lat="49.26446" lon="2.37449">
        <ele>23</ele>
        <time>2018-09-09T11:00:18Z</time>
      </trkpt>
      <trkpt lat="49.26441" lon="2.37461">
        <ele>22</ele>
        <time>2018-09-09T11:00:28Z</time>
      </trkpt>
      <trkpt lat="49.26432" lon="2.37471">
        <ele>22</ele>
        <time>2018-09-09T11:00:35Z</time>
      </trkpt>
      <trkpt lat="49.26425" lon="2.3748">
        <ele>22</ele>
        <time>2018-09-09T11:00:40Z</time>
      </trkpt>
      <trkpt lat="49.26417" lon="2.3749">
        <ele>23</ele>
        <time>2018-09-09T11:00:46Z</time>
      </trkpt>
      <trkpt lat="49.26412" lon="2.37501">
        <ele>24</ele>
        <time>2018-09-09T11:00:53Z</time>
      </trkpt>
      <trkpt lat="49.26406" lon="2.37511">
        <ele>24</ele>
        <time>2018-09-09T11:00:59Z</time>
      </trkpt>
      <trkpt lat="49.26397" lon="2.3752">
        <ele>24</ele>
        <time>2018-09-09T11:01:07Z</time>
      </trkpt>
      <trkpt lat="49.2639" lon="2.3753">
        <ele>25</ele>
        <time>2018-09-09T11:01:15Z</time>
      </trkpt>
      <trkpt lat="49.26384" lon="2.37542">
        <ele>26</ele>
        <time>2018-09-09T11:01:23Z</time>
      </trkpt>
      <trkpt lat="49.26377" lon="2.37552">
        <ele>26</ele>
        <time>2018-09-09T11:01:32Z</time>
      </trkpt>
      <trkpt lat="49.26369" lon="2.37559">
        <ele>26</ele>
        <time>2018-09-09T11:01:37Z</time>
      </trkpt>
      <trkpt lat="49.26361" lon="2.37568">
        <ele>26</ele>
        <time>2018-09-09T11:01:43Z</time>
      </trkpt>
      <trkpt lat="49.26353" lon="2.37576">
        <ele>26</ele>
        <time>2018-09-09T11:01:50Z</time>
      </trkpt>
      <trkpt lat="49.26345" lon="2.37581">
        <ele>26</ele>
        <time>2018-09-09T11:01:58Z</time>
      </trkpt>
      <trkpt lat="49.26337" lon="2.37588">
        <ele>26</ele>
        <time>2018-09-09T11:02:09Z</time>
      </trkpt>
      <trkpt lat="49.26328" lon="2.37597">
        <ele>26</ele>
        <time>2018-09-09T11:02:17Z</time>
      </trkpt>
      <trkpt lat="49.26322" lon="2.37608">
        <ele>26</ele>
        <time>2018-09-09T11:02:23Z</time>
      </trkpt>
      <trkpt lat="49.26316" lon="2.37618">
        <ele>26</ele>
        <time>2018-09-09T11:02:31Z</time>
      </trkpt>
      <trkpt lat="49.26308" lon="2.37628">
        <ele>25</ele>
        <time>2018-09-09T11:02:38Z</time>
      </trkpt>
      <trkpt lat="49.26301" lon="2.37639">
        <ele>25</ele>
        <time>2018-09-09T11:02:45Z</time>
      </trkpt>
      <trkpt lat="49.26295" lon="2.37651">
        <ele>25</ele>
        <time>2018-09-09T11:02:53Z</time>
      </trkpt>
      <trkpt lat="49.26288" lon="2.37662">
        <ele>24</ele>
        <time>2018-09-09T11:03:01Z</time>
      </trkpt>
      <trkpt lat="49.26282" lon="2.37672">
        <ele>23</ele>
        <time>2018-09-09T11:03:10Z</time>
      </trkpt>
      <trkpt lat="49.26277" lon="2.37684">
        <ele>23</ele>
        <time>2018-09-09T11:03:16Z</time>
      </trkpt>
      <trkpt lat="49.26271" lon="2.37697">
        <ele>22</ele>
        <time>2018-09-09T11:03:23Z</time>
      </trkpt>
      <trkpt lat="49.26265" lon="2.37708">
        <ele>22</ele>
        <time>2018-09-09T11:03:30Z</time>
      </trkpt>
      <trkpt lat="49.26258" lon="2.3772">
        <ele>23</ele>
        <time>2018-09-09T11:03:39Z</time>
      </trkpt>
      <trkpt lat="49.26252" lon="2.37731">
        <ele>23</ele>
        <time>2018-09-09T11:03:47Z</time>
      </trkpt>
      <trkpt lat="49.26247" lon="2.37743">
        <ele>22</ele>
        <time>2018-09-09T11:03:57Z</time>
      </trkpt>
      <trkpt lat="49.26242" lon="2.37755">
        <ele>22</ele>
        <time>2018-09-09T11:04:05Z</time>
      </trkpt>
      <trkpt lat="49.26237" lon="2.37768">
        <ele>21</ele>
        <time>2018-09-09T11:04:12Z</time>
      </trkpt>
      <trkpt lat="49.2623" lon="2.37778">
        <ele>21</ele>
        <time>2018-09-09T11:04:19Z</time>
      </trkpt>
      <trkpt lat="49.26224" lon="2.3779">
        <ele>21</ele>
        <time>2018-09-09T11:04:25Z</time>
      </trkpt>
      <trkpt lat="49.26218" lon="2.378">
        <ele>21</ele>
        <time>2018-09-09T11:04:31Z</time>
      </trkpt>
      <trkpt lat="49.26214" lon="2.37813">
        <ele>22</ele>
        <time>2018-09-09T11:04:39Z</time>
      </trkpt>
      <trkpt lat="49.26205" lon="2.37816">
        <ele>22</ele>
        <time>2018-09-09T11:04:57Z</time>
      </trkpt>
      <trkpt lat="49.26196" lon="2.37817">
        <ele>22</ele>
        <time>2018-09-09T11:05:31Z</time>
      </trkpt>
      <trkpt lat="49.26205" lon="2.3782">
        <ele>23</ele>
        <time>2018-09-09T11:06:20Z</time>
      </trkpt>
      <trkpt lat="49.26212" lon="2.37829">
        <ele>22</ele>
        <time>2018-09-09T11:06:29Z</time>
      </trkpt>
      <trkpt lat="49.26217" lon="2.37841">
        <ele>21</ele>
        <time>2018-09-09T11:06:42Z</time>
      </trkpt>
      <trkpt lat="49.26217" lon="2.37855">
        <ele>20</ele>
        <time>2018-09-09T11:06:47Z</time>
      </trkpt>
      <trkpt lat="49.26217" lon="2.3787">
        <ele>20</ele>
        <time>2018-09-09T11:06:54Z</time>
      </trkpt>
      <trkpt lat="49.26219" lon="2.37884">
        <ele>19</ele>
        <time>2018-09-09T11:07:02Z</time>
      </trkpt>
      <trkpt lat="49.26219" lon="2.37899">
        <ele>19</ele>
        <time>2018-09-09T11:07:09Z</time>
      </trkpt>
      <trkpt lat="49.2622" lon="2.37914">
        <ele>19</ele>
        <time>2018-09-09T11:07:17Z</time>
      </trkpt>
      <trkpt lat="49.26223" lon="2.37929">
        <ele>19</ele>
        <time>2018-09-09T11:07:26Z</time>
      </trkpt>
      <trkpt lat="49.26225" lon="2.37943">
        <ele>19</ele>
        <time>2018-09-09T11:07:32Z</time>
      </trkpt>
      <trkpt lat="49.26227" lon="2.37958">
        <ele>19</ele>
        <time>2018-09-09T11:07:40Z</time>
      </trkpt>
      <trkpt lat="49.26229" lon="2.37972">
        <ele>19</ele>
        <time>2018-09-09T11:07:47Z</time>
      </trkpt>
      <trkpt lat="49.26232" lon="2.37986">
        <ele>20</ele>
        <time>2018-09-09T11:07:54Z</time>
      </trkpt>
      <trkpt lat="49.26236" lon="2.38001">
        <ele>22</ele>
        <time>2018-09-09T11:08:07Z</time>
      </trkpt>
      <trkpt lat="49.26241" lon="2.38014">
        <ele>22</ele>
        <time>2018-09-09T11:08:14Z</time>
      </trkpt>
      <trkpt lat="49.26244" lon="2.38028">
        <ele>22</ele>
        <time>2018-09-09T11:08:20Z</time>
      </trkpt>
      <trkpt lat="49.26249" lon="2.3804">
        <ele>22</ele>
        <time>2018-09-09T11:08:27Z</time>
      </trkpt>
      <trkpt lat="49.26256" lon="2.38052">
        <ele>23</ele>
        <time>2018-09-09T11:08:38Z</time>
      </trkpt>
      <trkpt lat="49.26258" lon="2.38067">
        <ele>24</ele>
        <time>2018-09-09T11:08:45Z</time>
      </trkpt>
      <trkpt lat="49.26262" lon="2.38081">
        <ele>25</ele>
        <time>2018-09-09T11:08:54Z</time>
      </trkpt>
      <trkpt lat="49.26264" lon="2.38095">
        <ele>25</ele>
        <time>2018-09-09T11:09:00Z</time>
      </trkpt>
      <trkpt lat="49.2627" lon="2.38107">
        <ele>25</ele>
        <time>2018-09-09T11:09:09Z</time>
      </trkpt>
      <trkpt lat="49.26277" lon="2.38116">
        <ele>25</ele>
        <time>2018-09-09T11:09:21Z</time>
      </trkpt>
      <trkpt lat="49.26285" lon="2.38124">
        <ele>24</ele>
        <time>2018-09-09T11:09:26Z</time>
      </trkpt>
      <trkpt lat="49.26292" lon="2.38135">
        <ele>24</ele>
        <time>2018-09-09T11:09:32Z</time>
      </trkpt>
      <trkpt lat="49.26299" lon="2.38145">
        <ele>25</ele>
        <time>2018-09-09T11:09:40Z</time>
      </trkpt>
      <trkpt lat="49.26307" lon="2.38155">
        <ele>25</ele>
        <time>2018-09-09T11:09:48Z</time>
      </trkpt>
      <trkpt lat="49.26314" lon="2.38165">
        <ele>24</ele>
        <time>2018-09-09T11:09:58Z</time>
      </trkpt>
      <trkpt lat="49.2632" lon="2.38177">
        <ele>23</ele>
        <time>2018-09-09T11:10:06Z</time>
      </trkpt>
      <trkpt lat="49.26328" lon="2.38188">
        <ele>23</ele>
        <time>2018-09-09T11:10:14Z</time>
      </trkpt>
      <trkpt lat="49.26336" lon="2.38198">
        <ele>22</ele>
        <time>2018-09-09T11:10:20Z</time>
      </trkpt>
      <trkpt lat="49.26344" lon="2.38207">
        <ele>22</ele>
        <time>2018-09-09T11:10:26Z</time>
      </trkpt>
      <trkpt lat="49.26338" lon="2.38217">
        <ele>22</ele>
        <time>2018-09-09T11:11:16Z</time>
      </trkpt>
      <trkpt lat="49.26347" lon="2.38214">
        <ele>22</ele>
        <time>2018-09-09T11:12:37Z</time>
      </trkpt>
      <trkpt lat="49.26352" lon="2.38226">
        <ele>22</ele>
        <time>2018-09-09T11:12:44Z</time>
      </trkpt>
      <trkpt lat="49.26358" lon="2.38238">
        <ele>22</ele>
        <time>2018-09-09T11:12:53Z</time>
      </trkpt>
      <trkpt lat="49.26365" lon="2.38247">
        <ele>22</ele>
        <time>2018-09-09T11:13:00Z</time>
      </trkpt>
      <trkpt lat="49.26372" lon="2.38259">
        <ele>22</ele>
        <time>2018-09-09T11:13:09Z</time>
      </trkpt>
      <trkpt lat="49.26377" lon="2.38272">
        <ele>21</ele>
        <time>2018-09-09T11:13:17Z</time>
      </trkpt>
      <trkpt lat="49.2638" lon="2.38285">
        <ele>21</ele>
        <time>2018-09-09T11:13:22Z</time>
      </trkpt>
      <trkpt lat="49.26383" lon="2.38298">
        <ele>20</ele>
        <time>2018-09-09T11:13:29Z</time>
      </trkpt>
      <trkpt lat="49.26384" lon="2.38312">
        <ele>20</ele>
        <time>2018-09-09T11:14:03Z</time>
      </trkpt>
      <trkpt lat="49.26376" lon="2.38315">
        <ele>23</ele>
        <time>2018-09-09T11:15:06Z</time>
      </trkpt>
      <trkpt lat="49.26374" lon="2.38329">
        <ele>29</ele>
        <time>2018-09-09T11:32:32Z</time>
      </trkpt>
      <trkpt lat="49.26369" lon="2.38318">
        <ele>32</ele>
        <time>2018-09-09T11:34:57Z</time>
      </trkpt>
      <trkpt lat="49.26374" lon="2.3833">
        <ele>35</ele>
        <time>2018-09-09T11:52:32Z</time>
      </trkpt>
      <trkpt lat="49.26373" lon="2.38315">
        <ele>34</ele>
        <time>2018-09-09T11:59:22Z</time>
      </trkpt>
      <trkpt lat="49.26366" lon="2.38307">
        <ele>34</ele>
        <time>2018-09-09T12:00:03Z</time>
      </trkpt>
      <trkpt lat="49.26376" lon="2.38305">
        <ele>29</ele>
        <time>2018-09-09T12:00:40Z</time>
      </trkpt>
      <trkpt lat="49.26384" lon="2.3829">
        <ele>29</ele>
        <time>2018-09-09T12:00:41Z</time>
      </trkpt>
      <trkpt lat="49.26387" lon="2.38271">
        <ele>26</ele>
        <time>2018-09-09T12:00:43Z</time>
      </trkpt>
      <trkpt lat="49.26386" lon="2.38287">
        <ele>25</ele>
        <time>2018-09-09T12:00:54Z</time>
      </trkpt>
      <trkpt lat="49.26384" lon="2.38302">
        <ele>24</ele>
        <time>2018-09-09T12:01:01Z</time>
      </trkpt>
      <trkpt lat="49.26382" lon="2.38316">
        <ele>24</ele>
        <time>2018-09-09T12:01:13Z</time>
      </trkpt>
      <trkpt lat="49.26388" lon="2.38329">
        <ele>26</ele>
        <time>2018-09-09T12:02:13Z</time>
      </trkpt>
      <trkpt lat="49.26393" lon="2.38342">
        <ele>29</ele>
        <time>2018-09-09T12:02:37Z</time>
      </trkpt>
      <trkpt lat="49.26396" lon="2.38355">
        <ele>29</ele>
        <time>2018-09-09T12:02:47Z</time>
      </trkpt>
      <trkpt lat="49.26393" lon="2.38368">
        <ele>28</ele>
        <time>2018-09-09T12:02:54Z</time>
      </trkpt>
      <trkpt lat="49.26388" lon="2.3838">
        <ele>29</ele>
        <time>2018-09-09T12:03:04Z</time>
      </trkpt>
      <trkpt lat="49.26388" lon="2.38394">
        <ele>27</ele>
        <time>2018-09-09T12:03:16Z</time>
      </trkpt>
      <trkpt lat="49.26393" lon="2.38407">
        <ele>27</ele>
        <time>2018-09-09T12:03:26Z</time>
      </trkpt>
      <trkpt lat="49.26401" lon="2.38414">
        <ele>26</ele>
        <time>2018-09-09T12:03:41Z</time>
      </trkpt>
      <trkpt lat="49.26406" lon="2.38426">
        <ele>25</ele>
        <time>2018-09-09T12:03:47Z</time>
      </trkpt>
      <trkpt lat="49.26399" lon="2.38436">
        <ele>23</ele>
        <time>2018-09-09T12:03:55Z</time>
      </trkpt>
      <trkpt lat="49.2639" lon="2.3844">
        <ele>21</ele>
        <time>2018-09-09T12:04:01Z</time>
      </trkpt>
      <trkpt lat="49.26382" lon="2.38448">
        <ele>18</ele>
        <time>2018-09-09T12:04:12Z</time>
      </trkpt>
      <trkpt lat="49.26381" lon="2.38462">
        <ele>15</ele>
        <time>2018-09-09T12:04:21Z</time>
      </trkpt>
      <trkpt lat="49.26389" lon="2.3847">
        <ele>12</ele>
        <time>2018-09-09T12:04:37Z</time>
      </trkpt>
      <trkpt lat="49.26392" lon="2.38484">
        <ele>12</ele>
        <time>2018-09-09T12:04:49Z</time>
      </trkpt>
      <trkpt lat="49.264" lon="2.38492">
        <ele>11</ele>
        <time>2018-09-09T12:04:59Z</time>
      </trkpt>
      <trkpt lat="49.26408" lon="2.385">
        <ele>11</ele>
        <time>2018-09-09T12:05:14Z</time>
      </trkpt>
      <trkpt lat="49.26415" lon="2.38511">
        <ele>9</ele>
        <time>2018-09-09T12:05:23Z</time>
      </trkpt>
      <trkpt lat="49.2642" lon="2.38523">
        <ele>8</ele>
        <time>2018-09-09T12:05:28Z</time>
      </trkpt>
      <trkpt lat="49.26422" lon="2.38538">
        <ele>5</ele>
        <time>2018-09-09T12:05:36Z</time>
      </trkpt>
      <trkpt lat="49.26421" lon="2.38553">
        <ele>4</ele>
        <time>2018-09-09T12:05:42Z</time>
      </trkpt>
      <trkpt lat="49.26424" lon="2.38566">
        <ele>4</ele>
        <time>2018-09-09T12:05:55Z</time>
      </trkpt>
      <trkpt lat="49.26422" lon="2.38582">
        <ele>4</ele>
        <time>2018-09-09T12:06:01Z</time>
      </trkpt>
      <trkpt lat="49.26421" lon="2.38596">
        <ele>3</ele>
        <time>2018-09-09T12:06:08Z</time>
      </trkpt>
      <trkpt lat="49.26418" lon="2.38609">
        <ele>2</ele>
        <time>2018-09-09T12:06:22Z</time>
      </trkpt>
      <trkpt lat="49.26421" lon="2.38623">
        <ele>48</ele>
        <time>2018-09-09T12:06:32Z</time>
      </trkpt>
      <trkpt lat="49.26422" lon="2.38639">
        <ele>47</ele>
        <time>2018-09-09T12:06:38Z</time>
      </trkpt>
      <trkpt lat="49.2642" lon="2.38655">
        <ele>47</ele>
        <time>2018-09-09T12:06:44Z</time>
      </trkpt>
      <trkpt lat="49.26418" lon="2.3867">
        <ele>48</ele>
        <time>2018-09-09T12:06:49Z</time>
      </trkpt>
      <trkpt lat="49.26416" lon="2.38686">
        <ele>35</ele>
        <time>2018-09-09T12:06:56Z</time>
      </trkpt>
      <trkpt lat="49.26414" lon="2.387">
        <ele>2</ele>
        <time>2018-09-09T12:07:03Z</time>
      </trkpt>
      <trkpt lat="49.2641" lon="2.38715">
        <ele>5</ele>
        <time>2018-09-09T12:07:12Z</time>
      </trkpt>
      <trkpt lat="49.26406" lon="2.38727">
        <ele>8</ele>
        <time>2018-09-09T12:07:24Z</time>
      </trkpt>
      <trkpt lat="49.26402" lon="2.38741">
        <ele>8</ele>
        <time>2018-09-09T12:07:31Z</time>
      </trkpt>
      <trkpt lat="49.26397" lon="2.38753">
        <ele>9</ele>
        <time>2018-09-09T12:07:43Z</time>
      </trkpt>
      <trkpt lat="49.2639" lon="2.38764">
        <ele>5</ele>
        <time>2018-09-09T12:07:53Z</time>
      </trkpt>
      <trkpt lat="49.26387" lon="2.38778">
        <ele>4</ele>
        <time>2018-09-09T12:08:00Z</time>
      </trkpt>
      <trkpt lat="49.26385" lon="2.38792">
        <ele>34.3</ele>
        <time>2018-09-09T12:08:07Z</time>
      </trkpt>
      <trkpt lat="49.26389" lon="2.38806">
        <ele>47</ele>
        <time>2018-09-09T12:08:15Z</time>
      </trkpt>
      <trkpt lat="49.26393" lon="2.38819">
        <ele>46</ele>
        <time>2018-09-09T12:08:24Z</time>
      </trkpt>
      <trkpt lat="49.26392" lon="2.38833">
        <ele>46</ele>
        <time>2018-09-09T12:08:32Z</time>
      </trkpt>
      <trkpt lat="49.26391" lon="2.38847">
        <ele>44</ele>
        <time>2018-09-09T12:08:42Z</time>
      </trkpt>
      <trkpt lat="49.26387" lon="2.3886">
        <ele>42</ele>
        <time>2018-09-09T12:08:52Z</time>
      </trkpt>
      <trkpt lat="49.2638" lon="2.38873">
        <ele>41</ele>
        <time>2018-09-09T12:09:06Z</time>
      </trkpt>
      <trkpt lat="49.26373" lon="2.38883">
        <ele>40</ele>
        <time>2018-09-09T12:09:22Z</time>
      </trkpt>
      <trkpt lat="49.26364" lon="2.38888">
        <ele>40</ele>
        <time>2018-09-09T12:09:29Z</time>
      </trkpt>
      <trkpt lat="49.26355" lon="2.38887">
        <ele>40</ele>
        <time>2018-09-09T12:09:34Z</time>
      </trkpt>
      <trkpt lat="49.26344" lon="2.38881">
        <ele>42</ele>
        <time>2018-09-09T12:09:40Z</time>
      </trkpt>
      <trkpt lat="49.26333" lon="2.38881">
        <ele>43</ele>
        <time>2018-09-09T12:09:44Z</time>
      </trkpt>
      <trkpt lat="49.26324" lon="2.38886">
        <ele>47</ele>
        <time>2018-09-09T12:09:55Z</time>
      </trkpt>
      <trkpt lat="49.26317" lon="2.38896">
        <ele>47</ele>
        <time>2018-09-09T12:10:07Z</time>
      </trkpt>
      <trkpt lat="49.26313" lon="2.3891">
        <ele>47</ele>
        <time>2018-09-09T12:10:13Z</time>
      </trkpt>
      <trkpt lat="49.26308" lon="2.38923">
        <ele>46</ele>
        <time>2018-09-09T12:10:19Z</time>
      </trkpt>
      <trkpt lat="49.26303" lon="2.38936">
        <ele>45</ele>
        <time>2018-09-09T12:10:26Z</time>
      </trkpt>
      <trkpt lat="49.26302" lon="2.3895">
        <ele>45</ele>
        <time>2018-09-09T12:10:32Z</time>
      </trkpt>
      <trkpt lat="49.26299" lon="2.38963">
        <ele>45</ele>
        <time>2018-09-09T12:10:39Z</time>
      </trkpt>
      <trkpt lat="49.26297" lon="2.38977">
        <ele>47</ele>
        <time>2018-09-09T12:10:45Z</time>
      </trkpt>
      <trkpt lat="49.26294" lon="2.38992">
        <ele>50</ele>
        <time>2018-09-09T12:10:53Z</time>
      </trkpt>
      <trkpt lat="49.26294" lon="2.39006">
        <ele>4</ele>
        <time>2018-09-09T12:11:04Z</time>
      </trkpt>
      <trkpt lat="49.26292" lon="2.3902">
        <ele>6</ele>
        <time>2018-09-09T12:11:14Z</time>
      </trkpt>
      <trkpt lat="49.26289" lon="2.39035">
        <ele>7</ele>
        <time>2018-09-09T12:11:21Z</time>
      </trkpt>
      <trkpt lat="49.26286" lon="2.39049">
        <ele>9</ele>
        <time>2018-09-09T12:11:27Z</time>
      </trkpt>
      <trkpt lat="49.26284" lon="2.39064">
        <ele>10</ele>
        <time>2018-09-09T12:11:35Z</time>
      </trkpt>
      <trkpt lat="49.2628" lon="2.39076">
        <ele>11</ele>
        <time>2018-09-09T12:11:42Z</time>
      </trkpt>
      <trkpt lat="49.26277" lon="2.39089">
        <ele>13</ele>
        <time>2018-09-09T12:11:51Z</time>
      </trkpt>
      <trkpt lat="49.26271" lon="2.39101">
        <ele>14</ele>
        <time>2018-09-09T12:11:59Z</time>
      </trkpt>
      <trkpt lat="49.26265" lon="2.39111">
        <ele>15</ele>
        <time>2018-09-09T12:12:07Z</time>
      </trkpt>
      <trkpt lat="49.26261" lon="2.39124">
        <ele>16</ele>
        <time>2018-09-09T12:12:16Z</time>
      </trkpt>
      <trkpt lat="49.26261" lon="2.39138">
        <ele>17</ele>
        <time>2018-09-09T12:12:24Z</time>
      </trkpt>
      <trkpt lat="49.26259" lon="2.39153">
        <ele>17</ele>
        <time>2018-09-09T12:12:31Z</time>
      </trkpt>
      <trkpt lat="49.26257" lon="2.39168">
        <ele>17</ele>
        <time>2018-09-09T12:12:39Z</time>
      </trkpt>
      <trkpt lat="49.26256" lon="2.39182">
        <ele>18</ele>
        <time>2018-09-09T12:12:45Z</time>
      </trkpt>
      <trkpt lat="49.26257" lon="2.39196">
        <ele>18</ele>
        <time>2018-09-09T12:12:55Z</time>
      </trkpt>
      <trkpt lat="49.26256" lon="2.39212">
        <ele>18</ele>
        <time>2018-09-09T12:13:01Z</time>
      </trkpt>
      <trkpt lat="49.26255" lon="2.39227">
        <ele>18</ele>
        <time>2018-09-09T12:13:08Z</time>
      </trkpt>
      <trkpt lat="49.26254" lon="2.39241">
        <ele>18</ele>
        <time>2018-09-09T12:13:16Z</time>
      </trkpt>
      <trkpt lat="49.26253" lon="2.39257">
        <ele>17</ele>
        <time>2018-09-09T12:13:24Z</time>
      </trkpt>
      <trkpt lat="49.26251" lon="2.39271">
        <ele>17</ele>
        <time>2018-09-09T12:13:31Z</time>
      </trkpt>
      <trkpt lat="49.26252" lon="2.39286">
        <ele>17</ele>
        <time>2018-09-09T12:13:39Z</time>
      </trkpt>
      <trkpt lat="49.2625" lon="2.39299">
        <ele>16</ele>
        <time>2018-09-09T12:13:46Z</time>
      </trkpt>
      <trkpt lat="49.26249" lon="2.39313">
        <ele>16</ele>
        <time>2018-09-09T12:13:52Z</time>
      </trkpt>
      <trkpt lat="49.26248" lon="2.39327">
        <ele>16</ele>
        <time>2018-09-09T12:13:59Z</time>
      </trkpt>
      <trkpt lat="49.26247" lon="2.39341">
        <ele>16</ele>
        <time>2018-09-09T12:14:06Z</time>
      </trkpt>
      <trkpt lat="49.26247" lon="2.39356">
        <ele>17</ele>
        <time>2018-09-09T12:14:14Z</time>
      </trkpt>
      <trkpt lat="49.26252" lon="2.39369">
        <ele>17</ele>
        <time>2018-09-09T12:14:22Z</time>
      </trkpt>
      <trkpt lat="49.26255" lon="2.39383">
        <ele>18</ele>
        <time>2018-09-09T12:14:28Z</time>
      </trkpt>
      <trkpt lat="49.26257" lon="2.39397">
        <ele>20</ele>
        <time>2018-09-09T12:14:34Z</time>
      </trkpt>
      <trkpt lat="49.26261" lon="2.39411">
        <ele>22</ele>
        <time>2018-09-09T12:14:42Z</time>
      </trkpt>
      <trkpt lat="49.26267" lon="2.39422">
        <ele>23</ele>
        <time>2018-09-09T12:14:49Z</time>
      </trkpt>
      <trkpt lat="49.26273" lon="2.39434">
        <ele>23</ele>
        <time>2018-09-09T12:14:57Z</time>
      </trkpt>
      <trkpt lat="49.26278" lon="2.39447">
        <ele>24</ele>
        <time>2018-09-09T12:15:05Z</time>
      </trkpt>
      <trkpt lat="49.26284" lon="2.39459">
        <ele>24</ele>
        <time>2018-09-09T12:15:14Z</time>
      </trkpt>
      <trkpt lat="49.26286" lon="2.39474">
        <ele>24</ele>
        <time>2018-09-09T12:15:21Z</time>
      </trkpt>
      <trkpt lat="49.26287" lon="2.39489">
        <ele>24</ele>
        <time>2018-09-09T12:15:29Z</time>
      </trkpt>
      <trkpt lat="49.26287" lon="2.39503">
        <ele>23</ele>
        <time>2018-09-09T12:15:36Z</time>
      </trkpt>
      <trkpt lat="49.26287" lon="2.39518">
        <ele>23</ele>
        <time>2018-09-09T12:15:44Z</time>
      </trkpt>
      <trkpt lat="49.26288" lon="2.39532">
        <ele>22</ele>
        <time>2018-09-09T12:15:51Z</time>
      </trkpt>
      <trkpt lat="49.26287" lon="2.39546">
        <ele>22</ele>
        <time>2018-09-09T12:16:00Z</time>
      </trkpt>
      <trkpt lat="49.26287" lon="2.3956">
        <ele>23</ele>
        <time>2018-09-09T12:17:23Z</time>
      </trkpt>
      <trkpt lat="49.26283" lon="2.39574">
        <ele>22</ele>
        <time>2018-09-09T12:17:31Z</time>
      </trkpt>
      <trkpt lat="49.26275" lon="2.39583">
        <ele>22</ele>
        <time>2018-09-09T12:17:39Z</time>
      </trkpt>
      <trkpt lat="49.26266" lon="2.39588">
        <ele>22</ele>
        <time>2018-09-09T12:17:45Z</time>
      </trkpt>
      <trkpt lat="49.26257" lon="2.39591">
        <ele>22</ele>
        <time>2018-09-09T12:17:51Z</time>
      </trkpt>
      <trkpt lat="49.26247" lon="2.39594">
        <ele>23</ele>
        <time>2018-09-09T12:17:59Z</time>
      </trkpt>
      <trkpt lat="49.26239" lon="2.3959">
        <ele>23</ele>
        <time>2018-09-09T12:18:06Z</time>
      </trkpt>
      <trkpt lat="49.26229" lon="2.39588">
        <ele>23</ele>
        <time>2018-09-09T12:18:13Z</time>
      </trkpt>
      <trkpt lat="49.26222" lon="2.39579">
        <ele>22</ele>
        <time>2018-09-09T12:19:04Z</time>
      </trkpt>
      <trkpt lat="49.26214" lon="2.39572">
        <ele>23</ele>
        <time>2018-09-09T12:19:12Z</time>
      </trkpt>
      <trkpt lat="49.26206" lon="2.39565">
        <ele>23</ele>
        <time>2018-09-09T12:19:19Z</time>
      </trkpt>
      <trkpt lat="49.26197" lon="2.39559">
        <ele>23</ele>
        <time>2018-09-09T12:19:27Z</time>
      </trkpt>
      <trkpt lat="49.26188" lon="2.39552">
        <ele>23</ele>
        <time>2018-09-09T12:19:36Z</time>
      </trkpt>
      <trkpt lat="49.26179" lon="2.39546">
        <ele>23</ele>
        <time>2018-09-09T12:19:43Z</time>
      </trkpt>
      <trkpt lat="49.26172" lon="2.39539">
        <ele>24</ele>
        <time>2018-09-09T12:19:50Z</time>
      </trkpt>
      <trkpt lat="49.26164" lon="2.3953">
        <ele>24</ele>
        <time>2018-09-09T12:19:58Z</time>
      </trkpt>
      <trkpt lat="49.26156" lon="2.39522">
        <ele>24</ele>
        <time>2018-09-09T12:20:07Z</time>
      </trkpt>
      <trkpt lat="49.26147" lon="2.39515">
        <ele>24</ele>
        <time>2018-09-09T12:20:15Z</time>
      </trkpt>
      <trkpt lat="49.26138" lon="2.39506">
        <ele>24</ele>
        <time>2018-09-09T12:20:22Z</time>
      </trkpt>
      <trkpt lat="49.2613" lon="2.39501">
        <ele>25</ele>
        <time>2018-09-09T12:20:31Z</time>
      </trkpt>
      <trkpt lat="49.2612" lon="2.39494">
        <ele>26</ele>
        <time>2018-09-09T12:20:39Z</time>
      </trkpt>
      <trkpt lat="49.26114" lon="2.39484">
        <ele>27</ele>
        <time>2018-09-09T12:20:46Z</time>
      </trkpt>
      <trkpt lat="49.26114" lon="2.39469">
        <ele>27</ele>
        <time>2018-09-09T12:20:53Z</time>
      </trkpt>
      <trkpt lat="49.26118" lon="2.39456">
        <ele>26</ele>
        <time>2018-09-09T12:21:00Z</time>
      </trkpt>
      <trkpt lat="49.26124" lon="2.39444">
        <ele>26</ele>
        <time>2018-09-09T12:21:08Z</time>
      </trkpt>
      <trkpt lat="49.26128" lon="2.3943">
        <ele>25</ele>
        <time>2018-09-09T12:21:16Z</time>
      </trkpt>
      <trkpt lat="49.26132" lon="2.39417">
        <ele>25</ele>
        <time>2018-09-09T12:21:23Z</time>
      </trkpt>
      <trkpt lat="49.26136" lon="2.39405">
        <ele>25</ele>
        <time>2018-09-09T12:21:32Z</time>
      </trkpt>
      <trkpt lat="49.26138" lon="2.39391">
        <ele>25</ele>
        <time>2018-09-09T12:21:40Z</time>
      </trkpt>
      <trkpt lat="49.26139" lon="2.39376">
        <ele>25</ele>
        <time>2018-09-09T12:21:47Z</time>
      </trkpt>
      <trkpt lat="49.26141" lon="2.39361">
        <ele>25</ele>
        <time>2018-09-09T12:21:55Z</time>
      </trkpt>
      <trkpt lat="49.26143" lon="2.39347">
        <ele>26</ele>
        <time>2018-09-09T12:22:02Z</time>
      </trkpt>
      <trkpt lat="49.26146" lon="2.39333">
        <ele>26</ele>
        <time>2018-09-09T12:22:09Z</time>
      </trkpt>
      <trkpt lat="49.26148" lon="2.39318">
        <ele>26</ele>
        <time>2018-09-09T12:22:17Z</time>
      </trkpt>
      <trkpt lat="49.2615" lon="2.39304">
        <ele>26</ele>
        <time>2018-09-09T12:22:25Z</time>
      </trkpt>
      <trkpt lat="49.26153" lon="2.39289">
        <ele>27</ele>
        <time>2018-09-09T12:22:33Z</time>
      </trkpt>
      <trkpt lat="49.26154" lon="2.39275">
        <ele>27</ele>
        <time>2018-09-09T12:22:41Z</time>
      </trkpt>
      <trkpt lat="49.26155" lon="2.39259">
        <ele>27</ele>
        <time>2018-09-09T12:22:49Z</time>
      </trkpt>
      <trkpt lat="49.26155" lon="2.39245">
        <ele>27</ele>
        <time>2018-09-09T12:22:55Z</time>
      </trkpt>
      <trkpt lat="49.26154" lon="2.39229">
        <ele>27</ele>
        <time>2018-09-09T12:23:03Z</time>
      </trkpt>
      <trkpt lat="49.26156" lon="2.39216">
        <ele>27</ele>
        <time>2018-09-09T12:23:10Z</time>
      </trkpt>
      <trkpt lat="49.26158" lon="2.39202">
        <ele>27</ele>
        <time>2018-09-09T12:23:18Z</time>
      </trkpt>
      <trkpt lat="49.26159" lon="2.39188">
        <ele>27</ele>
        <time>2018-09-09T12:23:26Z</time>
      </trkpt>
      <trkpt lat="49.26161" lon="2.39174">
        <ele>27</ele>
        <time>2018-09-09T12:23:35Z</time>
      </trkpt>
      <trkpt lat="49.26162" lon="2.3916">
        <ele>28</ele>
        <time>2018-09-09T12:23:43Z</time>
      </trkpt>
      <trkpt lat="49.26163" lon="2.39144">
        <ele>28</ele>
        <time>2018-09-09T12:23:49Z</time>
      </trkpt>
      <trkpt lat="49.26163" lon="2.39129">
        <ele>28</ele>
        <time>2018-09-09T12:23:55Z</time>
      </trkpt>
      <trkpt lat="49.26163" lon="2.39115">
        <ele>28</ele>
        <time>2018-09-09T12:24:01Z</time>
      </trkpt>
      <trkpt lat="49.26163" lon="2.391">
        <ele>28</ele>
        <time>2018-09-09T12:24:09Z</time>
      </trkpt>
      <trkpt lat="49.26165" lon="2.39085">
        <ele>28</ele>
        <time>2018-09-09T12:24:17Z</time>
      </trkpt>
      <trkpt lat="49.26165" lon="2.39071">
        <ele>28</ele>
        <time>2018-09-09T12:24:24Z</time>
      </trkpt>
      <trkpt lat="49.26167" lon="2.39058">
        <ele>27</ele>
        <time>2018-09-09T12:24:31Z</time>
      </trkpt>
      <trkpt lat="49.26168" lon="2.39044">
        <ele>27</ele>
        <time>2018-09-09T12:24:39Z</time>
      </trkpt>
      <trkpt lat="49.26166" lon="2.39029">
        <ele>27</ele>
        <time>2018-09-09T12:24:46Z</time>
      </trkpt>
      <trkpt lat="49.26166" lon="2.39013">
        <ele>26</ele>
        <time>2018-09-09T12:24:53Z</time>
      </trkpt>
      <trkpt lat="49.26168" lon="2.38998">
        <ele>26</ele>
        <time>2018-09-09T12:25:01Z</time>
      </trkpt>
      <trkpt lat="49.26167" lon="2.38983">
        <ele>26</ele>
        <time>2018-09-09T12:25:08Z</time>
      </trkpt>
      <trkpt lat="49.26167" lon="2.38969">
        <ele>27</ele>
        <time>2018-09-09T12:25:15Z</time>
      </trkpt>
      <trkpt lat="49.26167" lon="2.38954">
        <ele>27</ele>
        <time>2018-09-09T12:25:23Z</time>
      </trkpt>
      <trkpt lat="49.26168" lon="2.3894">
        <ele>28</ele>
        <time>2018-09-09T12:25:32Z</time>
      </trkpt>
      <trkpt lat="49.26168" lon="2.38924">
        <ele>28</ele>
        <time>2018-09-09T12:25:39Z</time>
      </trkpt>
      <trkpt lat="49.26167" lon="2.3891">
        <ele>28</ele>
        <time>2018-09-09T12:25:47Z</time>
      </trkpt>
      <trkpt lat="49.26167" lon="2.38895">
        <ele>28</ele>
        <time>2018-09-09T12:25:55Z</time>
      </trkpt>
      <trkpt lat="49.26167" lon="2.3888">
        <ele>28</ele>
        <time>2018-09-09T12:26:02Z</time>
      </trkpt>
      <trkpt lat="49.26168" lon="2.38864">
        <ele>29</ele>
        <time>2018-09-09T12:26:10Z</time>
      </trkpt>
      <trkpt lat="49.2617" lon="2.38849">
        <ele>29</ele>
        <time>2018-09-09T12:26:17Z</time>
      </trkpt>
      <trkpt lat="49.26171" lon="2.38835">
        <ele>28</ele>
        <time>2018-09-09T12:26:25Z</time>
      </trkpt>
      <trkpt lat="49.26171" lon="2.38821">
        <ele>28</ele>
        <time>2018-09-09T12:26:31Z</time>
      </trkpt>
      <trkpt lat="49.26172" lon="2.38806">
        <ele>28</ele>
        <time>2018-09-09T12:26:38Z</time>
      </trkpt>
      <trkpt lat="49.26171" lon="2.3879">
        <ele>28</ele>
        <time>2018-09-09T12:26:47Z</time>
      </trkpt>
      <trkpt lat="49.26175" lon="2.38778">
        <ele>27</ele>
        <time>2018-09-09T12:26:55Z</time>
      </trkpt>
      <trkpt lat="49.26174" lon="2.38762">
        <ele>27</ele>
        <time>2018-09-09T12:27:04Z</time>
      </trkpt>
      <trkpt lat="49.26174" lon="2.38748">
        <ele>27</ele>
        <time>2018-09-09T12:27:12Z</time>
      </trkpt>
      <trkpt lat="49.26173" lon="2.38733">
        <ele>27</ele>
        <time>2018-09-09T12:27:19Z</time>
      </trkpt>
      <trkpt lat="49.26174" lon="2.38719">
        <ele>26</ele>
        <time>2018-09-09T12:27:27Z</time>
      </trkpt>
      <trkpt lat="49.26173" lon="2.38703">
        <ele>26</ele>
        <time>2018-09-09T12:27:35Z</time>
      </trkpt>
      <trkpt lat="49.26176" lon="2.38689">
        <ele>26</ele>
        <time>2018-09-09T12:27:44Z</time>
      </trkpt>
      <trkpt lat="49.26175" lon="2.38674">
        <ele>25</ele>
        <time>2018-09-09T12:27:52Z</time>
      </trkpt>
      <trkpt lat="49.26174" lon="2.3866">
        <ele>25</ele>
        <time>2018-09-09T12:27:58Z</time>
      </trkpt>
      <trkpt lat="49.26175" lon="2.38646">
        <ele>25</ele>
        <time>2018-09-09T12:28:04Z</time>
      </trkpt>
      <trkpt lat="49.26176" lon="2.38632">
        <ele>25</ele>
        <time>2018-09-09T12:28:11Z</time>
      </trkpt>
      <trkpt lat="49.26174" lon="2.38618">
        <ele>26</ele>
        <time>2018-09-09T12:28:17Z</time>
      </trkpt>
      <trkpt lat="49.26174" lon="2.38603">
        <ele>26</ele>
        <time>2018-09-09T12:28:22Z</time>
      </trkpt>
      <trkpt lat="49.26176" lon="2.3859">
        <ele>27</ele>
        <time>2018-09-09T12:28:32Z</time>
      </trkpt>
      <trkpt lat="49.26176" lon="2.38575">
        <ele>27</ele>
        <time>2018-09-09T12:28:42Z</time>
      </trkpt>
      <trkpt lat="49.26177" lon="2.3856">
        <ele>26</ele>
        <time>2018-09-09T12:28:49Z</time>
      </trkpt>
      <trkpt lat="49.26178" lon="2.38545">
        <ele>26</ele>
        <time>2018-09-09T12:28:56Z</time>
      </trkpt>
      <trkpt lat="49.2618" lon="2.3853">
        <ele>26</ele>
        <time>2018-09-09T12:29:04Z</time>
      </trkpt>
      <trkpt lat="49.26182" lon="2.38516">
        <ele>26</ele>
        <time>2018-09-09T12:29:12Z</time>
      </trkpt>
      <trkpt lat="49.26183" lon="2.38501">
        <ele>27</ele>
        <time>2018-09-09T12:29:19Z</time>
      </trkpt>
      <trkpt lat="49.26181" lon="2.38486">
        <ele>27</ele>
        <time>2018-09-09T12:29:28Z</time>
      </trkpt>
      <trkpt lat="49.26181" lon="2.38472">
        <ele>27</ele>
        <time>2018-09-09T12:29:34Z</time>
      </trkpt>
      <trkpt lat="49.26179" lon="2.38458">
        <ele>26</ele>
        <time>2018-09-09T12:29:42Z</time>
      </trkpt>
      <trkpt lat="49.26181" lon="2.38444">
        <ele>26</ele>
        <time>2018-09-09T12:29:50Z</time>
      </trkpt>
      <trkpt lat="49.26183" lon="2.3843">
        <ele>26</ele>
        <time>2018-09-09T12:29:58Z</time>
      </trkpt>
      <trkpt lat="49.26183" lon="2.38415">
        <ele>26</ele>
        <time>2018-09-09T12:30:08Z</time>
      </trkpt>
      <trkpt lat="49.26179" lon="2.38402">
        <ele>26</ele>
        <time>2018-09-09T12:30:34Z</time>
      </trkpt>
      <trkpt lat="49.26181" lon="2.38387">
        <ele>25</ele>
        <time>2018-09-09T12:30:42Z</time>
      </trkpt>
      <trkpt lat="49.2618" lon="2.38373">
        <ele>25</ele>
        <time>2018-09-09T12:30:50Z</time>
      </trkpt>
      <trkpt lat="49.26182" lon="2.38358">
        <ele>25</ele>
        <time>2018-09-09T12:30:57Z</time>
      </trkpt>
      <trkpt lat="49.26186" lon="2.38344">
        <ele>26</ele>
        <time>2018-09-09T12:31:04Z</time>
      </trkpt>
      <trkpt lat="49.26186" lon="2.3833">
        <ele>26</ele>
        <time>2018-09-09T12:31:13Z</time>
      </trkpt>
      <trkpt lat="49.26186" lon="2.38315">
        <ele>26</ele>
        <time>2018-09-09T12:31:23Z</time>
      </trkpt>
      <trkpt lat="49.26187" lon="2.38301">
        <ele>26</ele>
        <time>2018-09-09T12:31:31Z</time>
      </trkpt>
      <trkpt lat="49.26187" lon="2.38287">
        <ele>26</ele>
        <time>2018-09-09T12:31:38Z</time>
      </trkpt>
      <trkpt lat="49.26188" lon="2.38272">
        <ele>26</ele>
        <time>2018-09-09T12:31:48Z</time>
      </trkpt>
      <trkpt lat="49.26188" lon="2.38256">
        <ele>27</ele>
        <time>2018-09-09T12:31:56Z</time>
      </trkpt>
      <trkpt lat="49.26188" lon="2.38242">
        <ele>27</ele>
        <time>2018-09-09T12:32:03Z</time>
      </trkpt>
      <trkpt lat="49.26187" lon="2.38228">
        <ele>27</ele>
        <time>2018-09-09T12:32:11Z</time>
      </trkpt>
      <trkpt lat="49.26187" lon="2.38212">
        <ele>26</ele>
        <time>2018-09-09T12:32:18Z</time>
      </trkpt>
      <trkpt lat="49.26187" lon="2.38199">
        <ele>26</ele>
        <time>2018-09-09T12:32:24Z</time>
      </trkpt>
      <trkpt lat="49.26186" lon="2.38183">
        <ele>27</ele>
        <time>2018-09-09T12:32:31Z</time>
      </trkpt>
      <trkpt lat="49.26187" lon="2.38168">
        <ele>27</ele>
        <time>2018-09-09T12:32:37Z</time>
      </trkpt>
      <trkpt lat="49.26191" lon="2.38155">
        <ele>27</ele>
        <time>2018-09-09T12:32:43Z</time>
      </trkpt>
      <trkpt lat="49.26195" lon="2.38142">
        <ele>27</ele>
        <time>2018-09-09T12:32:50Z</time>
      </trkpt>
      <trkpt lat="49.26203" lon="2.38131">
        <ele>28</ele>
        <time>2018-09-09T12:32:58Z</time>
      </trkpt>
      <trkpt lat="49.26209" lon="2.3812">
        <ele>29</ele>
        <time>2018-09-09T12:33:05Z</time>
      </trkpt>
      <trkpt lat="49.26217" lon="2.38112">
        <ele>29</ele>
        <time>2018-09-09T12:33:13Z</time>
      </trkpt>
      <trkpt lat="49.26224" lon="2.38103">
        <ele>29</ele>
        <time>2018-09-09T12:33:20Z</time>
      </trkpt>
      <trkpt lat="49.26231" lon="2.38092">
        <ele>29</ele>
        <time>2018-09-09T12:33:28Z</time>
      </trkpt>
      <trkpt lat="49.2624" lon="2.38087">
        <ele>30</ele>
        <time>2018-09-09T12:33:36Z</time>
      </trkpt>
      <trkpt lat="49.2625" lon="2.38085">
        <ele>31</ele>
        <time>2018-09-09T12:33:45Z</time>
      </trkpt>
      <trkpt lat="49.26259" lon="2.38083">
        <ele>31</ele>
        <time>2018-09-09T12:33:51Z</time>
      </trkpt>
      <trkpt lat="49.26259" lon="2.38069">
        <ele>29</ele>
        <time>2018-09-09T12:34:17Z</time>
      </trkpt>
      <trkpt lat="49.26255" lon="2.38055">
        <ele>29</ele>
        <time>2018-09-09T12:34:27Z</time>
      </trkpt>
      <trkpt lat="49.26251" lon="2.38042">
        <ele>28</ele>
        <time>2018-09-09T12:34:35Z</time>
      </trkpt>
      <trkpt lat="49.26244" lon="2.38031">
        <ele>28</ele>
        <time>2018-09-09T12:34:44Z</time>
      </trkpt>
      <trkpt lat="49.26237" lon="2.38019">
        <ele>28</ele>
        <time>2018-09-09T12:34:51Z</time>
      </trkpt>
      <trkpt lat="49.26232" lon="2.38006">
        <ele>29</ele>
        <time>2018-09-09T12:35:03Z</time>
      </trkpt>
      <trkpt lat="49.26229" lon="2.37992">
        <ele>29</ele>
        <time>2018-09-09T12:35:10Z</time>
      </trkpt>
      <trkpt lat="49.26225" lon="2.37978">
        <ele>29</ele>
        <time>2018-09-09T12:35:16Z</time>
      </trkpt>
      <trkpt lat="49.2622" lon="2.37964">
        <ele>29</ele>
        <time>2018-09-09T12:35:23Z</time>
      </trkpt>
      <trkpt lat="49.26217" lon="2.3795">
        <ele>29</ele>
        <time>2018-09-09T12:35:31Z</time>
      </trkpt>
      <trkpt lat="49.26217" lon="2.37936">
        <ele>29</ele>
        <time>2018-09-09T12:35:38Z</time>
      </trkpt>
      <trkpt lat="49.26215" lon="2.37922">
        <ele>28</ele>
        <time>2018-09-09T12:35:47Z</time>
      </trkpt>
      <trkpt lat="49.26212" lon="2.37908">
        <ele>28</ele>
        <time>2018-09-09T12:35:54Z</time>
      </trkpt>
      <trkpt lat="49.26213" lon="2.37892">
        <ele>28</ele>
        <time>2018-09-09T12:36:02Z</time>
      </trkpt>
      <trkpt lat="49.26213" lon="2.37878">
        <ele>27</ele>
        <time>2018-09-09T12:36:10Z</time>
      </trkpt>
      <trkpt lat="49.26211" lon="2.37864">
        <ele>27</ele>
        <time>2018-09-09T12:36:19Z</time>
      </trkpt>
      <trkpt lat="49.26212" lon="2.3785">
        <ele>27</ele>
        <time>2018-09-09T12:36:27Z</time>
      </trkpt>
      <trkpt lat="49.26211" lon="2.37835">
        <ele>27</ele>
        <time>2018-09-09T12:36:35Z</time>
      </trkpt>
      <trkpt lat="49.26211" lon="2.37821">
        <ele>26</ele>
        <time>2018-09-09T12:36:49Z</time>
      </trkpt>
      <trkpt lat="49.26203" lon="2.37815">
        <ele>25</ele>
        <time>2018-09-09T12:37:05Z</time>
      </trkpt>
      <trkpt lat="49.26193" lon="2.37817">
        <ele>25</ele>
        <time>2018-09-09T12:37:15Z</time>
      </trkpt>
      <trkpt lat="49.26184" lon="2.37817">
        <ele>25</ele>
        <time>2018-09-09T12:37:25Z</time>
      </trkpt>
      <trkpt lat="49.26175" lon="2.37814">
        <ele>25</ele>
        <time>2018-09-09T12:37:34Z</time>
      </trkpt>
      <trkpt lat="49.26166" lon="2.3781">
        <ele>26</ele>
        <time>2018-09-09T12:37:41Z</time>
      </trkpt>
      <trkpt lat="49.26156" lon="2.37808">
        <ele>26</ele>
        <time>2018-09-09T12:37:51Z</time>
      </trkpt>
      <trkpt lat="49.26146" lon="2.37807">
        <ele>26</ele>
        <time>2018-09-09T12:37:59Z</time>
      </trkpt>
      <trkpt lat="49.26137" lon="2.3781">
        <ele>26</ele>
        <time>2018-09-09T12:38:07Z</time>
      </trkpt>
      <trkpt lat="49.26128" lon="2.37814">
        <ele>27</ele>
        <time>2018-09-09T12:38:15Z</time>
      </trkpt>
      <trkpt lat="49.26119" lon="2.37819">
        <ele>27</ele>
        <time>2018-09-09T12:38:23Z</time>
      </trkpt>
      <trkpt lat="49.26111" lon="2.37825">
        <ele>27</ele>
        <time>2018-09-09T12:38:31Z</time>
      </trkpt>
      <trkpt lat="49.26103" lon="2.37833">
        <ele>28</ele>
        <time>2018-09-09T12:38:38Z</time>
      </trkpt>
      <trkpt lat="49.26094" lon="2.37842">
        <ele>28</ele>
        <time>2018-09-09T12:38:46Z</time>
      </trkpt>
      <trkpt lat="49.26087" lon="2.3785">
        <ele>28</ele>
        <time>2018-09-09T12:38:53Z</time>
      </trkpt>
      <trkpt lat="49.26078" lon="2.37854">
        <ele>28</ele>
        <time>2018-09-09T12:39:01Z</time>
      </trkpt>
      <trkpt lat="49.26068" lon="2.37852">
        <ele>27</ele>
        <time>2018-09-09T12:39:10Z</time>
      </trkpt>
      <trkpt lat="49.26059" lon="2.37849">
        <ele>27</ele>
        <time>2018-09-09T12:39:19Z</time>
      </trkpt>
      <trkpt lat="49.26054" lon="2.37836">
        <ele>27</ele>
        <time>2018-09-09T12:40:06Z</time>
      </trkpt>
      <trkpt lat="49.26057" lon="2.37821">
        <ele>27</ele>
        <time>2018-09-09T12:40:15Z</time>
      </trkpt>
      <trkpt lat="49.26063" lon="2.37809">
        <ele>27</ele>
        <time>2018-09-09T12:40:23Z</time>
      </trkpt>
      <trkpt lat="49.26067" lon="2.37797">
        <ele>27</ele>
        <time>2018-09-09T12:40:30Z</time>
      </trkpt>
      <trkpt lat="49.26071" lon="2.37784">
        <ele>27</ele>
        <time>2018-09-09T12:40:38Z</time>
      </trkpt>
      <trkpt lat="49.26075" lon="2.37771">
        <ele>27</ele>
        <time>2018-09-09T12:40:47Z</time>
      </trkpt>
      <trkpt lat="49.2608" lon="2.37759">
        <ele>27</ele>
        <time>2018-09-09T12:40:57Z</time>
      </trkpt>
      <trkpt lat="49.26084" lon="2.37746">
        <ele>27</ele>
        <time>2018-09-09T12:41:04Z</time>
      </trkpt>
      <trkpt lat="49.26087" lon="2.37732">
        <ele>27</ele>
        <time>2018-09-09T12:41:11Z</time>
      </trkpt>
      <trkpt lat="49.26092" lon="2.37719">
        <ele>28</ele>
        <time>2018-09-09T12:41:19Z</time>
      </trkpt>
      <trkpt lat="49.261" lon="2.3771">
        <ele>29</ele>
        <time>2018-09-09T12:41:28Z</time>
      </trkpt>
      <trkpt lat="49.26103" lon="2.37697">
        <ele>29</ele>
        <time>2018-09-09T12:41:36Z</time>
      </trkpt>
      <trkpt lat="49.26102" lon="2.37682">
        <ele>28</ele>
        <time>2018-09-09T12:41:44Z</time>
      </trkpt>
      <trkpt lat="49.26101" lon="2.37667">
        <ele>28</ele>
        <time>2018-09-09T12:41:52Z</time>
      </trkpt>
      <trkpt lat="49.26099" lon="2.37652">
        <ele>28</ele>
        <time>2018-09-09T12:42:00Z</time>
      </trkpt>
      <trkpt lat="49.26098" lon="2.37638">
        <ele>27</ele>
        <time>2018-09-09T12:42:08Z</time>
      </trkpt>
      <trkpt lat="49.26099" lon="2.37622">
        <ele>27</ele>
        <time>2018-09-09T12:42:16Z</time>
      </trkpt>
      <trkpt lat="49.26094" lon="2.37609">
        <ele>27</ele>
        <time>2018-09-09T12:42:23Z</time>
      </trkpt>
      <trkpt lat="49.26089" lon="2.37598">
        <ele>27</ele>
        <time>2018-09-09T12:42:30Z</time>
      </trkpt>
      <trkpt lat="49.26084" lon="2.37584">
        <ele>27</ele>
        <time>2018-09-09T12:42:37Z</time>
      </trkpt>
      <trkpt lat="49.26079" lon="2.3757">
        <ele>27</ele>
        <time>2018-09-09T12:42:45Z</time>
      </trkpt>
      <trkpt lat="49.26074" lon="2.37558">
        <ele>27</ele>
        <time>2018-09-09T12:42:52Z</time>
      </trkpt>
      <trkpt lat="49.26068" lon="2.37546">
        <ele>27</ele>
        <time>2018-09-09T12:42:59Z</time>
      </trkpt>
      <trkpt lat="49.26063" lon="2.37533">
        <ele>27</ele>
        <time>2018-09-09T12:43:07Z</time>
      </trkpt>
      <trkpt lat="49.26057" lon="2.37522">
        <ele>28</ele>
        <time>2018-09-09T12:43:14Z</time>
      </trkpt>
      <trkpt lat="49.26051" lon="2.37511">
        <ele>28</ele>
        <time>2018-09-09T12:43:22Z</time>
      </trkpt>
      <trkpt lat="49.26044" lon="2.375">
        <ele>29</ele>
        <time>2018-09-09T12:43:29Z</time>
      </trkpt>
      <trkpt lat="49.26036" lon="2.37492">
        <ele>29</ele>
        <time>2018-09-09T12:43:36Z</time>
      </trkpt>
      <trkpt lat="49.2603" lon="2.37479">
        <ele>30</ele>
        <time>2018-09-09T12:43:43Z</time>
      </trkpt>
      <trkpt lat="49.26029" lon="2.37464">
        <ele>30</ele>
        <time>2018-09-09T12:43:50Z</time>
      </trkpt>
      <trkpt lat="49.26029" lon="2.37449">
        <ele>31</ele>
        <time>2018-09-09T12:43:57Z</time>
      </trkpt>
      <trkpt lat="49.2603" lon="2.37434">
        <ele>31</ele>
        <time>2018-09-09T12:44:04Z</time>
      </trkpt>
      <trkpt lat="49.2603" lon="2.3742">
        <ele>30</ele>
        <time>2018-09-09T12:44:10Z</time>
      </trkpt>
      <trkpt lat="49.26028" lon="2.37404">
        <ele>30</ele>
        <time>2018-09-09T12:44:17Z</time>
      </trkpt>
      <trkpt lat="49.26021" lon="2.37394">
        <ele>30</ele>
        <time>2018-09-09T12:44:24Z</time>
      </trkpt>
      <trkpt lat="49.26012" lon="2.37389">
        <ele>30</ele>
        <time>2018-09-09T12:44:32Z</time>
      </trkpt>
      <trkpt lat="49.26003" lon="2.37384">
        <ele>29</ele>
        <time>2018-09-09T12:44:40Z</time>
      </trkpt>
      <trkpt lat="49.25993" lon="2.37379">
        <ele>29</ele>
        <time>2018-09-09T12:44:47Z</time>
      </trkpt>
      <trkpt lat="49.25984" lon="2.37374">
        <ele>29</ele>
        <time>2018-09-09T12:44:55Z</time>
      </trkpt>
      <trkpt lat="49.25975" lon="2.37369">
        <ele>29</ele>
        <time>2018-09-09T12:45:02Z</time>
      </trkpt>
      <trkpt lat="49.25965" lon="2.37366">
        <ele>29</ele>
        <time>2018-09-09T12:45:10Z</time>
      </trkpt>
      <trkpt lat="49.25956" lon="2.37361">
        <ele>28</ele>
        <time>2018-09-09T12:45:17Z</time>
      </trkpt>
      <trkpt lat="49.25947" lon="2.37356">
        <ele>28</ele>
        <time>2018-09-09T12:45:24Z</time>
      </trkpt>
      <trkpt lat="49.25937" lon="2.37352">
        <ele>28</ele>
        <time>2018-09-09T12:45:32Z</time>
      </trkpt>
      <trkpt lat="49.25928" lon="2.37349">
        <ele>28</ele>
        <time>2018-09-09T12:45:40Z</time>
      </trkpt>
      <trkpt lat="49.25918" lon="2.37347">
        <ele>28</ele>
        <time>2018-09-09T12:45:47Z</time>
      </trkpt>
      <trkpt lat="49.25908" lon="2.37347">
        <ele>29</ele>
        <time>2018-09-09T12:45:54Z</time>
      </trkpt>
      <trkpt lat="49.25898" lon="2.37345">
        <ele>29</ele>
        <time>2018-09-09T12:46:01Z</time>
      </trkpt>
      <trkpt lat="49.2589" lon="2.37336">
        <ele>30</ele>
        <time>2018-09-09T12:46:08Z</time>
      </trkpt>
      <trkpt lat="49.25882" lon="2.3733">
        <ele>30</ele>
        <time>2018-09-09T12:46:16Z</time>
      </trkpt>
      <trkpt lat="49.25873" lon="2.37326">
        <ele>30</ele>
        <time>2018-09-09T12:46:23Z</time>
      </trkpt>
      <trkpt lat="49.25864" lon="2.37323">
        <ele>31</ele>
        <time>2018-09-09T12:46:29Z</time>
      </trkpt>
      <trkpt lat="49.25854" lon="2.37324">
        <ele>32</ele>
        <time>2018-09-09T12:46:37Z</time>
      </trkpt>
      <trkpt lat="49.25845" lon="2.37322">
        <ele>34</ele>
        <time>2018-09-09T12:46:44Z</time>
      </trkpt>
      <trkpt lat="49.25835" lon="2.37321">
        <ele>35</ele>
        <time>2018-09-09T12:46:52Z</time>
      </trkpt>
      <trkpt lat="49.25825" lon="2.3732">
        <ele>36</ele>
        <time>2018-09-09T12:46:59Z</time>
      </trkpt>
      <trkpt lat="49.25816" lon="2.37317">
        <ele>36</ele>
        <time>2018-09-09T12:47:06Z</time>
      </trkpt>
      <trkpt lat="49.25806" lon="2.37319">
        <ele>37</ele>
        <time>2018-09-09T12:47:15Z</time>
      </trkpt>
      <trkpt lat="49.258" lon="2.3733">
        <ele>37</ele>
        <time>2018-09-09T12:47:25Z</time>
      </trkpt>
      <trkpt lat="49.25797" lon="2.37343">
        <ele>36</ele>
        <time>2018-09-09T12:47:34Z</time>
      </trkpt>
      <trkpt lat="49.2579" lon="2.37354">
        <ele>36</ele>
        <time>2018-09-09T12:47:41Z</time>
      </trkpt>
      <trkpt lat="49.25784" lon="2.37365">
        <ele>37</ele>
        <time>2018-09-09T12:47:48Z</time>
      </trkpt>
      <trkpt lat="49.25778" lon="2.37377">
        <ele>38</ele>
        <time>2018-09-09T12:47:57Z</time>
      </trkpt>
      <trkpt lat="49.2577" lon="2.37385">
        <ele>38</ele>
        <time>2018-09-09T12:48:05Z</time>
      </trkpt>
      <trkpt lat="49.2576" lon="2.37392">
        <ele>39</ele>
        <time>2018-09-09T12:48:12Z</time>
      </trkpt>
      <trkpt lat="49.25753" lon="2.374">
        <ele>38</ele>
        <time>2018-09-09T12:48:26Z</time>
      </trkpt>
      <trkpt lat="49.25745" lon="2.37407">
        <ele>38</ele>
        <time>2018-09-09T12:48:36Z</time>
      </trkpt>
      <trkpt lat="49.25736" lon="2.37411">
        <ele>37</ele>
        <time>2018-09-09T12:48:45Z</time>
      </trkpt>
      <trkpt lat="49.25727" lon="2.37416">
        <ele>36</ele>
        <time>2018-09-09T12:48:52Z</time>
      </trkpt>
      <trkpt lat="49.25718" lon="2.37422">
        <ele>36</ele>
        <time>2018-09-09T12:48:59Z</time>
      </trkpt>
      <trkpt lat="49.25711" lon="2.37432">
        <ele>36</ele>
        <time>2018-09-09T12:49:10Z</time>
      </trkpt>
      <trkpt lat="49.25703" lon="2.37442">
        <ele>37</ele>
        <time>2018-09-09T12:49:17Z</time>
      </trkpt>
      <trkpt lat="49.25695" lon="2.37452">
        <ele>38</ele>
        <time>2018-09-09T12:49:23Z</time>
      </trkpt>
      <trkpt lat="49.25687" lon="2.37459">
        <ele>39</ele>
        <time>2018-09-09T12:49:30Z</time>
      </trkpt>
      <trkpt lat="49.25678" lon="2.37464">
        <ele>40</ele>
        <time>2018-09-09T12:49:39Z</time>
      </trkpt>
      <trkpt lat="49.25668" lon="2.3747">
        <ele>41</ele>
        <time>2018-09-09T12:49:48Z</time>
      </trkpt>
      <trkpt lat="49.2566" lon="2.37474">
        <ele>42</ele>
        <time>2018-09-09T12:49:55Z</time>
      </trkpt>
      <trkpt lat="49.25651" lon="2.3748">
        <ele>43</ele>
        <time>2018-09-09T12:50:03Z</time>
      </trkpt>
      <trkpt lat="49.25641" lon="2.37484">
        <ele>44</ele>
        <time>2018-09-09T12:50:10Z</time>
      </trkpt>
      <trkpt lat="49.25632" lon="2.37486">
        <ele>44</ele>
        <time>2018-09-09T12:50:17Z</time>
      </trkpt>
      <trkpt lat="49.25622" lon="2.37487">
        <ele>46</ele>
        <time>2018-09-09T12:50:26Z</time>
      </trkpt>
      <trkpt lat="49.25612" lon="2.37492">
        <ele>46</ele>
        <time>2018-09-09T12:50:35Z</time>
      </trkpt>
      <trkpt lat="49.25602" lon="2.37495">
        <ele>46</ele>
        <time>2018-09-09T12:50:43Z</time>
      </trkpt>
      <trkpt lat="49.25593" lon="2.37497">
        <ele>46</ele>
        <time>2018-09-09T12:50:50Z</time>
      </trkpt>
      <trkpt lat="49.25584" lon="2.37499">
        <ele>46</ele>
        <time>2018-09-09T12:50:57Z</time>
      </trkpt>
      <trkpt lat="49.25574" lon="2.37496">
        <ele>47</ele>
        <time>2018-09-09T12:51:05Z</time>
      </trkpt>
      <trkpt lat="49.25566" lon="2.3749">
        <ele>47</ele>
        <time>2018-09-09T12:51:24Z</time>
      </trkpt>
      <trkpt lat="49.25557" lon="2.37488">
        <ele>47</ele>
        <time>2018-09-09T12:51:33Z</time>
      </trkpt>
      <trkpt lat="49.25548" lon="2.37485">
        <ele>47</ele>
        <time>2018-09-09T12:51:42Z</time>
      </trkpt>
      <trkpt lat="49.25538" lon="2.37484">
        <ele>48</ele>
        <time>2018-09-09T12:51:49Z</time>
      </trkpt>
      <trkpt lat="49.25529" lon="2.37484">
        <ele>47</ele>
        <time>2018-09-09T12:51:56Z</time>
      </trkpt>
      <trkpt lat="49.2552" lon="2.37481">
        <ele>47</ele>
        <time>2018-09-09T12:52:04Z</time>
      </trkpt>
      <trkpt lat="49.25511" lon="2.37478">
        <ele>46</ele>
        <time>2018-09-09T12:52:12Z</time>
      </trkpt>
      <trkpt lat="49.25501" lon="2.37479">
        <ele>47</ele>
        <time>2018-09-09T12:52:19Z</time>
      </trkpt>
      <trkpt lat="49.25492" lon="2.37481">
        <ele>48</ele>
        <time>2018-09-09T12:52:26Z</time>
      </trkpt>
      <trkpt lat="49.25484" lon="2.37478">
        <ele>48</ele>
        <time>2018-09-09T12:52:33Z</time>
      </trkpt>
      <trkpt lat="49.25475" lon="2.37476">
        <ele>49</ele>
        <time>2018-09-09T12:52:42Z</time>
      </trkpt>
      <trkpt lat="49.25466" lon="2.37479">
        <ele>50</ele>
        <time>2018-09-09T12:52:49Z</time>
      </trkpt>
      <trkpt lat="49.25456" lon="2.37481">
        <ele>50</ele>
        <time>2018-09-09T12:52:58Z</time>
      </trkpt>
      <trkpt lat="49.25447" lon="2.37484">
        <ele>51</ele>
        <time>2018-09-09T12:53:06Z</time>
      </trkpt>
      <trkpt lat="49.25438" lon="2.37487">
        <ele>51</ele>
        <time>2018-09-09T12:53:13Z</time>
      </trkpt>
      <trkpt lat="49.25428" lon="2.37489">
        <ele>51</ele>
        <time>2018-09-09T12:53:20Z</time>
      </trkpt>
      <trkpt lat="49.25417" lon="2.37491">
        <ele>52</ele>
        <time>2018-09-09T12:53:27Z</time>
      </trkpt>
      <trkpt lat="49.25408" lon="2.37492">
        <ele>52</ele>
        <time>2018-09-09T12:53:34Z</time>
      </trkpt>
      <trkpt lat="49.25399" lon="2.37491">
        <ele>53</ele>
        <time>2018-09-09T12:53:42Z</time>
      </trkpt>
      <trkpt lat="49.25389" lon="2.37491">
        <ele>53</ele>
        <time>2018-09-09T12:53:50Z</time>
      </trkpt>
      <trkpt lat="49.2538" lon="2.37491">
        <ele>54</ele>
        <time>2018-09-09T12:53:58Z</time>
      </trkpt>
      <trkpt lat="49.2537" lon="2.37493">
        <ele>55</ele>
        <time>2018-09-09T12:54:07Z</time>
      </trkpt>
      <trkpt lat="49.25361" lon="2.37493">
        <ele>56</ele>
        <time>2018-09-09T12:54:16Z</time>
      </trkpt>
      <trkpt lat="49.25351" lon="2.3749">
        <ele>56</ele>
        <time>2018-09-09T12:54:25Z</time>
      </trkpt>
      <trkpt lat="49.2534" lon="2.37489">
        <ele>56</ele>
        <time>2018-09-09T12:54:34Z</time>
      </trkpt>
      <trkpt lat="49.25331" lon="2.37488">
        <ele>56</ele>
        <time>2018-09-09T12:54:41Z</time>
      </trkpt>
      <trkpt lat="49.25321" lon="2.37487">
        <ele>56</ele>
        <time>2018-09-09T12:54:47Z</time>
      </trkpt>
      <trkpt lat="49.25312" lon="2.37487">
        <ele>56</ele>
        <time>2018-09-09T12:54:53Z</time>
      </trkpt>
      <trkpt lat="49.25302" lon="2.37488">
        <ele>56</ele>
        <time>2018-09-09T12:54:59Z</time>
      </trkpt>
      <trkpt lat="49.25292" lon="2.37485">
        <ele>56</ele>
        <time>2018-09-09T12:55:05Z</time>
      </trkpt>
      <trkpt lat="49.25283" lon="2.3748">
        <ele>57</ele>
        <time>2018-09-09T12:55:12Z</time>
      </trkpt>
      <trkpt lat="49.25274" lon="2.3748">
        <ele>58</ele>
        <time>2018-09-09T12:55:22Z</time>
      </trkpt>
      <trkpt lat="49.25265" lon="2.37475">
        <ele>59</ele>
        <time>2018-09-09T12:55:30Z</time>
      </trkpt>
      <trkpt lat="49.25255" lon="2.37473">
        <ele>59</ele>
        <time>2018-09-09T12:55:38Z</time>
      </trkpt>
      <trkpt lat="49.25246" lon="2.37472">
        <ele>60</ele>
        <time>2018-09-09T12:55:46Z</time>
      </trkpt>
      <trkpt lat="49.25237" lon="2.37472">
        <ele>60</ele>
        <time>2018-09-09T12:55:52Z</time>
      </trkpt>
      <trkpt lat="49.25228" lon="2.37472">
        <ele>60</ele>
        <time>2018-09-09T12:55:59Z</time>
      </trkpt>
      <trkpt lat="49.25218" lon="2.37473">
        <ele>59</ele>
        <time>2018-09-09T12:56:08Z</time>
      </trkpt>
      <trkpt lat="49.25208" lon="2.3747">
        <ele>59</ele>
        <time>2018-09-09T12:56:15Z</time>
      </trkpt>
      <trkpt lat="49.25198" lon="2.3747">
        <ele>59</ele>
        <time>2018-09-09T12:56:22Z</time>
      </trkpt>
      <trkpt lat="49.25189" lon="2.37471">
        <ele>59</ele>
        <time>2018-09-09T12:56:28Z</time>
      </trkpt>
      <trkpt lat="49.2518" lon="2.37475">
        <ele>59</ele>
        <time>2018-09-09T12:56:36Z</time>
      </trkpt>
      <trkpt lat="49.25171" lon="2.37476">
        <ele>60</ele>
        <time>2018-09-09T12:56:44Z</time>
      </trkpt>
      <trkpt lat="49.25162" lon="2.3748">
        <ele>60</ele>
        <time>2018-09-09T12:56:51Z</time>
      </trkpt>
      <trkpt lat="49.25153" lon="2.37481">
        <ele>61</ele>
        <time>2018-09-09T12:56:58Z</time>
      </trkpt>
      <trkpt lat="49.25143" lon="2.37479">
        <ele>61</ele>
        <time>2018-09-09T12:57:06Z</time>
      </trkpt>
      <trkpt lat="49.25133" lon="2.37476">
        <ele>62</ele>
        <time>2018-09-09T12:57:13Z</time>
      </trkpt>
      <trkpt lat="49.25123" lon="2.37471">
        <ele>63</ele>
        <time>2018-09-09T12:57:21Z</time>
      </trkpt>
      <trkpt lat="49.25114" lon="2.37468">
        <ele>63</ele>
        <time>2018-09-09T12:57:27Z</time>
      </trkpt>
      <trkpt lat="49.25105" lon="2.37467">
        <ele>63</ele>
        <time>2018-09-09T12:57:34Z</time>
      </trkpt>
      <trkpt lat="49.25096" lon="2.37465">
        <ele>64</ele>
        <time>2018-09-09T12:57:42Z</time>
      </trkpt>
      <trkpt lat="49.25086" lon="2.37464">
        <ele>65</ele>
        <time>2018-09-09T12:57:50Z</time>
      </trkpt>
      <trkpt lat="49.25076" lon="2.37462">
        <ele>66</ele>
        <time>2018-09-09T12:57:58Z</time>
      </trkpt>
      <trkpt lat="49.25067" lon="2.3746">
        <ele>67</ele>
        <time>2018-09-09T12:58:07Z</time>
      </trkpt>
      <trkpt lat="49.25056" lon="2.37458">
        <ele>67</ele>
        <time>2018-09-09T12:58:15Z</time>
      </trkpt>
      <trkpt lat="49.25047" lon="2.37459">
        <ele>68</ele>
        <time>2018-09-09T12:58:21Z</time>
      </trkpt>
      <trkpt lat="49.25037" lon="2.37461">
        <ele>69</ele>
        <time>2018-09-09T12:58:29Z</time>
      </trkpt>
      <trkpt lat="49.25028" lon="2.37458">
        <ele>70</ele>
        <time>2018-09-09T12:58:36Z</time>
      </trkpt>
      <trkpt lat="49.25018" lon="2.37455">
        <ele>70</ele>
        <time>2018-09-09T12:58:44Z</time>
      </trkpt>
      <trkpt lat="49.25008" lon="2.37454">
        <ele>71</ele>
        <time>2018-09-09T12:58:52Z</time>
      </trkpt>
      <trkpt lat="49.24999" lon="2.37449">
        <ele>71</ele>
        <time>2018-09-09T12:58:59Z</time>
      </trkpt>
      <trkpt lat="49.2499" lon="2.37447">
        <ele>72</ele>
        <time>2018-09-09T12:59:05Z</time>
      </trkpt>
      <trkpt lat="49.2498" lon="2.37445">
        <ele>73</ele>
        <time>2018-09-09T12:59:13Z</time>
      </trkpt>
      <trkpt lat="49.24971" lon="2.37439">
        <ele>74</ele>
        <time>2018-09-09T12:59:21Z</time>
      </trkpt>
      <trkpt lat="49.24962" lon="2.37437">
        <ele>74</ele>
        <time>2018-09-09T12:59:31Z</time>
      </trkpt>
      <trkpt lat="49.24952" lon="2.37436">
        <ele>74</ele>
        <time>2018-09-09T12:59:39Z</time>
      </trkpt>
      <trkpt lat="49.24943" lon="2.37432">
        <ele>75</ele>
        <time>2018-09-09T12:59:46Z</time>
      </trkpt>
      <trkpt lat="49.24934" lon="2.37428">
        <ele>76</ele>
        <time>2018-09-09T12:59:54Z</time>
      </trkpt>
      <trkpt lat="49.24924" lon="2.37424">
        <ele>76</ele>
        <time>2018-09-09T13:00:03Z</time>
      </trkpt>
      <trkpt lat="49.24916" lon="2.37417">
        <ele>77</ele>
        <time>2018-09-09T13:00:12Z</time>
      </trkpt>
      <trkpt lat="49.24907" lon="2.37414">
        <ele>79</ele>
        <time>2018-09-09T13:00:21Z</time>
      </trkpt>
      <trkpt lat="49.24898" lon="2.37412">
        <ele>80</ele>
        <time>2018-09-09T13:00:29Z</time>
      </trkpt>
      <trkpt lat="49.24888" lon="2.37407">
        <ele>81</ele>
        <time>2018-09-09T13:00:36Z</time>
      </trkpt>
      <trkpt lat="49.24881" lon="2.37398">
        <ele>82</ele>
        <time>2018-09-09T13:00:46Z</time>
      </trkpt>
      <trkpt lat="49.24872" lon="2.37395">
        <ele>82</ele>
        <time>2018-09-09T13:00:53Z</time>
      </trkpt>
      <trkpt lat="49.24863" lon="2.37389">
        <ele>83</ele>
        <time>2018-09-09T13:01:01Z</time>
      </trkpt>
      <trkpt lat="49.24855" lon="2.37381">
        <ele>84</ele>
        <time>2018-09-09T13:01:11Z</time>
      </trkpt>
      <trkpt lat="49.24847" lon="2.37375">
        <ele>86</ele>
        <time>2018-09-09T13:01:23Z</time>
      </trkpt>
      <trkpt lat="49.24838" lon="2.37378">
        <ele>88</ele>
        <time>2018-09-09T13:01:33Z</time>
      </trkpt>
      <trkpt lat="49.24828" lon="2.37378">
        <ele>90</ele>
        <time>2018-09-09T13:01:42Z</time>
      </trkpt>
      <trkpt lat="49.24818" lon="2.37376">
        <ele>91</ele>
        <time>2018-09-09T13:01:49Z</time>
      </trkpt>
      <trkpt lat="49.24809" lon="2.37372">
        <ele>93</ele>
        <time>2018-09-09T13:01:58Z</time>
      </trkpt>
      <trkpt lat="49.24799" lon="2.3737">
        <ele>95</ele>
        <time>2018-09-09T13:02:07Z</time>
      </trkpt>
      <trkpt lat="49.2479" lon="2.3737">
        <ele>98</ele>
        <time>2018-09-09T13:02:18Z</time>
      </trkpt>
      <trkpt lat="49.24782" lon="2.37365">
        <ele>100</ele>
        <time>2018-09-09T13:02:28Z</time>
      </trkpt>
      <trkpt lat="49.24773" lon="2.37369">
        <ele>101</ele>
        <time>2018-09-09T13:02:36Z</time>
      </trkpt>
      <trkpt lat="49.24764" lon="2.37372">
        <ele>102</ele>
        <time>2018-09-09T13:02:45Z</time>
      </trkpt>
      <trkpt lat="49.24754" lon="2.37367">
        <ele>103</ele>
        <time>2018-09-09T13:02:53Z</time>
      </trkpt>
      <trkpt lat="49.24746" lon="2.37362">
        <ele>103</ele>
        <time>2018-09-09T13:03:01Z</time>
      </trkpt>
      <trkpt lat="49.24736" lon="2.37362">
        <ele>103</ele>
        <time>2018-09-09T13:03:10Z</time>
      </trkpt>
      <trkpt lat="49.24727" lon="2.37363">
        <ele>104</ele>
        <time>2018-09-09T13:03:18Z</time>
      </trkpt>
      <trkpt lat="49.24719" lon="2.37357">
        <ele>105</ele>
        <time>2018-09-09T13:03:25Z</time>
      </trkpt>
      <trkpt lat="49.24709" lon="2.37355">
        <ele>106</ele>
        <time>2018-09-09T13:03:34Z</time>
      </trkpt>
      <trkpt lat="49.24699" lon="2.37355">
        <ele>106</ele>
        <time>2018-09-09T13:03:42Z</time>
      </trkpt>
      <trkpt lat="49.2469" lon="2.37354">
        <ele>107</ele>
        <time>2018-09-09T13:03:51Z</time>
      </trkpt>
      <trkpt lat="49.2468" lon="2.37355">
        <ele>107</ele>
        <time>2018-09-09T13:03:59Z</time>
      </trkpt>
      <trkpt lat="49.2467" lon="2.37357">
        <ele>108</ele>
        <time>2018-09-09T13:04:07Z</time>
      </trkpt>
      <trkpt lat="49.24661" lon="2.37352">
        <ele>108</ele>
        <time>2018-09-09T13:04:15Z</time>
      </trkpt>
      <trkpt lat="49.24651" lon="2.37352">
        <ele>108</ele>
        <time>2018-09-09T13:04:23Z</time>
      </trkpt>
      <trkpt lat="49.24641" lon="2.37354">
        <ele>109</ele>
        <time>2018-09-09T13:04:32Z</time>
      </trkpt>
      <trkpt lat="49.24631" lon="2.37352">
        <ele>108</ele>
        <time>2018-09-09T13:04:38Z</time>
      </trkpt>
      <trkpt lat="49.24621" lon="2.37353">
        <ele>108</ele>
        <time>2018-09-09T13:04:44Z</time>
      </trkpt>
      <trkpt lat="49.24611" lon="2.37358">
        <ele>108</ele>
        <time>2018-09-09T13:04:51Z</time>
      </trkpt>
      <trkpt lat="49.24602" lon="2.37362">
        <ele>109</ele>
        <time>2018-09-09T13:04:58Z</time>
      </trkpt>
      <trkpt lat="49.24593" lon="2.37366">
        <ele>110</ele>
        <time>2018-09-09T13:05:04Z</time>
      </trkpt>
      <trkpt lat="49.24583" lon="2.37367">
        <ele>112</ele>
        <time>2018-09-09T13:05:11Z</time>
      </trkpt>
      <trkpt lat="49.24574" lon="2.37366">
        <ele>114</ele>
        <time>2018-09-09T13:05:18Z</time>
      </trkpt>
      <trkpt lat="49.24564" lon="2.37366">
        <ele>116</ele>
        <time>2018-09-09T13:05:25Z</time>
      </trkpt>
      <trkpt lat="49.24555" lon="2.37363">
        <ele>117</ele>
        <time>2018-09-09T13:05:32Z</time>
      </trkpt>
      <trkpt lat="49.24545" lon="2.37359">
        <ele>117</ele>
        <time>2018-09-09T13:05:39Z</time>
      </trkpt>
      <trkpt lat="49.24536" lon="2.37356">
        <ele>118</ele>
        <time>2018-09-09T13:05:48Z</time>
      </trkpt>
      <trkpt lat="49.24527" lon="2.37357">
        <ele>118</ele>
        <time>2018-09-09T13:05:56Z</time>
      </trkpt>
      <trkpt lat="49.24517" lon="2.37357">
        <ele>118</ele>
        <time>2018-09-09T13:06:04Z</time>
      </trkpt>
      <trkpt lat="49.24507" lon="2.37359">
        <ele>119</ele>
        <time>2018-09-09T13:06:12Z</time>
      </trkpt>
      <trkpt lat="49.24498" lon="2.37357">
        <ele>120</ele>
        <time>2018-09-09T13:06:20Z</time>
      </trkpt>
      <trkpt lat="49.24489" lon="2.37353">
        <ele>121</ele>
        <time>2018-09-09T13:06:29Z</time>
      </trkpt>
      <trkpt lat="49.24479" lon="2.37352">
        <ele>122</ele>
        <time>2018-09-09T13:06:37Z</time>
      </trkpt>
      <trkpt lat="49.2447" lon="2.37349">
        <ele>122</ele>
        <time>2018-09-09T13:06:44Z</time>
      </trkpt>
      <trkpt lat="49.2446" lon="2.37349">
        <ele>122</ele>
        <time>2018-09-09T13:06:54Z</time>
      </trkpt>
      <trkpt lat="49.24468" lon="2.37355">
        <ele>125</ele>
        <time>2018-09-09T13:09:04Z</time>
      </trkpt>
      <trkpt lat="49.2446" lon="2.37347">
        <ele>128</ele>
        <time>2018-09-09T13:11:00Z</time>
      </trkpt>
      <trkpt lat="49.24452" lon="2.37339">
        <ele>127</ele>
        <time>2018-09-09T13:11:06Z</time>
      </trkpt>
      <trkpt lat="49.24445" lon="2.37329">
        <ele>127</ele>
        <time>2018-09-09T13:11:14Z</time>
      </trkpt>
      <trkpt lat="49.24438" lon="2.37321">
        <ele>125</ele>
        <time>2018-09-09T13:11:24Z</time>
      </trkpt>
      <trkpt lat="49.2443" lon="2.37312">
        <ele>124</ele>
        <time>2018-09-09T13:11:31Z</time>
      </trkpt>
      <trkpt lat="49.24422" lon="2.37305">
        <ele>123</ele>
        <time>2018-09-09T13:11:40Z</time>
      </trkpt>
      <trkpt lat="49.24413" lon="2.373">
        <ele>122</ele>
        <time>2018-09-09T13:11:49Z</time>
      </trkpt>
      <trkpt lat="49.24404" lon="2.37295">
        <ele>121</ele>
        <time>2018-09-09T13:11:58Z</time>
      </trkpt>
      <trkpt lat="49.24396" lon="2.3729">
        <ele>121</ele>
        <time>2018-09-09T13:12:05Z</time>
      </trkpt>
      <trkpt lat="49.24386" lon="2.37286">
        <ele>121</ele>
        <time>2018-09-09T13:12:13Z</time>
      </trkpt>
      <trkpt lat="49.24379" lon="2.37277">
        <ele>120</ele>
        <time>2018-09-09T13:12:20Z</time>
      </trkpt>
      <trkpt lat="49.24371" lon="2.37267">
        <ele>120</ele>
        <time>2018-09-09T13:12:30Z</time>
      </trkpt>
      <trkpt lat="49.24363" lon="2.37261">
        <ele>119</ele>
        <time>2018-09-09T13:12:38Z</time>
      </trkpt>
      <trkpt lat="49.24355" lon="2.37255">
        <ele>119</ele>
        <time>2018-09-09T13:12:44Z</time>
      </trkpt>
      <trkpt lat="49.24346" lon="2.37249">
        <ele>119</ele>
        <time>2018-09-09T13:12:51Z</time>
      </trkpt>
      <trkpt lat="49.24337" lon="2.37244">
        <ele>119</ele>
        <time>2018-09-09T13:12:59Z</time>
      </trkpt>
      <trkpt lat="49.24326" lon="2.3724">
        <ele>119</ele>
        <time>2018-09-09T13:13:08Z</time>
      </trkpt>
      <trkpt lat="49.24317" lon="2.37237">
        <ele>119</ele>
        <time>2018-09-09T13:13:15Z</time>
      </trkpt>
      <trkpt lat="49.24308" lon="2.37232">
        <ele>119</ele>
        <time>2018-09-09T13:13:22Z</time>
      </trkpt>
      <trkpt lat="49.24299" lon="2.37231">
        <ele>119</ele>
        <time>2018-09-09T13:13:31Z</time>
      </trkpt>
      <trkpt lat="49.24289" lon="2.37227">
        <ele>119</ele>
        <time>2018-09-09T13:13:40Z</time>
      </trkpt>
      <trkpt lat="49.24281" lon="2.37222">
        <ele>119</ele>
        <time>2018-09-09T13:13:49Z</time>
      </trkpt>
      <trkpt lat="49.24271" lon="2.37221">
        <ele>119</ele>
        <time>2018-09-09T13:13:56Z</time>
      </trkpt>
      <trkpt lat="49.24262" lon="2.37217">
        <ele>119</ele>
        <time>2018-09-09T13:14:04Z</time>
      </trkpt>
      <trkpt lat="49.24253" lon="2.37212">
        <ele>118</ele>
        <time>2018-09-09T13:14:13Z</time>
      </trkpt>
      <trkpt lat="49.24243" lon="2.37212">
        <ele>118</ele>
        <time>2018-09-09T13:14:20Z</time>
      </trkpt>
      <trkpt lat="49.24234" lon="2.37215">
        <ele>117</ele>
        <time>2018-09-09T13:14:29Z</time>
      </trkpt>
      <trkpt lat="49.24224" lon="2.37211">
        <ele>117</ele>
        <time>2018-09-09T13:14:40Z</time>
      </trkpt>
      <trkpt lat="49.24215" lon="2.3721">
        <ele>118</ele>
        <time>2018-09-09T13:14:49Z</time>
      </trkpt>
      <trkpt lat="49.24206" lon="2.37209">
        <ele>118</ele>
        <time>2018-09-09T13:14:56Z</time>
      </trkpt>
      <trkpt lat="49.24197" lon="2.37213">
        <ele>118</ele>
        <time>2018-09-09T13:15:02Z</time>
      </trkpt>
      <trkpt lat="49.24187" lon="2.37215">
        <ele>118</ele>
        <time>2018-09-09T13:15:08Z</time>
      </trkpt>
      <trkpt lat="49.24178" lon="2.37218">
        <ele>118</ele>
        <time>2018-09-09T13:15:15Z</time>
      </trkpt>
      <trkpt lat="49.24169" lon="2.37219">
        <ele>117</ele>
        <time>2018-09-09T13:15:24Z</time>
      </trkpt>
      <trkpt lat="49.24159" lon="2.37215">
        <ele>116</ele>
        <time>2018-09-09T13:15:35Z</time>
      </trkpt>
      <trkpt lat="49.2415" lon="2.37213">
        <ele>115</ele>
        <time>2018-09-09T13:15:45Z</time>
      </trkpt>
      <trkpt lat="49.2414" lon="2.37214">
        <ele>114</ele>
        <time>2018-09-09T13:15:54Z</time>
      </trkpt>
      <trkpt lat="49.2413" lon="2.37215">
        <ele>113</ele>
        <time>2018-09-09T13:16:03Z</time>
      </trkpt>
      <trkpt lat="49.24122" lon="2.37222">
        <ele>113</ele>
        <time>2018-09-09T13:16:08Z</time>
      </trkpt>
      <trkpt lat="49.24114" lon="2.37232">
        <ele>113</ele>
        <time>2018-09-09T13:16:13Z</time>
      </trkpt>
      <trkpt lat="49.24106" lon="2.37235">
        <ele>114</ele>
        <time>2018-09-09T13:16:22Z</time>
      </trkpt>
      <trkpt lat="49.24096" lon="2.37232">
        <ele>114</ele>
        <time>2018-09-09T13:16:29Z</time>
      </trkpt>
      <trkpt lat="49.24086" lon="2.37232">
        <ele>113</ele>
        <time>2018-09-09T13:16:36Z</time>
      </trkpt>
      <trkpt lat="49.24077" lon="2.37228">
        <ele>112</ele>
        <time>2018-09-09T13:16:46Z</time>
      </trkpt>
      <trkpt lat="49.24068" lon="2.37224">
        <ele>112</ele>
        <time>2018-09-09T13:16:58Z</time>
      </trkpt>
      <trkpt lat="49.24062" lon="2.37213">
        <ele>111</ele>
        <time>2018-09-09T13:17:07Z</time>
      </trkpt>
      <trkpt lat="49.24057" lon="2.372">
        <ele>111</ele>
        <time>2018-09-09T13:17:17Z</time>
      </trkpt>
      <trkpt lat="49.24062" lon="2.37186">
        <ele>111</ele>
        <time>2018-09-09T13:17:22Z</time>
      </trkpt>
      <trkpt lat="49.24064" lon="2.37172">
        <ele>111</ele>
        <time>2018-09-09T13:17:28Z</time>
      </trkpt>
      <trkpt lat="49.24062" lon="2.37156">
        <ele>111</ele>
        <time>2018-09-09T13:17:34Z</time>
      </trkpt>
      <trkpt lat="49.24062" lon="2.37142">
        <ele>113</ele>
        <time>2018-09-09T13:17:42Z</time>
      </trkpt>
      <trkpt lat="49.2406" lon="2.37128">
        <ele>115</ele>
        <time>2018-09-09T13:17:49Z</time>
      </trkpt>
      <trkpt lat="49.24061" lon="2.37114">
        <ele>117</ele>
        <time>2018-09-09T13:17:59Z</time>
      </trkpt>
      <trkpt lat="49.24061" lon="2.371">
        <ele>118</ele>
        <time>2018-09-09T13:18:07Z</time>
      </trkpt>
      <trkpt lat="49.24061" lon="2.37085">
        <ele>119</ele>
        <time>2018-09-09T13:18:14Z</time>
      </trkpt>
      <trkpt lat="49.24067" lon="2.37072">
        <ele>120</ele>
        <time>2018-09-09T13:18:22Z</time>
      </trkpt>
      <trkpt lat="49.24069" lon="2.37059">
        <ele>120</ele>
        <time>2018-09-09T13:18:30Z</time>
      </trkpt>
      <trkpt lat="49.24071" lon="2.37045">
        <ele>121</ele>
        <time>2018-09-09T13:18:35Z</time>
      </trkpt>
      <trkpt lat="49.24072" lon="2.37031">
        <ele>121</ele>
        <time>2018-09-09T13:18:44Z</time>
      </trkpt>
      <trkpt lat="49.24078" lon="2.37018">
        <ele>119</ele>
        <time>2018-09-09T13:18:58Z</time>
      </trkpt>
      <trkpt lat="49.24084" lon="2.37005">
        <ele>119</ele>
        <time>2018-09-09T13:19:04Z</time>
      </trkpt>
      <trkpt lat="49.24086" lon="2.3699">
        <ele>118</ele>
        <time>2018-09-09T13:19:12Z</time>
      </trkpt>
      <trkpt lat="49.24086" lon="2.36973">
        <ele>118</ele>
        <time>2018-09-09T13:19:20Z</time>
      </trkpt>
      <trkpt lat="49.24083" lon="2.36959">
        <ele>117</ele>
        <time>2018-09-09T13:19:26Z</time>
      </trkpt>
      <trkpt lat="49.24078" lon="2.36946">
        <ele>116</ele>
        <time>2018-09-09T13:19:37Z</time>
      </trkpt>
      <trkpt lat="49.24077" lon="2.36932">
        <ele>116</ele>
        <time>2018-09-09T13:19:45Z</time>
      </trkpt>
      <trkpt lat="49.24078" lon="2.36918">
        <ele>115</ele>
        <time>2018-09-09T13:19:52Z</time>
      </trkpt>
      <trkpt lat="49.24079" lon="2.36902">
        <ele>115</ele>
        <time>2018-09-09T13:19:59Z</time>
      </trkpt>
      <trkpt lat="49.24079" lon="2.36888">
        <ele>115</ele>
        <time>2018-09-09T13:20:06Z</time>
      </trkpt>
      <trkpt lat="49.24081" lon="2.36873">
        <ele>115</ele>
        <time>2018-09-09T13:20:17Z</time>
      </trkpt>
      <trkpt lat="49.24083" lon="2.36858">
        <ele>115</ele>
        <time>2018-09-09T13:20:26Z</time>
      </trkpt>
      <trkpt lat="49.24085" lon="2.36844">
        <ele>116</ele>
        <time>2018-09-09T13:20:33Z</time>
      </trkpt>
      <trkpt lat="49.24087" lon="2.36831">
        <ele>116</ele>
        <time>2018-09-09T13:20:39Z</time>
      </trkpt>
      <trkpt lat="49.2409" lon="2.36816">
        <ele>116</ele>
        <time>2018-09-09T13:20:45Z</time>
      </trkpt>
      <trkpt lat="49.24091" lon="2.36801">
        <ele>116</ele>
        <time>2018-09-09T13:20:51Z</time>
      </trkpt>
      <trkpt lat="49.24095" lon="2.36787">
        <ele>117</ele>
        <time>2018-09-09T13:21:00Z</time>
      </trkpt>
      <trkpt lat="49.24101" lon="2.36775">
        <ele>117</ele>
        <time>2018-09-09T13:21:13Z</time>
      </trkpt>
      <trkpt lat="49.24106" lon="2.36762">
        <ele>117</ele>
        <time>2018-09-09T13:21:20Z</time>
      </trkpt>
      <trkpt lat="49.2411" lon="2.36749">
        <ele>117</ele>
        <time>2018-09-09T13:21:27Z</time>
      </trkpt>
      <trkpt lat="49.24109" lon="2.36732">
        <ele>117</ele>
        <time>2018-09-09T13:21:34Z</time>
      </trkpt>
      <trkpt lat="49.24108" lon="2.36717">
        <ele>117</ele>
        <time>2018-09-09T13:21:41Z</time>
      </trkpt>
      <trkpt lat="49.24108" lon="2.36702">
        <ele>117</ele>
        <time>2018-09-09T13:21:49Z</time>
      </trkpt>
      <trkpt lat="49.24108" lon="2.36687">
        <ele>117</ele>
        <time>2018-09-09T13:21:58Z</time>
      </trkpt>
      <trkpt lat="49.24109" lon="2.36673">
        <ele>118</ele>
        <time>2018-09-09T13:22:06Z</time>
      </trkpt>
      <trkpt lat="49.2411" lon="2.36657">
        <ele>118</ele>
        <time>2018-09-09T13:22:15Z</time>
      </trkpt>
      <trkpt lat="49.24109" lon="2.36642">
        <ele>118</ele>
        <time>2018-09-09T13:22:23Z</time>
      </trkpt>
      <trkpt lat="49.24106" lon="2.36629">
        <ele>118</ele>
        <time>2018-09-09T13:22:31Z</time>
      </trkpt>
      <trkpt lat="49.24104" lon="2.36613">
        <ele>118</ele>
        <time>2018-09-09T13:22:40Z</time>
      </trkpt>
      <trkpt lat="49.24103" lon="2.36599">
        <ele>118</ele>
        <time>2018-09-09T13:22:46Z</time>
      </trkpt>
      <trkpt lat="49.241" lon="2.36586">
        <ele>119</ele>
        <time>2018-09-09T13:22:55Z</time>
      </trkpt>
      <trkpt lat="49.24095" lon="2.36574">
        <ele>118</ele>
        <time>2018-09-09T13:23:07Z</time>
      </trkpt>
      <trkpt lat="49.24094" lon="2.3656">
        <ele>117</ele>
        <time>2018-09-09T13:23:15Z</time>
      </trkpt>
      <trkpt lat="49.24094" lon="2.36545">
        <ele>117</ele>
        <time>2018-09-09T13:23:21Z</time>
      </trkpt>
      <trkpt lat="49.24094" lon="2.3653">
        <ele>116</ele>
        <time>2018-09-09T13:23:30Z</time>
      </trkpt>
      <trkpt lat="49.24095" lon="2.36515">
        <ele>115</ele>
        <time>2018-09-09T13:23:38Z</time>
      </trkpt>
      <trkpt lat="49.24093" lon="2.36501">
        <ele>115</ele>
        <time>2018-09-09T13:23:45Z</time>
      </trkpt>
      <trkpt lat="49.24092" lon="2.36487">
        <ele>115</ele>
        <time>2018-09-09T13:23:51Z</time>
      </trkpt>
      <trkpt lat="49.2409" lon="2.36472">
        <ele>115</ele>
        <time>2018-09-09T13:23:59Z</time>
      </trkpt>
      <trkpt lat="49.2409" lon="2.36457">
        <ele>114</ele>
        <time>2018-09-09T13:24:08Z</time>
      </trkpt>
      <trkpt lat="49.2409" lon="2.36443">
        <ele>113</ele>
        <time>2018-09-09T13:24:16Z</time>
      </trkpt>
      <trkpt lat="49.2409" lon="2.36428">
        <ele>112</ele>
        <time>2018-09-09T13:24:24Z</time>
      </trkpt>
      <trkpt lat="49.24091" lon="2.36412">
        <ele>112</ele>
        <time>2018-09-09T13:24:31Z</time>
      </trkpt>
      <trkpt lat="49.24093" lon="2.36398">
        <ele>112</ele>
        <time>2018-09-09T13:24:39Z</time>
      </trkpt>
      <trkpt lat="49.24095" lon="2.36383">
        <ele>112</ele>
        <time>2018-09-09T13:24:46Z</time>
      </trkpt>
      <trkpt lat="49.24096" lon="2.36368">
        <ele>112</ele>
        <time>2018-09-09T13:24:55Z</time>
      </trkpt>
      <trkpt lat="49.24095" lon="2.36354">
        <ele>112</ele>
        <time>2018-09-09T13:25:02Z</time>
      </trkpt>
      <trkpt lat="49.24093" lon="2.36339">
        <ele>113</ele>
        <time>2018-09-09T13:25:08Z</time>
      </trkpt>
      <trkpt lat="49.24091" lon="2.36325">
        <ele>114</ele>
        <time>2018-09-09T13:25:16Z</time>
      </trkpt>
      <trkpt lat="49.24089" lon="2.36312">
        <ele>115</ele>
        <time>2018-09-09T13:25:25Z</time>
      </trkpt>
      <trkpt lat="49.24089" lon="2.36297">
        <ele>115</ele>
        <time>2018-09-09T13:25:33Z</time>
      </trkpt>
      <trkpt lat="49.24089" lon="2.36281">
        <ele>116</ele>
        <time>2018-09-09T13:25:40Z</time>
      </trkpt>
      <trkpt lat="49.24088" lon="2.36266">
        <ele>116</ele>
        <time>2018-09-09T13:25:48Z</time>
      </trkpt>
      <trkpt lat="49.24088" lon="2.36252">
        <ele>116</ele>
        <time>2018-09-09T13:25:56Z</time>
      </trkpt>
      <trkpt lat="49.24087" lon="2.36237">
        <ele>116</ele>
        <time>2018-09-09T13:26:07Z</time>
      </trkpt>
      <trkpt lat="49.24086" lon="2.36223">
        <ele>116</ele>
        <time>2018-09-09T13:26:12Z</time>
      </trkpt>
      <trkpt lat="49.24086" lon="2.36209">
        <ele>117</ele>
        <time>2018-09-09T13:26:19Z</time>
      </trkpt>
      <trkpt lat="49.24087" lon="2.36194">
        <ele>117</ele>
        <time>2018-09-09T13:26:27Z</time>
      </trkpt>
      <trkpt lat="49.24089" lon="2.36179">
        <ele>118</ele>
        <time>2018-09-09T13:26:36Z</time>
      </trkpt>
      <trkpt lat="49.24091" lon="2.36165">
        <ele>118</ele>
        <time>2018-09-09T13:26:43Z</time>
      </trkpt>
      <trkpt lat="49.24092" lon="2.3615">
        <ele>119</ele>
        <time>2018-09-09T13:26:51Z</time>
      </trkpt>
      <trkpt lat="49.24093" lon="2.36136">
        <ele>120</ele>
        <time>2018-09-09T13:27:02Z</time>
      </trkpt>
      <trkpt lat="49.24091" lon="2.36122">
        <ele>120</ele>
        <time>2018-09-09T13:27:13Z</time>
      </trkpt>
      <trkpt lat="49.24088" lon="2.36109">
        <ele>120</ele>
        <time>2018-09-09T13:27:19Z</time>
      </trkpt>
      <trkpt lat="49.24087" lon="2.36094">
        <ele>120</ele>
        <time>2018-09-09T13:27:27Z</time>
      </trkpt>
      <trkpt lat="49.24086" lon="2.3608">
        <ele>119</ele>
        <time>2018-09-09T13:27:33Z</time>
      </trkpt>
      <trkpt lat="49.24084" lon="2.36066">
        <ele>119</ele>
        <time>2018-09-09T13:27:39Z</time>
      </trkpt>
      <trkpt lat="49.24082" lon="2.36052">
        <ele>119</ele>
        <time>2018-09-09T13:27:49Z</time>
      </trkpt>
      <trkpt lat="49.2408" lon="2.36038">
        <ele>118</ele>
        <time>2018-09-09T13:27:57Z</time>
      </trkpt>
      <trkpt lat="49.2408" lon="2.36024">
        <ele>117</ele>
        <time>2018-09-09T13:28:08Z</time>
      </trkpt>
      <trkpt lat="49.24082" lon="2.36005">
        <ele>116</ele>
        <time>2018-09-09T13:28:14Z</time>
      </trkpt>
      <trkpt lat="49.24084" lon="2.35991">
        <ele>117</ele>
        <time>2018-09-09T13:28:19Z</time>
      </trkpt>
      <trkpt lat="49.24086" lon="2.35976">
        <ele>118</ele>
        <time>2018-09-09T13:28:26Z</time>
      </trkpt>
      <trkpt lat="49.24086" lon="2.35961">
        <ele>120</ele>
        <time>2018-09-09T13:28:33Z</time>
      </trkpt>
      <trkpt lat="49.24082" lon="2.35947">
        <ele>121</ele>
        <time>2018-09-09T13:28:40Z</time>
      </trkpt>
      <trkpt lat="49.24081" lon="2.35931">
        <ele>122</ele>
        <time>2018-09-09T13:28:47Z</time>
      </trkpt>
      <trkpt lat="49.2408" lon="2.35918">
        <ele>122</ele>
        <time>2018-09-09T13:28:54Z</time>
      </trkpt>
      <trkpt lat="49.24083" lon="2.35903">
        <ele>123</ele>
        <time>2018-09-09T13:29:02Z</time>
      </trkpt>
      <trkpt lat="49.24087" lon="2.35891">
        <ele>123</ele>
        <time>2018-09-09T13:29:09Z</time>
      </trkpt>
      <trkpt lat="49.2409" lon="2.35876">
        <ele>124</ele>
        <time>2018-09-09T13:29:17Z</time>
      </trkpt>
      <trkpt lat="49.24091" lon="2.35861">
        <ele>125</ele>
        <time>2018-09-09T13:29:26Z</time>
      </trkpt>
      <trkpt lat="49.24092" lon="2.35847">
        <ele>125</ele>
        <time>2018-09-09T13:29:35Z</time>
      </trkpt>
      <trkpt lat="49.24094" lon="2.35832">
        <ele>126</ele>
        <time>2018-09-09T13:29:43Z</time>
      </trkpt>
      <trkpt lat="49.24095" lon="2.35817">
        <ele>126</ele>
        <time>2018-09-09T13:29:52Z</time>
      </trkpt>
      <trkpt lat="49.24095" lon="2.35802">
        <ele>126</ele>
        <time>2018-09-09T13:30:00Z</time>
      </trkpt>
      <trkpt lat="49.24095" lon="2.35787">
        <ele>126</ele>
        <time>2018-09-09T13:30:07Z</time>
      </trkpt>
      <trkpt lat="49.24094" lon="2.35773">
        <ele>126</ele>
        <time>2018-09-09T13:30:14Z</time>
      </trkpt>
      <trkpt lat="49.24094" lon="2.35759">
        <ele>127</ele>
        <time>2018-09-09T13:30:22Z</time>
      </trkpt>
      <trkpt lat="49.24095" lon="2.35744">
        <ele>127</ele>
        <time>2018-09-09T13:30:30Z</time>
      </trkpt>
      <trkpt lat="49.24096" lon="2.35729">
        <ele>128</ele>
        <time>2018-09-09T13:30:37Z</time>
      </trkpt>
      <trkpt lat="49.24097" lon="2.35715">
        <ele>128</ele>
        <time>2018-09-09T13:30:44Z</time>
      </trkpt>
      <trkpt lat="49.24102" lon="2.35703">
        <ele>129</ele>
        <time>2018-09-09T13:30:56Z</time>
      </trkpt>
      <trkpt lat="49.24109" lon="2.35692">
        <ele>129</ele>
        <time>2018-09-09T13:31:07Z</time>
      </trkpt>
      <trkpt lat="49.24111" lon="2.35679">
        <ele>129</ele>
        <time>2018-09-09T13:31:16Z</time>
      </trkpt>
      <trkpt lat="49.24114" lon="2.35664">
        <ele>130</ele>
        <time>2018-09-09T13:31:23Z</time>
      </trkpt>
      <trkpt lat="49.24113" lon="2.35649">
        <ele>130</ele>
        <time>2018-09-09T13:31:30Z</time>
      </trkpt>
      <trkpt lat="49.24112" lon="2.35633">
        <ele>131</ele>
        <time>2018-09-09T13:31:38Z</time>
      </trkpt>
      <trkpt lat="49.24103" lon="2.35625">
        <ele>133</ele>
        <time>2018-09-09T13:31:55Z</time>
      </trkpt>
      <trkpt lat="49.241" lon="2.35612">
        <ele>133</ele>
        <time>2018-09-09T13:32:01Z</time>
      </trkpt>
      <trkpt lat="49.24099" lon="2.35596">
        <ele>134</ele>
        <time>2018-09-09T13:32:07Z</time>
      </trkpt>
      <trkpt lat="49.24098" lon="2.35582">
        <ele>134</ele>
        <time>2018-09-09T13:32:15Z</time>
      </trkpt>
      <trkpt lat="49.241" lon="2.35568">
        <ele>135</ele>
        <time>2018-09-09T13:32:21Z</time>
      </trkpt>
      <trkpt lat="49.24102" lon="2.35553">
        <ele>135</ele>
        <time>2018-09-09T13:32:29Z</time>
      </trkpt>
      <trkpt lat="49.24101" lon="2.35537">
        <ele>135</ele>
        <time>2018-09-09T13:32:35Z</time>
      </trkpt>
      <trkpt lat="49.24101" lon="2.35522">
        <ele>135</ele>
        <time>2018-09-09T13:32:42Z</time>
      </trkpt>
      <trkpt lat="49.24103" lon="2.35507">
        <ele>136</ele>
        <time>2018-09-09T13:32:50Z</time>
      </trkpt>
      <trkpt lat="49.24104" lon="2.35493">
        <ele>136</ele>
        <time>2018-09-09T13:32:59Z</time>
      </trkpt>
      <trkpt lat="49.24106" lon="2.3548">
        <ele>135</ele>
        <time>2018-09-09T13:33:06Z</time>
      </trkpt>
      <trkpt lat="49.24105" lon="2.35466">
        <ele>135</ele>
        <time>2018-09-09T13:33:15Z</time>
      </trkpt>
      <trkpt lat="49.24103" lon="2.35452">
        <ele>135</ele>
        <time>2018-09-09T13:33:24Z</time>
      </trkpt>
      <trkpt lat="49.24106" lon="2.35438">
        <ele>134</ele>
        <time>2018-09-09T13:33:33Z</time>
      </trkpt>
      <trkpt lat="49.2411" lon="2.35426">
        <ele>133</ele>
        <time>2018-09-09T13:33:42Z</time>
      </trkpt>
      <trkpt lat="49.24114" lon="2.35413">
        <ele>132</ele>
        <time>2018-09-09T13:33:48Z</time>
      </trkpt>
      <trkpt lat="49.24122" lon="2.35404">
        <ele>131</ele>
        <time>2018-09-09T13:34:08Z</time>
      </trkpt>
      <trkpt lat="49.24123" lon="2.3539">
        <ele>131</ele>
        <time>2018-09-09T13:34:14Z</time>
      </trkpt>
      <trkpt lat="49.24121" lon="2.35375">
        <ele>131</ele>
        <time>2018-09-09T13:34:23Z</time>
      </trkpt>
      <trkpt lat="49.24124" lon="2.35361">
        <ele>131</ele>
        <time>2018-09-09T13:34:32Z</time>
      </trkpt>
      <trkpt lat="49.24121" lon="2.35348">
        <ele>132</ele>
        <time>2018-09-09T13:34:41Z</time>
      </trkpt>
      <trkpt lat="49.24115" lon="2.35337">
        <ele>133</ele>
        <time>2018-09-09T13:35:11Z</time>
      </trkpt>
      <trkpt lat="49.24113" lon="2.35323">
        <ele>132</ele>
        <time>2018-09-09T13:35:31Z</time>
      </trkpt>
      <trkpt lat="49.24113" lon="2.35307">
        <ele>132</ele>
        <time>2018-09-09T13:35:38Z</time>
      </trkpt>
      <trkpt lat="49.24113" lon="2.35293">
        <ele>133</ele>
        <time>2018-09-09T13:35:44Z</time>
      </trkpt>
      <trkpt lat="49.24114" lon="2.35279">
        <ele>133</ele>
        <time>2018-09-09T13:35:52Z</time>
      </trkpt>
      <trkpt lat="49.24112" lon="2.35264">
        <ele>133</ele>
        <time>2018-09-09T13:36:00Z</time>
      </trkpt>
      <trkpt lat="49.24112" lon="2.3525">
        <ele>133</ele>
        <time>2018-09-09T13:36:08Z</time>
      </trkpt>
      <trkpt lat="49.24116" lon="2.35237">
        <ele>133</ele>
        <time>2018-09-09T13:36:18Z</time>
      </trkpt>
      <trkpt lat="49.24118" lon="2.35223">
        <ele>133</ele>
        <time>2018-09-09T13:36:25Z</time>
      </trkpt>
      <trkpt lat="49.24121" lon="2.35208">
        <ele>133</ele>
        <time>2018-09-09T13:36:33Z</time>
      </trkpt>
      <trkpt lat="49.24124" lon="2.35193">
        <ele>133</ele>
        <time>2018-09-09T13:36:42Z</time>
      </trkpt>
      <trkpt lat="49.24126" lon="2.35179">
        <ele>134</ele>
        <time>2018-09-09T13:36:52Z</time>
      </trkpt>
      <trkpt lat="49.24127" lon="2.35165">
        <ele>134</ele>
        <time>2018-09-09T13:37:01Z</time>
      </trkpt>
      <trkpt lat="49.24133" lon="2.35155">
        <ele>133</ele>
        <time>2018-09-09T13:37:20Z</time>
      </trkpt>
      <trkpt lat="49.24137" lon="2.35141">
        <ele>133</ele>
        <time>2018-09-09T13:37:29Z</time>
      </trkpt>
      <trkpt lat="49.2414" lon="2.35128">
        <ele>133</ele>
        <time>2018-09-09T13:37:38Z</time>
      </trkpt>
      <trkpt lat="49.24141" lon="2.35113">
        <ele>132</ele>
        <time>2018-09-09T13:37:47Z</time>
      </trkpt>
      <trkpt lat="49.24143" lon="2.35099">
        <ele>132</ele>
        <time>2018-09-09T13:37:54Z</time>
      </trkpt>
      <trkpt lat="49.24145" lon="2.35086">
        <ele>131</ele>
        <time>2018-09-09T13:38:03Z</time>
      </trkpt>
      <trkpt lat="49.24148" lon="2.35071">
        <ele>130</ele>
        <time>2018-09-09T13:38:13Z</time>
      </trkpt>
      <trkpt lat="49.2415" lon="2.35057">
        <ele>130</ele>
        <time>2018-09-09T13:38:19Z</time>
      </trkpt>
      <trkpt lat="49.24153" lon="2.35042">
        <ele>129</ele>
        <time>2018-09-09T13:38:30Z</time>
      </trkpt>
      <trkpt lat="49.24156" lon="2.35028">
        <ele>130</ele>
        <time>2018-09-09T13:38:36Z</time>
      </trkpt>
      <trkpt lat="49.24159" lon="2.35013">
        <ele>130</ele>
        <time>2018-09-09T13:38:42Z</time>
      </trkpt>
      <trkpt lat="49.24164" lon="2.35001">
        <ele>130</ele>
        <time>2018-09-09T13:38:48Z</time>
      </trkpt>
      <trkpt lat="49.24168" lon="2.34989">
        <ele>131</ele>
        <time>2018-09-09T13:38:57Z</time>
      </trkpt>
      <trkpt lat="49.24172" lon="2.34976">
        <ele>132</ele>
        <time>2018-09-09T13:39:05Z</time>
      </trkpt>
      <trkpt lat="49.24173" lon="2.34961">
        <ele>133</ele>
        <time>2018-09-09T13:39:12Z</time>
      </trkpt>
      <trkpt lat="49.24176" lon="2.34946">
        <ele>134</ele>
        <time>2018-09-09T13:39:20Z</time>
      </trkpt>
      <trkpt lat="49.24182" lon="2.34935">
        <ele>135</ele>
        <time>2018-09-09T13:39:27Z</time>
      </trkpt>
      <trkpt lat="49.24188" lon="2.34923">
        <ele>135</ele>
        <time>2018-09-09T13:39:35Z</time>
      </trkpt>
      <trkpt lat="49.24194" lon="2.34912">
        <ele>135</ele>
        <time>2018-09-09T13:39:46Z</time>
      </trkpt>
      <trkpt lat="49.24201" lon="2.34902">
        <ele>134</ele>
        <time>2018-09-09T13:39:56Z</time>
      </trkpt>
      <trkpt lat="49.24205" lon="2.34888">
        <ele>134</ele>
        <time>2018-09-09T13:40:06Z</time>
      </trkpt>
      <trkpt lat="49.24208" lon="2.34874">
        <ele>133</ele>
        <time>2018-09-09T13:40:15Z</time>
      </trkpt>
      <trkpt lat="49.24214" lon="2.34862">
        <ele>134</ele>
        <time>2018-09-09T13:40:23Z</time>
      </trkpt>
      <trkpt lat="49.24213" lon="2.34848">
        <ele>134</ele>
        <time>2018-09-09T13:40:31Z</time>
      </trkpt>
      <trkpt lat="49.24216" lon="2.34835">
        <ele>135</ele>
        <time>2018-09-09T13:40:39Z</time>
      </trkpt>
      <trkpt lat="49.24219" lon="2.34821">
        <ele>135</ele>
        <time>2018-09-09T13:40:48Z</time>
      </trkpt>
      <trkpt lat="49.24219" lon="2.34806">
        <ele>135</ele>
        <time>2018-09-09T13:40:55Z</time>
      </trkpt>
      <trkpt lat="49.24216" lon="2.34791">
        <ele>135</ele>
        <time>2018-09-09T13:41:04Z</time>
      </trkpt>
      <trkpt lat="49.24214" lon="2.34777">
        <ele>135</ele>
        <time>2018-09-09T13:41:12Z</time>
      </trkpt>
      <trkpt lat="49.24214" lon="2.34762">
        <ele>136</ele>
        <time>2018-09-09T13:41:20Z</time>
      </trkpt>
      <trkpt lat="49.24213" lon="2.34748">
        <ele>136</ele>
        <time>2018-09-09T13:41:27Z</time>
      </trkpt>
      <trkpt lat="49.24216" lon="2.34734">
        <ele>137</ele>
        <time>2018-09-09T13:41:33Z</time>
      </trkpt>
      <trkpt lat="49.24219" lon="2.3472">
        <ele>137</ele>
        <time>2018-09-09T13:41:40Z</time>
      </trkpt>
      <trkpt lat="49.2422" lon="2.34706">
        <ele>138</ele>
        <time>2018-09-09T13:41:50Z</time>
      </trkpt>
      <trkpt lat="49.24225" lon="2.34692">
        <ele>138</ele>
        <time>2018-09-09T13:42:00Z</time>
      </trkpt>
      <trkpt lat="49.24228" lon="2.34677">
        <ele>138</ele>
        <time>2018-09-09T13:42:07Z</time>
      </trkpt>
      <trkpt lat="49.24229" lon="2.34663">
        <ele>139</ele>
        <time>2018-09-09T13:42:15Z</time>
      </trkpt>
      <trkpt lat="49.2423" lon="2.34647">
        <ele>139</ele>
        <time>2018-09-09T13:42:24Z</time>
      </trkpt>
      <trkpt lat="49.2423" lon="2.34632">
        <ele>139</ele>
        <time>2018-09-09T13:42:31Z</time>
      </trkpt>
      <trkpt lat="49.24235" lon="2.34619">
        <ele>139</ele>
        <time>2018-09-09T13:42:39Z</time>
      </trkpt>
      <trkpt lat="49.24239" lon="2.34607">
        <ele>138</ele>
        <time>2018-09-09T13:42:46Z</time>
      </trkpt>
      <trkpt lat="49.24241" lon="2.34592">
        <ele>138</ele>
        <time>2018-09-09T13:42:53Z</time>
      </trkpt>
      <trkpt lat="49.24245" lon="2.3458">
        <ele>138</ele>
        <time>2018-09-09T13:43:00Z</time>
      </trkpt>
      <trkpt lat="49.24247" lon="2.34566">
        <ele>138</ele>
        <time>2018-09-09T13:43:08Z</time>
      </trkpt>
      <trkpt lat="49.2425" lon="2.34551">
        <ele>137</ele>
        <time>2018-09-09T13:43:15Z</time>
      </trkpt>
      <trkpt lat="49.24252" lon="2.34536">
        <ele>137</ele>
        <time>2018-09-09T13:43:22Z</time>
      </trkpt>
      <trkpt lat="49.24252" lon="2.34521">
        <ele>136</ele>
        <time>2018-09-09T13:43:30Z</time>
      </trkpt>
      <trkpt lat="49.24254" lon="2.34506">
        <ele>135</ele>
        <time>2018-09-09T13:43:38Z</time>
      </trkpt>
      <trkpt lat="49.24259" lon="2.34491">
        <ele>135</ele>
        <time>2018-09-09T13:43:44Z</time>
      </trkpt>
      <trkpt lat="49.24263" lon="2.34479">
        <ele>134</ele>
        <time>2018-09-09T13:43:49Z</time>
      </trkpt>
      <trkpt lat="49.24267" lon="2.34466">
        <ele>135</ele>
        <time>2018-09-09T13:43:59Z</time>
      </trkpt>
      <trkpt lat="49.24271" lon="2.34454">
        <ele>136</ele>
        <time>2018-09-09T13:44:18Z</time>
      </trkpt>
      <trkpt lat="49.24275" lon="2.3444">
        <ele>135</ele>
        <time>2018-09-09T13:44:27Z</time>
      </trkpt>
      <trkpt lat="49.2428" lon="2.34428">
        <ele>135</ele>
        <time>2018-09-09T13:44:35Z</time>
      </trkpt>
      <trkpt lat="49.24288" lon="2.34417">
        <ele>135</ele>
        <time>2018-09-09T13:44:43Z</time>
      </trkpt>
      <trkpt lat="49.24294" lon="2.34407">
        <ele>135</ele>
        <time>2018-09-09T13:44:51Z</time>
      </trkpt>
      <trkpt lat="49.243" lon="2.34396">
        <ele>135</ele>
        <time>2018-09-09T13:44:58Z</time>
      </trkpt>
      <trkpt lat="49.24306" lon="2.34385">
        <ele>135</ele>
        <time>2018-09-09T13:45:04Z</time>
      </trkpt>
      <trkpt lat="49.2431" lon="2.34372">
        <ele>135</ele>
        <time>2018-09-09T13:45:13Z</time>
      </trkpt>
      <trkpt lat="49.24316" lon="2.34362">
        <ele>136</ele>
        <time>2018-09-09T13:45:20Z</time>
      </trkpt>
      <trkpt lat="49.24321" lon="2.34349">
        <ele>136</ele>
        <time>2018-09-09T13:45:26Z</time>
      </trkpt>
      <trkpt lat="49.24327" lon="2.34339">
        <ele>137</ele>
        <time>2018-09-09T13:45:32Z</time>
      </trkpt>
      <trkpt lat="49.24334" lon="2.34328">
        <ele>137</ele>
        <time>2018-09-09T13:45:40Z</time>
      </trkpt>
      <trkpt lat="49.2434" lon="2.34316">
        <ele>137</ele>
        <time>2018-09-09T13:45:47Z</time>
      </trkpt>
      <trkpt lat="49.24344" lon="2.34303">
        <ele>137</ele>
        <time>2018-09-09T13:45:54Z</time>
      </trkpt>
      <trkpt lat="49.24347" lon="2.34289">
        <ele>137</ele>
        <time>2018-09-09T13:45:59Z</time>
      </trkpt>
      <trkpt lat="49.24349" lon="2.34274">
        <ele>136</ele>
        <time>2018-09-09T13:46:07Z</time>
      </trkpt>
      <trkpt lat="49.24354" lon="2.34262">
        <ele>136</ele>
        <time>2018-09-09T13:46:13Z</time>
      </trkpt>
      <trkpt lat="49.24359" lon="2.34249">
        <ele>136</ele>
        <time>2018-09-09T13:46:19Z</time>
      </trkpt>
      <trkpt lat="49.24366" lon="2.34239">
        <ele>136</ele>
        <time>2018-09-09T13:46:27Z</time>
      </trkpt>
      <trkpt lat="49.24372" lon="2.34228">
        <ele>135</ele>
        <time>2018-09-09T13:46:34Z</time>
      </trkpt>
      <trkpt lat="49.24376" lon="2.34216">
        <ele>135</ele>
        <time>2018-09-09T13:46:39Z</time>
      </trkpt>
      <trkpt lat="49.2438" lon="2.34203">
        <ele>135</ele>
        <time>2018-09-09T13:46:46Z</time>
      </trkpt>
      <trkpt lat="49.24384" lon="2.34189">
        <ele>135</ele>
        <time>2018-09-09T13:46:55Z</time>
      </trkpt>
      <trkpt lat="49.24389" lon="2.34175">
        <ele>135</ele>
        <time>2018-09-09T13:47:02Z</time>
      </trkpt>
      <trkpt lat="49.24394" lon="2.34163">
        <ele>136</ele>
        <time>2018-09-09T13:47:09Z</time>
      </trkpt>
      <trkpt lat="49.244" lon="2.34151">
        <ele>136</ele>
        <time>2018-09-09T13:47:15Z</time>
      </trkpt>
      <trkpt lat="49.24406" lon="2.34141">
        <ele>136</ele>
        <time>2018-09-09T13:47:22Z</time>
      </trkpt>
      <trkpt lat="49.24412" lon="2.34129">
        <ele>136</ele>
        <time>2018-09-09T13:47:31Z</time>
      </trkpt>
      <trkpt lat="49.24417" lon="2.34117">
        <ele>135</ele>
        <time>2018-09-09T13:47:38Z</time>
      </trkpt>
      <trkpt lat="49.24422" lon="2.34105">
        <ele>135</ele>
        <time>2018-09-09T13:47:45Z</time>
      </trkpt>
      <trkpt lat="49.24428" lon="2.34095">
        <ele>136</ele>
        <time>2018-09-09T13:47:52Z</time>
      </trkpt>
      <trkpt lat="49.24434" lon="2.34083">
        <ele>136</ele>
        <time>2018-09-09T13:47:58Z</time>
      </trkpt>
      <trkpt lat="49.24441" lon="2.34073">
        <ele>136</ele>
        <time>2018-09-09T13:48:06Z</time>
      </trkpt>
      <trkpt lat="49.24447" lon="2.34061">
        <ele>136</ele>
        <time>2018-09-09T13:48:13Z</time>
      </trkpt>
      <trkpt lat="49.24453" lon="2.3405">
        <ele>136</ele>
        <time>2018-09-09T13:48:20Z</time>
      </trkpt>
      <trkpt lat="49.24461" lon="2.34039">
        <ele>136</ele>
        <time>2018-09-09T13:48:27Z</time>
      </trkpt>
      <trkpt lat="49.24468" lon="2.34028">
        <ele>137</ele>
        <time>2018-09-09T13:48:34Z</time>
      </trkpt>
      <trkpt lat="49.24472" lon="2.34015">
        <ele>137</ele>
        <time>2018-09-09T13:48:42Z</time>
      </trkpt>
      <trkpt lat="49.2448" lon="2.34005">
        <ele>137</ele>
        <time>2018-09-09T13:48:51Z</time>
      </trkpt>
      <trkpt lat="49.24489" lon="2.34001">
        <ele>137</ele>
        <time>2018-09-09T13:48:58Z</time>
      </trkpt>
      <trkpt lat="49.24495" lon="2.33991">
        <ele>137</ele>
        <time>2018-09-09T13:49:05Z</time>
      </trkpt>
      <trkpt lat="49.245" lon="2.33978">
        <ele>136</ele>
        <time>2018-09-09T13:49:12Z</time>
      </trkpt>
      <trkpt lat="49.24506" lon="2.33968">
        <ele>135</ele>
        <time>2018-09-09T13:49:21Z</time>
      </trkpt>
      <trkpt lat="49.24513" lon="2.33957">
        <ele>134</ele>
        <time>2018-09-09T13:49:27Z</time>
      </trkpt>
      <trkpt lat="49.24519" lon="2.33947">
        <ele>134</ele>
        <time>2018-09-09T13:49:33Z</time>
      </trkpt>
      <trkpt lat="49.24526" lon="2.33937">
        <ele>133</ele>
        <time>2018-09-09T13:49:39Z</time>
      </trkpt>
      <trkpt lat="49.24533" lon="2.33927">
        <ele>133</ele>
        <time>2018-09-09T13:49:47Z</time>
      </trkpt>
      <trkpt lat="49.2454" lon="2.33914">
        <ele>132</ele>
        <time>2018-09-09T13:49:54Z</time>
      </trkpt>
      <trkpt lat="49.24546" lon="2.33903">
        <ele>132</ele>
        <time>2018-09-09T13:50:01Z</time>
      </trkpt>
      <trkpt lat="49.24553" lon="2.33892">
        <ele>131</ele>
        <time>2018-09-09T13:50:11Z</time>
      </trkpt>
      <trkpt lat="49.2456" lon="2.33881">
        <ele>131</ele>
        <time>2018-09-09T13:50:17Z</time>
      </trkpt>
      <trkpt lat="49.24567" lon="2.33873">
        <ele>131</ele>
        <time>2018-09-09T13:50:25Z</time>
      </trkpt>
      <trkpt lat="49.24576" lon="2.33868">
        <ele>130</ele>
        <time>2018-09-09T13:50:34Z</time>
      </trkpt>
      <trkpt lat="49.24586" lon="2.33866">
        <ele>130</ele>
        <time>2018-09-09T13:50:41Z</time>
      </trkpt>
      <trkpt lat="49.24595" lon="2.33863">
        <ele>129</ele>
        <time>2018-09-09T13:50:49Z</time>
      </trkpt>
      <trkpt lat="49.24605" lon="2.33858">
        <ele>128</ele>
        <time>2018-09-09T13:50:56Z</time>
      </trkpt>
      <trkpt lat="49.24615" lon="2.33853">
        <ele>128</ele>
        <time>2018-09-09T13:51:03Z</time>
      </trkpt>
      <trkpt lat="49.24624" lon="2.33848">
        <ele>128</ele>
        <time>2018-09-09T13:51:09Z</time>
      </trkpt>
      <trkpt lat="49.24632" lon="2.33844">
        <ele>129</ele>
        <time>2018-09-09T13:51:16Z</time>
      </trkpt>
      <trkpt lat="49.24637" lon="2.33831">
        <ele>129</ele>
        <time>2018-09-09T13:51:24Z</time>
      </trkpt>
      <trkpt lat="49.24645" lon="2.33823">
        <ele>128</ele>
        <time>2018-09-09T13:51:31Z</time>
      </trkpt>
      <trkpt lat="49.24654" lon="2.33816">
        <ele>128</ele>
        <time>2018-09-09T13:51:37Z</time>
      </trkpt>
      <trkpt lat="49.24662" lon="2.33809">
        <ele>128</ele>
        <time>2018-09-09T13:51:43Z</time>
      </trkpt>
      <trkpt lat="49.24667" lon="2.33797">
        <ele>129</ele>
        <time>2018-09-09T13:51:50Z</time>
      </trkpt>
      <trkpt lat="49.24673" lon="2.33786">
        <ele>128</ele>
        <time>2018-09-09T13:51:57Z</time>
      </trkpt>
      <trkpt lat="49.24676" lon="2.33773">
        <ele>128</ele>
        <time>2018-09-09T13:52:03Z</time>
      </trkpt>
      <trkpt lat="49.24684" lon="2.33764">
        <ele>128</ele>
        <time>2018-09-09T13:52:11Z</time>
      </trkpt>
      <trkpt lat="49.24692" lon="2.33755">
        <ele>127</ele>
        <time>2018-09-09T13:52:19Z</time>
      </trkpt>
      <trkpt lat="49.24699" lon="2.33744">
        <ele>127</ele>
        <time>2018-09-09T13:52:26Z</time>
      </trkpt>
      <trkpt lat="49.24707" lon="2.33734">
        <ele>128</ele>
        <time>2018-09-09T13:52:32Z</time>
      </trkpt>
      <trkpt lat="49.24714" lon="2.33723">
        <ele>128</ele>
        <time>2018-09-09T13:52:39Z</time>
      </trkpt>
      <trkpt lat="49.24723" lon="2.33717">
        <ele>129</ele>
        <time>2018-09-09T13:52:47Z</time>
      </trkpt>
      <trkpt lat="49.24732" lon="2.3371">
        <ele>129</ele>
        <time>2018-09-09T13:52:54Z</time>
      </trkpt>
      <trkpt lat="49.2474" lon="2.33703">
        <ele>130</ele>
        <time>2018-09-09T13:53:02Z</time>
      </trkpt>
      <trkpt lat="49.24747" lon="2.33692">
        <ele>131</ele>
        <time>2018-09-09T13:53:12Z</time>
      </trkpt>
      <trkpt lat="49.24754" lon="2.33684">
        <ele>131</ele>
        <time>2018-09-09T13:53:19Z</time>
      </trkpt>
      <trkpt lat="49.24763" lon="2.33675">
        <ele>131</ele>
        <time>2018-09-09T13:53:27Z</time>
      </trkpt>
      <trkpt lat="49.2477" lon="2.33667">
        <ele>132</ele>
        <time>2018-09-09T13:53:33Z</time>
      </trkpt>
      <trkpt lat="49.24776" lon="2.33656">
        <ele>133</ele>
        <time>2018-09-09T13:53:40Z</time>
      </trkpt>
      <trkpt lat="49.24785" lon="2.3365">
        <ele>134</ele>
        <time>2018-09-09T13:53:48Z</time>
      </trkpt>
      <trkpt lat="49.24793" lon="2.33642">
        <ele>135</ele>
        <time>2018-09-09T13:53:58Z</time>
      </trkpt>
      <trkpt lat="49.248" lon="2.33633">
        <ele>135</ele>
        <time>2018-09-09T13:54:07Z</time>
      </trkpt>
      <trkpt lat="49.24808" lon="2.33627">
        <ele>135</ele>
        <time>2018-09-09T13:54:17Z</time>
      </trkpt>
      <trkpt lat="49.24816" lon="2.33618">
        <ele>135</ele>
        <time>2018-09-09T13:54:27Z</time>
      </trkpt>
      <trkpt lat="49.24823" lon="2.33608">
        <ele>134</ele>
        <time>2018-09-09T13:54:40Z</time>
      </trkpt>
      <trkpt lat="49.24831" lon="2.33613">
        <ele>134</ele>
        <time>2018-09-09T13:55:51Z</time>
      </trkpt>
      <trkpt lat="49.24824" lon="2.33604">
        <ele>133</ele>
        <time>2018-09-09T13:57:40Z</time>
      </trkpt>
      <trkpt lat="49.24833" lon="2.33601">
        <ele>133</ele>
        <time>2018-09-09T13:59:02Z</time>
      </trkpt>
      <trkpt lat="49.24841" lon="2.33594">
        <ele>133</ele>
        <time>2018-09-09T13:59:13Z</time>
      </trkpt>
      <trkpt lat="49.2485" lon="2.33588">
        <ele>132</ele>
        <time>2018-09-09T13:59:22Z</time>
      </trkpt>
      <trkpt lat="49.24858" lon="2.33583">
        <ele>132</ele>
        <time>2018-09-09T13:59:31Z</time>
      </trkpt>
      <trkpt lat="49.24867" lon="2.33577">
        <ele>132</ele>
        <time>2018-09-09T13:59:39Z</time>
      </trkpt>
      <trkpt lat="49.24875" lon="2.33571">
        <ele>132</ele>
        <time>2018-09-09T13:59:46Z</time>
      </trkpt>
      <trkpt lat="49.24885" lon="2.33565">
        <ele>132</ele>
        <time>2018-09-09T13:59:54Z</time>
      </trkpt>
      <trkpt lat="49.24893" lon="2.33558">
        <ele>132</ele>
        <time>2018-09-09T14:00:02Z</time>
      </trkpt>
      <trkpt lat="49.24902" lon="2.33553">
        <ele>132</ele>
        <time>2018-09-09T14:00:09Z</time>
      </trkpt>
      <trkpt lat="49.24911" lon="2.33548">
        <ele>131</ele>
        <time>2018-09-09T14:00:17Z</time>
      </trkpt>
      <trkpt lat="49.2492" lon="2.3354">
        <ele>131</ele>
        <time>2018-09-09T14:00:24Z</time>
      </trkpt>
      <trkpt lat="49.24928" lon="2.33533">
        <ele>132</ele>
        <time>2018-09-09T14:00:32Z</time>
      </trkpt>
      <trkpt lat="49.24937" lon="2.33526">
        <ele>132</ele>
        <time>2018-09-09T14:00:39Z</time>
      </trkpt>
      <trkpt lat="49.24945" lon="2.33522">
        <ele>132</ele>
        <time>2018-09-09T14:00:46Z</time>
      </trkpt>
      <trkpt lat="49.24953" lon="2.33514">
        <ele>132</ele>
        <time>2018-09-09T14:00:53Z</time>
      </trkpt>
      <trkpt lat="49.24961" lon="2.33505">
        <ele>133</ele>
        <time>2018-09-09T14:01:02Z</time>
      </trkpt>
      <trkpt lat="49.2497" lon="2.33499">
        <ele>133</ele>
        <time>2018-09-09T14:01:10Z</time>
      </trkpt>
      <trkpt lat="49.24978" lon="2.33492">
        <ele>133</ele>
        <time>2018-09-09T14:01:18Z</time>
      </trkpt>
      <trkpt lat="49.24986" lon="2.33483">
        <ele>134</ele>
        <time>2018-09-09T14:01:26Z</time>
      </trkpt>
      <trkpt lat="49.24995" lon="2.33477">
        <ele>135</ele>
        <time>2018-09-09T14:01:33Z</time>
      </trkpt>
      <trkpt lat="49.25002" lon="2.33466">
        <ele>135</ele>
        <time>2018-09-09T14:01:41Z</time>
      </trkpt>
      <trkpt lat="49.25011" lon="2.33459">
        <ele>135</ele>
        <time>2018-09-09T14:01:49Z</time>
      </trkpt>
      <trkpt lat="49.25018" lon="2.33448">
        <ele>135</ele>
        <time>2018-09-09T14:01:57Z</time>
      </trkpt>
      <trkpt lat="49.25025" lon="2.33437">
        <ele>135</ele>
        <time>2018-09-09T14:02:03Z</time>
      </trkpt>
      <trkpt lat="49.2503" lon="2.33425">
        <ele>135</ele>
        <time>2018-09-09T14:02:09Z</time>
      </trkpt>
      <trkpt lat="49.25038" lon="2.33415">
        <ele>135</ele>
        <time>2018-09-09T14:02:16Z</time>
      </trkpt>
      <trkpt lat="49.25045" lon="2.33405">
        <ele>134</ele>
        <time>2018-09-09T14:02:26Z</time>
      </trkpt>
      <trkpt lat="49.25052" lon="2.33394">
        <ele>133</ele>
        <time>2018-09-09T14:02:33Z</time>
      </trkpt>
      <trkpt lat="49.25059" lon="2.33383">
        <ele>132</ele>
        <time>2018-09-09T14:02:40Z</time>
      </trkpt>
      <trkpt lat="49.25066" lon="2.33372">
        <ele>132</ele>
        <time>2018-09-09T14:02:47Z</time>
      </trkpt>
      <trkpt lat="49.25074" lon="2.33363">
        <ele>132</ele>
        <time>2018-09-09T14:02:55Z</time>
      </trkpt>
      <trkpt lat="49.25081" lon="2.33354">
        <ele>131</ele>
        <time>2018-09-09T14:03:03Z</time>
      </trkpt>
      <trkpt lat="49.25089" lon="2.33346">
        <ele>132</ele>
        <time>2018-09-09T14:03:10Z</time>
      </trkpt>
      <trkpt lat="49.25095" lon="2.33335">
        <ele>133</ele>
        <time>2018-09-09T14:03:19Z</time>
      </trkpt>
      <trkpt lat="49.25103" lon="2.33328">
        <ele>133</ele>
        <time>2018-09-09T14:03:25Z</time>
      </trkpt>
      <trkpt lat="49.25112" lon="2.33322">
        <ele>134</ele>
        <time>2018-09-09T14:03:33Z</time>
      </trkpt>
      <trkpt lat="49.2512" lon="2.33312">
        <ele>134</ele>
        <time>2018-09-09T14:03:42Z</time>
      </trkpt>
      <trkpt lat="49.25129" lon="2.33311">
        <ele>134</ele>
        <time>2018-09-09T14:03:49Z</time>
      </trkpt>
      <trkpt lat="49.25138" lon="2.33309">
        <ele>133</ele>
        <time>2018-09-09T14:03:58Z</time>
      </trkpt>
      <trkpt lat="49.25148" lon="2.33304">
        <ele>133</ele>
        <time>2018-09-09T14:04:09Z</time>
      </trkpt>
      <trkpt lat="49.25158" lon="2.33302">
        <ele>132</ele>
        <time>2018-09-09T14:04:15Z</time>
      </trkpt>
      <trkpt lat="49.25168" lon="2.33299">
        <ele>131</ele>
        <time>2018-09-09T14:04:23Z</time>
      </trkpt>
      <trkpt lat="49.25177" lon="2.33301">
        <ele>131</ele>
        <time>2018-09-09T14:04:31Z</time>
      </trkpt>
      <trkpt lat="49.25187" lon="2.33302">
        <ele>130</ele>
        <time>2018-09-09T14:04:37Z</time>
      </trkpt>
      <trkpt lat="49.25197" lon="2.33304">
        <ele>129</ele>
        <time>2018-09-09T14:04:43Z</time>
      </trkpt>
      <trkpt lat="49.25206" lon="2.33305">
        <ele>128</ele>
        <time>2018-09-09T14:04:50Z</time>
      </trkpt>
      <trkpt lat="49.25215" lon="2.33306">
        <ele>127</ele>
        <time>2018-09-09T14:05:01Z</time>
      </trkpt>
      <trkpt lat="49.25225" lon="2.33307">
        <ele>125</ele>
        <time>2018-09-09T14:05:08Z</time>
      </trkpt>
      <trkpt lat="49.25235" lon="2.3331">
        <ele>124</ele>
        <time>2018-09-09T14:05:15Z</time>
      </trkpt>
      <trkpt lat="49.25244" lon="2.33313">
        <ele>124</ele>
        <time>2018-09-09T14:05:19Z</time>
      </trkpt>
      <trkpt lat="49.25254" lon="2.33312">
        <ele>124</ele>
        <time>2018-09-09T14:05:26Z</time>
      </trkpt>
      <trkpt lat="49.25263" lon="2.33313">
        <ele>125</ele>
        <time>2018-09-09T14:05:35Z</time>
      </trkpt>
      <trkpt lat="49.25272" lon="2.3331">
        <ele>124</ele>
        <time>2018-09-09T14:05:41Z</time>
      </trkpt>
      <trkpt lat="49.25282" lon="2.33308">
        <ele>125</ele>
        <time>2018-09-09T14:05:47Z</time>
      </trkpt>
      <trkpt lat="49.25291" lon="2.33309">
        <ele>125</ele>
        <time>2018-09-09T14:05:55Z</time>
      </trkpt>
      <trkpt lat="49.25301" lon="2.33309">
        <ele>125</ele>
        <time>2018-09-09T14:06:02Z</time>
      </trkpt>
      <trkpt lat="49.2531" lon="2.33308">
        <ele>125</ele>
        <time>2018-09-09T14:06:08Z</time>
      </trkpt>
      <trkpt lat="49.2532" lon="2.33305">
        <ele>124</ele>
        <time>2018-09-09T14:06:17Z</time>
      </trkpt>
      <trkpt lat="49.25329" lon="2.33304">
        <ele>124</ele>
        <time>2018-09-09T14:06:24Z</time>
      </trkpt>
      <trkpt lat="49.25339" lon="2.33307">
        <ele>124</ele>
        <time>2018-09-09T14:06:31Z</time>
      </trkpt>
      <trkpt lat="49.25349" lon="2.33309">
        <ele>123</ele>
        <time>2018-09-09T14:06:38Z</time>
      </trkpt>
      <trkpt lat="49.25358" lon="2.33311">
        <ele>123</ele>
        <time>2018-09-09T14:06:45Z</time>
      </trkpt>
      <trkpt lat="49.25368" lon="2.33311">
        <ele>122</ele>
        <time>2018-09-09T14:06:54Z</time>
      </trkpt>
      <trkpt lat="49.25378" lon="2.33308">
        <ele>121</ele>
        <time>2018-09-09T14:07:02Z</time>
      </trkpt>
      <trkpt lat="49.25386" lon="2.33305">
        <ele>120</ele>
        <time>2018-09-09T14:07:08Z</time>
      </trkpt>
      <trkpt lat="49.25396" lon="2.33301">
        <ele>119</ele>
        <time>2018-09-09T14:07:15Z</time>
      </trkpt>
      <trkpt lat="49.25405" lon="2.33297">
        <ele>119</ele>
        <time>2018-09-09T14:07:22Z</time>
      </trkpt>
      <trkpt lat="49.25414" lon="2.33292">
        <ele>119</ele>
        <time>2018-09-09T14:07:29Z</time>
      </trkpt>
      <trkpt lat="49.25423" lon="2.33286">
        <ele>119</ele>
        <time>2018-09-09T14:07:35Z</time>
      </trkpt>
      <trkpt lat="49.2543" lon="2.33278">
        <ele>120</ele>
        <time>2018-09-09T14:07:42Z</time>
      </trkpt>
      <trkpt lat="49.25439" lon="2.33271">
        <ele>120</ele>
        <time>2018-09-09T14:07:49Z</time>
      </trkpt>
      <trkpt lat="49.25447" lon="2.33262">
        <ele>121</ele>
        <time>2018-09-09T14:07:54Z</time>
      </trkpt>
      <trkpt lat="49.25453" lon="2.33252">
        <ele>122</ele>
        <time>2018-09-09T14:08:00Z</time>
      </trkpt>
      <trkpt lat="49.25459" lon="2.3324">
        <ele>123</ele>
        <time>2018-09-09T14:08:07Z</time>
      </trkpt>
      <trkpt lat="49.25467" lon="2.33232">
        <ele>124</ele>
        <time>2018-09-09T14:08:15Z</time>
      </trkpt>
      <trkpt lat="49.25475" lon="2.33224">
        <ele>124</ele>
        <time>2018-09-09T14:08:24Z</time>
      </trkpt>
      <trkpt lat="49.25483" lon="2.33219">
        <ele>123</ele>
        <time>2018-09-09T14:08:32Z</time>
      </trkpt>
      <trkpt lat="49.2549" lon="2.33209">
        <ele>123</ele>
        <time>2018-09-09T14:08:37Z</time>
      </trkpt>
      <trkpt lat="49.25497" lon="2.33198">
        <ele>123</ele>
        <time>2018-09-09T14:08:43Z</time>
      </trkpt>
      <trkpt lat="49.25506" lon="2.33192">
        <ele>123</ele>
        <time>2018-09-09T14:08:50Z</time>
      </trkpt>
      <trkpt lat="49.25513" lon="2.33182">
        <ele>123</ele>
        <time>2018-09-09T14:09:01Z</time>
      </trkpt>
      <trkpt lat="49.25522" lon="2.33176">
        <ele>123</ele>
        <time>2018-09-09T14:09:09Z</time>
      </trkpt>
      <trkpt lat="49.25531" lon="2.33168">
        <ele>123</ele>
        <time>2018-09-09T14:09:14Z</time>
      </trkpt>
      <trkpt lat="49.25539" lon="2.33161">
        <ele>123</ele>
        <time>2018-09-09T14:09:20Z</time>
      </trkpt>
      <trkpt lat="49.25547" lon="2.33152">
        <ele>123</ele>
        <time>2018-09-09T14:09:27Z</time>
      </trkpt>
      <trkpt lat="49.25554" lon="2.33141">
        <ele>123</ele>
        <time>2018-09-09T14:09:36Z</time>
      </trkpt>
      <trkpt lat="49.2556" lon="2.33131">
        <ele>123</ele>
        <time>2018-09-09T14:09:44Z</time>
      </trkpt>
      <trkpt lat="49.25565" lon="2.33119">
        <ele>122</ele>
        <time>2018-09-09T14:09:53Z</time>
      </trkpt>
      <trkpt lat="49.25572" lon="2.33108">
        <ele>122</ele>
        <time>2018-09-09T14:10:00Z</time>
      </trkpt>
      <trkpt lat="49.25578" lon="2.33098">
        <ele>121</ele>
        <time>2018-09-09T14:10:08Z</time>
      </trkpt>
      <trkpt lat="49.25585" lon="2.33087">
        <ele>120</ele>
        <time>2018-09-09T14:10:16Z</time>
      </trkpt>
      <trkpt lat="49.2559" lon="2.33075">
        <ele>120</ele>
        <time>2018-09-09T14:10:23Z</time>
      </trkpt>
      <trkpt lat="49.25594" lon="2.33061">
        <ele>119</ele>
        <time>2018-09-09T14:10:31Z</time>
      </trkpt>
      <trkpt lat="49.25593" lon="2.33046">
        <ele>119</ele>
        <time>2018-09-09T14:10:37Z</time>
      </trkpt>
      <trkpt lat="49.25596" lon="2.33031">
        <ele>118</ele>
        <time>2018-09-09T14:10:44Z</time>
      </trkpt>
      <trkpt lat="49.25603" lon="2.3302">
        <ele>117</ele>
        <time>2018-09-09T14:10:51Z</time>
      </trkpt>
      <trkpt lat="49.25609" lon="2.33009">
        <ele>117</ele>
        <time>2018-09-09T14:10:58Z</time>
      </trkpt>
      <trkpt lat="49.25615" lon="2.32997">
        <ele>117</ele>
        <time>2018-09-09T14:11:05Z</time>
      </trkpt>
      <trkpt lat="49.25621" lon="2.32986">
        <ele>116</ele>
        <time>2018-09-09T14:11:12Z</time>
      </trkpt>
      <trkpt lat="49.25628" lon="2.32976">
        <ele>116</ele>
        <time>2018-09-09T14:11:19Z</time>
      </trkpt>
      <trkpt lat="49.25635" lon="2.32966">
        <ele>115</ele>
        <time>2018-09-09T14:11:27Z</time>
      </trkpt>
      <trkpt lat="49.25643" lon="2.32956">
        <ele>114</ele>
        <time>2018-09-09T14:11:35Z</time>
      </trkpt>
      <trkpt lat="49.25651" lon="2.32947">
        <ele>113</ele>
        <time>2018-09-09T14:11:43Z</time>
      </trkpt>
      <trkpt lat="49.25657" lon="2.32936">
        <ele>113</ele>
        <time>2018-09-09T14:11:50Z</time>
      </trkpt>
      <trkpt lat="49.25663" lon="2.32925">
        <ele>112</ele>
        <time>2018-09-09T14:11:57Z</time>
      </trkpt>
      <trkpt lat="49.25669" lon="2.32913">
        <ele>112</ele>
        <time>2018-09-09T14:12:04Z</time>
      </trkpt>
      <trkpt lat="49.25672" lon="2.32899">
        <ele>111</ele>
        <time>2018-09-09T14:12:11Z</time>
      </trkpt>
      <trkpt lat="49.25677" lon="2.32886">
        <ele>110</ele>
        <time>2018-09-09T14:12:17Z</time>
      </trkpt>
      <trkpt lat="49.2568" lon="2.32873">
        <ele>110</ele>
        <time>2018-09-09T14:12:24Z</time>
      </trkpt>
      <trkpt lat="49.25683" lon="2.32859">
        <ele>109</ele>
        <time>2018-09-09T14:12:31Z</time>
      </trkpt>
      <trkpt lat="49.25687" lon="2.32845">
        <ele>108</ele>
        <time>2018-09-09T14:12:38Z</time>
      </trkpt>
      <trkpt lat="49.25693" lon="2.32834">
        <ele>108</ele>
        <time>2018-09-09T14:12:44Z</time>
      </trkpt>
      <trkpt lat="49.25701" lon="2.32825">
        <ele>108</ele>
        <time>2018-09-09T14:12:51Z</time>
      </trkpt>
      <trkpt lat="49.25708" lon="2.32815">
        <ele>108</ele>
        <time>2018-09-09T14:13:00Z</time>
      </trkpt>
      <trkpt lat="49.25715" lon="2.32807">
        <ele>107</ele>
        <time>2018-09-09T14:13:08Z</time>
      </trkpt>
      <trkpt lat="49.25724" lon="2.32798">
        <ele>106</ele>
        <time>2018-09-09T14:13:16Z</time>
      </trkpt>
      <trkpt lat="49.2573" lon="2.32787">
        <ele>106</ele>
        <time>2018-09-09T14:13:23Z</time>
      </trkpt>
      <trkpt lat="49.25738" lon="2.32779">
        <ele>105</ele>
        <time>2018-09-09T14:13:31Z</time>
      </trkpt>
      <trkpt lat="49.25746" lon="2.32771">
        <ele>104</ele>
        <time>2018-09-09T14:13:38Z</time>
      </trkpt>
      <trkpt lat="49.25754" lon="2.32764">
        <ele>104</ele>
        <time>2018-09-09T14:13:44Z</time>
      </trkpt>
      <trkpt lat="49.25761" lon="2.32755">
        <ele>103</ele>
        <time>2018-09-09T14:13:51Z</time>
      </trkpt>
      <trkpt lat="49.2577" lon="2.32753">
        <ele>102</ele>
        <time>2018-09-09T14:13:59Z</time>
      </trkpt>
      <trkpt lat="49.2578" lon="2.32756">
        <ele>101</ele>
        <time>2018-09-09T14:14:06Z</time>
      </trkpt>
      <trkpt lat="49.25786" lon="2.32766">
        <ele>101</ele>
        <time>2018-09-09T14:14:13Z</time>
      </trkpt>
      <trkpt lat="49.25791" lon="2.32778">
        <ele>101</ele>
        <time>2018-09-09T14:14:24Z</time>
      </trkpt>
      <trkpt lat="49.25801" lon="2.32776">
        <ele>101</ele>
        <time>2018-09-09T14:14:32Z</time>
      </trkpt>
      <trkpt lat="49.2581" lon="2.32775">
        <ele>101</ele>
        <time>2018-09-09T14:14:42Z</time>
      </trkpt>
    </trkseg>
  </trk>
</gpx>